<?xml version="1.0" encoding="UTF-8" standalone="no" ?>
<gpx xmlns="http://www.topografix.com/GPX/1/1" xmlns:xsi="http://www.w3.org/2001/XMLSchema-instance" xsi:schemaLocation="http://www.topografix.com/GPX/1/1 http://www.topografix.com/GPX/1/1/gpx.xsd" version="1.1" creator="VisuGPX - https://www.visugpx.com">
  <metadata>
    <name>Tour du Cap d'Erquy</name>
  </metadata>
  <wpt lat="48.62993" lon="-2.46803">
    <ele>6.7</ele>
    <name><![CDATA[DEPART]]></name>
    <type><![CDATA[pk]]></type>
  </wpt>
  <wpt lat="48.65198" lon="-2.43964">
    <ele>7.1</ele>
    <name><![CDATA[PICNIC]]></name>
    <type><![CDATA[picnic]]></type>
  </wpt>
  <wpt lat="48.64669" lon="-2.41849">
    <ele>2.9</ele>
    <name><![CDATA[MARREE BASSE]]></name>
    <desc><![CDATA[Seulement à marée basse]]></desc>
    <type><![CDATA[danger]]></type>
  </wpt>
  <wpt lat="48.64696" lon="-2.42103">
    <ele>9.2</ele>
    <name><![CDATA[DEPART 2]]></name>
    <desc><![CDATA[Départ pour rando courte.]]></desc>
    <type><![CDATA[pk]]></type>
  </wpt>
  <trk>
    <name><![CDATA[Tour du Cap d'Erquy_1]]></name>
    <extensions>
      <line xmlns="http://www.topografix.com/GPX/gpx_style/0/2">
        <color>0000FF</color>
        <width>4</width>
      </line>
    </extensions>
    <trkseg>
      <trkpt lat="48.63004" lon="-2.46795">
        <ele>6.7</ele>
        <time>2021-05-11T08:06:00Z</time>
      </trkpt>
      <trkpt lat="48.62998" lon="-2.46771">
        <ele>8</ele>
      </trkpt>
      <trkpt lat="48.63011" lon="-2.46755">
        <ele>8.3</ele>
      </trkpt>
      <trkpt lat="48.63004" lon="-2.46657">
        <ele>8</ele>
      </trkpt>
      <trkpt lat="48.62996" lon="-2.46562">
        <ele>8.1</ele>
      </trkpt>
      <trkpt lat="48.62996" lon="-2.46548">
        <ele>8.1</ele>
      </trkpt>
      <trkpt lat="48.62954" lon="-2.46562">
        <ele>9.1</ele>
      </trkpt>
      <trkpt lat="48.62955" lon="-2.46522">
        <ele>9.1</ele>
      </trkpt>
      <trkpt lat="48.62963" lon="-2.46476">
        <ele>8.9</ele>
      </trkpt>
      <trkpt lat="48.62966" lon="-2.46454">
        <ele>8.8</ele>
      </trkpt>
      <trkpt lat="48.62896" lon="-2.46425">
        <ele>11.7</ele>
      </trkpt>
      <trkpt lat="48.62876" lon="-2.46426">
        <ele>13.3</ele>
      </trkpt>
      <trkpt lat="48.62853" lon="-2.46419">
        <ele>15.3</ele>
      </trkpt>
      <trkpt lat="48.62847" lon="-2.4644">
        <ele>15.6</ele>
      </trkpt>
      <trkpt lat="48.62827" lon="-2.46426">
        <ele>17.7</ele>
      </trkpt>
      <trkpt lat="48.62837" lon="-2.46368">
        <ele>17.2</ele>
      </trkpt>
      <trkpt lat="48.62839" lon="-2.4635">
        <ele>17.3</ele>
      </trkpt>
      <trkpt lat="48.62809" lon="-2.46334">
        <ele>21.5</ele>
      </trkpt>
      <trkpt lat="48.6278" lon="-2.46325">
        <ele>25.8</ele>
      </trkpt>
      <trkpt lat="48.6277" lon="-2.46316">
        <ele>27.5</ele>
      </trkpt>
      <trkpt lat="48.62737" lon="-2.46294">
        <ele>33.4</ele>
      </trkpt>
      <trkpt lat="48.62717" lon="-2.46278">
        <ele>37.8</ele>
      </trkpt>
      <trkpt lat="48.62696" lon="-2.46248">
        <ele>42.3</ele>
      </trkpt>
      <trkpt lat="48.628" lon="-2.45957">
        <ele>34.8</ele>
        <time>2021-05-11T08:06:00Z</time>
      </trkpt>
      <trkpt lat="48.628" lon="-2.45942">
        <ele>35.4</ele>
      </trkpt>
      <trkpt lat="48.62796" lon="-2.45936">
        <ele>36.078247070312</ele>
        <time>2021-05-11T08:06:08Z</time>
      </trkpt>
      <trkpt lat="48.62792" lon="-2.45925">
        <ele>38.023986816406</ele>
        <time>2021-05-11T08:06:18Z</time>
      </trkpt>
      <trkpt lat="48.62789" lon="-2.45913">
        <ele>36.271118164062</ele>
        <time>2021-05-11T08:06:46Z</time>
      </trkpt>
      <trkpt lat="48.62782" lon="-2.45905">
        <ele>35.840087890625</ele>
        <time>2021-05-11T08:06:53Z</time>
      </trkpt>
      <trkpt lat="48.62775" lon="-2.45898">
        <ele>34.482788085938</ele>
        <time>2021-05-11T08:07:02Z</time>
      </trkpt>
      <trkpt lat="48.62768" lon="-2.45893">
        <ele>36.243713378906</ele>
        <time>2021-05-11T08:07:11Z</time>
      </trkpt>
      <trkpt lat="48.62762" lon="-2.45888">
        <ele>39.271606445312</ele>
        <time>2021-05-11T08:07:18Z</time>
      </trkpt>
      <trkpt lat="48.62755" lon="-2.4588">
        <ele>40.117065429688</ele>
        <time>2021-05-11T08:07:27Z</time>
      </trkpt>
      <trkpt lat="48.62746" lon="-2.45876">
        <ele>40.755920410156</ele>
        <time>2021-05-11T08:07:33Z</time>
      </trkpt>
      <trkpt lat="48.62741" lon="-2.45867">
        <ele>39.679077148438</ele>
        <time>2021-05-11T08:07:42Z</time>
      </trkpt>
      <trkpt lat="48.62735" lon="-2.45858">
        <ele>40.1748046875</ele>
        <time>2021-05-11T08:07:55Z</time>
      </trkpt>
      <trkpt lat="48.62742" lon="-2.45849">
        <ele>43.170776367188</ele>
        <time>2021-05-11T08:08:56Z</time>
      </trkpt>
      <trkpt lat="48.6275" lon="-2.45847">
        <ele>43.142333984375</ele>
        <time>2021-05-11T08:09:04Z</time>
      </trkpt>
      <trkpt lat="48.62756" lon="-2.45849">
        <ele>46.024658203125</ele>
        <time>2021-05-11T08:09:10Z</time>
      </trkpt>
      <trkpt lat="48.62765" lon="-2.45854">
        <ele>42.918029785156</ele>
        <time>2021-05-11T08:09:22Z</time>
      </trkpt>
      <trkpt lat="48.62762" lon="-2.45842">
        <ele>41.617431640625</ele>
        <time>2021-05-11T08:09:41Z</time>
      </trkpt>
      <trkpt lat="48.62766" lon="-2.45833">
        <ele>41.773376464844</ele>
        <time>2021-05-11T08:09:49Z</time>
      </trkpt>
      <trkpt lat="48.6277" lon="-2.45822">
        <ele>41.48095703125</ele>
        <time>2021-05-11T08:09:56Z</time>
      </trkpt>
      <trkpt lat="48.62771" lon="-2.45808">
        <ele>38.685729980469</ele>
        <time>2021-05-11T08:10:12Z</time>
      </trkpt>
      <trkpt lat="48.62769" lon="-2.45796">
        <ele>41.171630859375</ele>
        <time>2021-05-11T08:10:21Z</time>
      </trkpt>
      <trkpt lat="48.62778" lon="-2.45798">
        <ele>38.522155761719</ele>
        <time>2021-05-11T08:11:01Z</time>
      </trkpt>
      <trkpt lat="48.62785" lon="-2.45804">
        <ele>36.33837890625</ele>
        <time>2021-05-11T08:11:10Z</time>
      </trkpt>
      <trkpt lat="48.62787" lon="-2.45816">
        <ele>36.660827636719</ele>
        <time>2021-05-11T08:11:15Z</time>
      </trkpt>
      <trkpt lat="48.62788" lon="-2.45827">
        <ele>36.621154785156</ele>
        <time>2021-05-11T08:11:20Z</time>
      </trkpt>
      <trkpt lat="48.62789" lon="-2.45839">
        <ele>36.721435546875</ele>
        <time>2021-05-11T08:11:26Z</time>
      </trkpt>
      <trkpt lat="48.62791" lon="-2.45851">
        <ele>37.51708984375</ele>
        <time>2021-05-11T08:11:36Z</time>
      </trkpt>
      <trkpt lat="48.62795" lon="-2.45861">
        <ele>38.472106933594</ele>
        <time>2021-05-11T08:11:42Z</time>
      </trkpt>
      <trkpt lat="48.62796" lon="-2.45875">
        <ele>37.376708984375</ele>
        <time>2021-05-11T08:11:49Z</time>
      </trkpt>
      <trkpt lat="48.628" lon="-2.45885">
        <ele>34.894226074219</ele>
        <time>2021-05-11T08:11:56Z</time>
      </trkpt>
      <trkpt lat="48.62802" lon="-2.45897">
        <ele>37.44775390625</ele>
        <time>2021-05-11T08:12:07Z</time>
      </trkpt>
      <trkpt lat="48.62802" lon="-2.45909">
        <ele>34.782653808594</ele>
        <time>2021-05-11T08:12:12Z</time>
      </trkpt>
      <trkpt lat="48.62805" lon="-2.45922">
        <ele>32.731018066406</ele>
        <time>2021-05-11T08:12:21Z</time>
      </trkpt>
      <trkpt lat="48.62811" lon="-2.4593">
        <ele>32.518310546875</ele>
        <time>2021-05-11T08:12:30Z</time>
      </trkpt>
      <trkpt lat="48.62819" lon="-2.45932">
        <ele>32.026000976562</ele>
        <time>2021-05-11T08:12:38Z</time>
      </trkpt>
      <trkpt lat="48.62824" lon="-2.45923">
        <ele>31.5537109375</ele>
        <time>2021-05-11T08:12:45Z</time>
      </trkpt>
      <trkpt lat="48.62829" lon="-2.45913">
        <ele>31.715270996094</ele>
        <time>2021-05-11T08:12:52Z</time>
      </trkpt>
      <trkpt lat="48.62835" lon="-2.45903">
        <ele>31.828735351562</ele>
        <time>2021-05-11T08:13:00Z</time>
      </trkpt>
      <trkpt lat="48.62842" lon="-2.45896">
        <ele>33.4326171875</ele>
        <time>2021-05-11T08:13:07Z</time>
      </trkpt>
      <trkpt lat="48.62848" lon="-2.45888">
        <ele>34.073608398438</ele>
        <time>2021-05-11T08:13:24Z</time>
      </trkpt>
      <trkpt lat="48.62854" lon="-2.45879">
        <ele>34.794067382812</ele>
        <time>2021-05-11T08:13:31Z</time>
      </trkpt>
      <trkpt lat="48.62858" lon="-2.45868">
        <ele>34.248413085938</ele>
        <time>2021-05-11T08:13:38Z</time>
      </trkpt>
      <trkpt lat="48.6286" lon="-2.45855">
        <ele>32.380432128906</ele>
        <time>2021-05-11T08:13:46Z</time>
      </trkpt>
      <trkpt lat="48.62859" lon="-2.45842">
        <ele>32.067443847656</ele>
        <time>2021-05-11T08:13:54Z</time>
      </trkpt>
      <trkpt lat="48.62863" lon="-2.45832">
        <ele>32.120361328125</ele>
        <time>2021-05-11T08:14:01Z</time>
      </trkpt>
      <trkpt lat="48.62869" lon="-2.45824">
        <ele>32.703186035156</ele>
        <time>2021-05-11T08:14:07Z</time>
      </trkpt>
      <trkpt lat="48.62875" lon="-2.45815">
        <ele>31.401062011719</ele>
        <time>2021-05-11T08:14:13Z</time>
      </trkpt>
      <trkpt lat="48.62881" lon="-2.45807">
        <ele>31.029235839844</ele>
        <time>2021-05-11T08:14:19Z</time>
      </trkpt>
      <trkpt lat="48.62887" lon="-2.45798">
        <ele>31.66015625</ele>
        <time>2021-05-11T08:14:26Z</time>
      </trkpt>
      <trkpt lat="48.6289" lon="-2.45787">
        <ele>32.08154296875</ele>
        <time>2021-05-11T08:14:33Z</time>
      </trkpt>
      <trkpt lat="48.62894" lon="-2.45776">
        <ele>31.669921875</ele>
        <time>2021-05-11T08:14:41Z</time>
      </trkpt>
      <trkpt lat="48.62896" lon="-2.45764">
        <ele>31.362548828125</ele>
        <time>2021-05-11T08:14:48Z</time>
      </trkpt>
      <trkpt lat="48.62898" lon="-2.45754">
        <ele>31.410217285156</ele>
        <time>2021-05-11T08:14:54Z</time>
      </trkpt>
      <trkpt lat="48.62901" lon="-2.45741">
        <ele>31.577880859375</ele>
        <time>2021-05-11T08:14:58Z</time>
      </trkpt>
      <trkpt lat="48.62904" lon="-2.4573">
        <ele>34.049560546875</ele>
        <time>2021-05-11T08:15:04Z</time>
      </trkpt>
      <trkpt lat="48.62909" lon="-2.45719">
        <ele>34.524780273438</ele>
        <time>2021-05-11T08:15:13Z</time>
      </trkpt>
      <trkpt lat="48.62915" lon="-2.45709">
        <ele>34.852233886719</ele>
        <time>2021-05-11T08:15:20Z</time>
      </trkpt>
      <trkpt lat="48.62919" lon="-2.457">
        <ele>34.137145996094</ele>
        <time>2021-05-11T08:15:26Z</time>
      </trkpt>
      <trkpt lat="48.62924" lon="-2.4569">
        <ele>37.0810546875</ele>
        <time>2021-05-11T08:15:31Z</time>
      </trkpt>
      <trkpt lat="48.62927" lon="-2.45679">
        <ele>36.463256835938</ele>
        <time>2021-05-11T08:15:38Z</time>
      </trkpt>
      <trkpt lat="48.62928" lon="-2.45667">
        <ele>34.962829589844</ele>
        <time>2021-05-11T08:15:45Z</time>
      </trkpt>
      <trkpt lat="48.6293" lon="-2.45655">
        <ele>35.954711914062</ele>
        <time>2021-05-11T08:15:52Z</time>
      </trkpt>
      <trkpt lat="48.62933" lon="-2.45643">
        <ele>35.284057617188</ele>
        <time>2021-05-11T08:15:59Z</time>
      </trkpt>
      <trkpt lat="48.62936" lon="-2.45631">
        <ele>35.581481933594</ele>
        <time>2021-05-11T08:16:05Z</time>
      </trkpt>
      <trkpt lat="48.62937" lon="-2.45618">
        <ele>34.640869140625</ele>
        <time>2021-05-11T08:16:11Z</time>
      </trkpt>
      <trkpt lat="48.62938" lon="-2.45606">
        <ele>33.550903320312</ele>
        <time>2021-05-11T08:16:18Z</time>
      </trkpt>
      <trkpt lat="48.62939" lon="-2.45594">
        <ele>32.933654785156</ele>
        <time>2021-05-11T08:16:25Z</time>
      </trkpt>
      <trkpt lat="48.62938" lon="-2.45581">
        <ele>33.8056640625</ele>
        <time>2021-05-11T08:16:33Z</time>
      </trkpt>
      <trkpt lat="48.6294" lon="-2.45569">
        <ele>34.619812011719</ele>
        <time>2021-05-11T08:16:38Z</time>
      </trkpt>
      <trkpt lat="48.62944" lon="-2.45559">
        <ele>35.161315917969</ele>
        <time>2021-05-11T08:16:44Z</time>
      </trkpt>
      <trkpt lat="48.62945" lon="-2.45547">
        <ele>34.396423339844</ele>
        <time>2021-05-11T08:16:51Z</time>
      </trkpt>
      <trkpt lat="48.62948" lon="-2.45536">
        <ele>33.9521484375</ele>
        <time>2021-05-11T08:16:57Z</time>
      </trkpt>
      <trkpt lat="48.62949" lon="-2.45523">
        <ele>35.362976074219</ele>
        <time>2021-05-11T08:17:04Z</time>
      </trkpt>
      <trkpt lat="48.6295" lon="-2.45509">
        <ele>36.493041992188</ele>
        <time>2021-05-11T08:17:10Z</time>
      </trkpt>
      <trkpt lat="48.62949" lon="-2.45497">
        <ele>37.049621582031</ele>
        <time>2021-05-11T08:17:17Z</time>
      </trkpt>
      <trkpt lat="48.62953" lon="-2.45485">
        <ele>36.772888183594</ele>
        <time>2021-05-11T08:17:25Z</time>
      </trkpt>
      <trkpt lat="48.62954" lon="-2.45474">
        <ele>37.662963867188</ele>
        <time>2021-05-11T08:17:32Z</time>
      </trkpt>
      <trkpt lat="48.62955" lon="-2.4546">
        <ele>35.950744628906</ele>
        <time>2021-05-11T08:17:40Z</time>
      </trkpt>
      <trkpt lat="48.62956" lon="-2.45448">
        <ele>36.401184082031</ele>
        <time>2021-05-11T08:17:48Z</time>
      </trkpt>
      <trkpt lat="48.62955" lon="-2.45436">
        <ele>36.583618164062</ele>
        <time>2021-05-11T08:17:55Z</time>
      </trkpt>
      <trkpt lat="48.62956" lon="-2.45424">
        <ele>38.734924316406</ele>
        <time>2021-05-11T08:18:01Z</time>
      </trkpt>
      <trkpt lat="48.62958" lon="-2.45411">
        <ele>38.504577636719</ele>
        <time>2021-05-11T08:18:06Z</time>
      </trkpt>
      <trkpt lat="48.62959" lon="-2.454">
        <ele>38.268005371094</ele>
        <time>2021-05-11T08:18:13Z</time>
      </trkpt>
      <trkpt lat="48.6296" lon="-2.45387">
        <ele>36.869567871094</ele>
        <time>2021-05-11T08:18:20Z</time>
      </trkpt>
      <trkpt lat="48.62961" lon="-2.45375">
        <ele>36.89404296875</ele>
        <time>2021-05-11T08:18:27Z</time>
      </trkpt>
      <trkpt lat="48.62963" lon="-2.45363">
        <ele>36.573486328125</ele>
        <time>2021-05-11T08:18:32Z</time>
      </trkpt>
      <trkpt lat="48.62963" lon="-2.4535">
        <ele>37.301940917969</ele>
        <time>2021-05-11T08:18:40Z</time>
      </trkpt>
      <trkpt lat="48.62966" lon="-2.45338">
        <ele>38.662536621094</ele>
        <time>2021-05-11T08:18:47Z</time>
      </trkpt>
      <trkpt lat="48.62967" lon="-2.45325">
        <ele>39.639770507812</ele>
        <time>2021-05-11T08:18:53Z</time>
      </trkpt>
      <trkpt lat="48.62968" lon="-2.45314">
        <ele>38.695251464844</ele>
        <time>2021-05-11T08:18:59Z</time>
      </trkpt>
      <trkpt lat="48.62969" lon="-2.45301">
        <ele>37.024047851562</ele>
        <time>2021-05-11T08:19:07Z</time>
      </trkpt>
      <trkpt lat="48.62971" lon="-2.45288">
        <ele>35.995544433594</ele>
        <time>2021-05-11T08:19:14Z</time>
      </trkpt>
      <trkpt lat="48.62972" lon="-2.45276">
        <ele>37.574157714844</ele>
        <time>2021-05-11T08:19:19Z</time>
      </trkpt>
      <trkpt lat="48.62973" lon="-2.45263">
        <ele>36.745727539062</ele>
        <time>2021-05-11T08:19:26Z</time>
      </trkpt>
      <trkpt lat="48.62975" lon="-2.45251">
        <ele>38.080505371094</ele>
        <time>2021-05-11T08:19:33Z</time>
      </trkpt>
      <trkpt lat="48.62978" lon="-2.45239">
        <ele>38.038940429688</ele>
        <time>2021-05-11T08:19:39Z</time>
      </trkpt>
      <trkpt lat="48.62981" lon="-2.45226">
        <ele>38.94580078125</ele>
        <time>2021-05-11T08:19:46Z</time>
      </trkpt>
      <trkpt lat="48.62981" lon="-2.45213">
        <ele>40.185546875</ele>
        <time>2021-05-11T08:19:54Z</time>
      </trkpt>
      <trkpt lat="48.62981" lon="-2.452">
        <ele>38.291687011719</ele>
        <time>2021-05-11T08:19:59Z</time>
      </trkpt>
      <trkpt lat="48.62983" lon="-2.45188">
        <ele>38.534729003906</ele>
        <time>2021-05-11T08:20:06Z</time>
      </trkpt>
      <trkpt lat="48.62984" lon="-2.45176">
        <ele>40.653564453125</ele>
        <time>2021-05-11T08:20:11Z</time>
      </trkpt>
      <trkpt lat="48.62987" lon="-2.45164">
        <ele>39.279541015625</ele>
        <time>2021-05-11T08:20:18Z</time>
      </trkpt>
      <trkpt lat="48.62987" lon="-2.45153">
        <ele>38.111267089844</ele>
        <time>2021-05-11T08:20:24Z</time>
      </trkpt>
      <trkpt lat="48.62988" lon="-2.45141">
        <ele>37.434387207031</ele>
        <time>2021-05-11T08:20:29Z</time>
      </trkpt>
      <trkpt lat="48.6299" lon="-2.45128">
        <ele>36.352844238281</ele>
        <time>2021-05-11T08:20:36Z</time>
      </trkpt>
      <trkpt lat="48.62992" lon="-2.45117">
        <ele>35.975463867188</ele>
        <time>2021-05-11T08:20:43Z</time>
      </trkpt>
      <trkpt lat="48.62993" lon="-2.45105">
        <ele>37.030883789062</ele>
        <time>2021-05-11T08:20:48Z</time>
      </trkpt>
      <trkpt lat="48.62995" lon="-2.45093">
        <ele>38.756469726562</ele>
        <time>2021-05-11T08:20:55Z</time>
      </trkpt>
      <trkpt lat="48.62998" lon="-2.45082">
        <ele>38.565185546875</ele>
        <time>2021-05-11T08:21:02Z</time>
      </trkpt>
      <trkpt lat="48.63001" lon="-2.4507">
        <ele>38.899169921875</ele>
        <time>2021-05-11T08:21:07Z</time>
      </trkpt>
      <trkpt lat="48.63003" lon="-2.45059">
        <ele>38.561279296875</ele>
        <time>2021-05-11T08:21:14Z</time>
      </trkpt>
      <trkpt lat="48.63004" lon="-2.45047">
        <ele>36.897277832031</ele>
        <time>2021-05-11T08:21:20Z</time>
      </trkpt>
      <trkpt lat="48.63006" lon="-2.45034">
        <ele>37.12451171875</ele>
        <time>2021-05-11T08:21:27Z</time>
      </trkpt>
      <trkpt lat="48.63008" lon="-2.45023">
        <ele>38.834228515625</ele>
        <time>2021-05-11T08:21:33Z</time>
      </trkpt>
      <trkpt lat="48.63009" lon="-2.45011">
        <ele>37.829345703125</ele>
        <time>2021-05-11T08:21:40Z</time>
      </trkpt>
      <trkpt lat="48.63011" lon="-2.44999">
        <ele>39.842102050781</ele>
        <time>2021-05-11T08:21:46Z</time>
      </trkpt>
      <trkpt lat="48.63013" lon="-2.44988">
        <ele>40.629821777344</ele>
        <time>2021-05-11T08:21:52Z</time>
      </trkpt>
      <trkpt lat="48.63017" lon="-2.44977">
        <ele>41.510986328125</ele>
        <time>2021-05-11T08:21:59Z</time>
      </trkpt>
      <trkpt lat="48.63019" lon="-2.44965">
        <ele>41.073364257812</ele>
        <time>2021-05-11T08:22:06Z</time>
      </trkpt>
      <trkpt lat="48.63019" lon="-2.44952">
        <ele>41.426208496094</ele>
        <time>2021-05-11T08:22:14Z</time>
      </trkpt>
      <trkpt lat="48.63022" lon="-2.4494">
        <ele>40.278381347656</ele>
        <time>2021-05-11T08:22:21Z</time>
      </trkpt>
      <trkpt lat="48.63026" lon="-2.44929">
        <ele>40.489685058594</ele>
        <time>2021-05-11T08:22:28Z</time>
      </trkpt>
      <trkpt lat="48.63029" lon="-2.44918">
        <ele>41.151733398438</ele>
        <time>2021-05-11T08:22:33Z</time>
      </trkpt>
      <trkpt lat="48.63033" lon="-2.44908">
        <ele>42.661865234375</ele>
        <time>2021-05-11T08:22:40Z</time>
      </trkpt>
      <trkpt lat="48.63037" lon="-2.44896">
        <ele>41.132263183594</ele>
        <time>2021-05-11T08:22:47Z</time>
      </trkpt>
      <trkpt lat="48.6304" lon="-2.44883">
        <ele>40.515319824219</ele>
        <time>2021-05-11T08:22:54Z</time>
      </trkpt>
      <trkpt lat="48.63043" lon="-2.44872">
        <ele>39.307006835938</ele>
        <time>2021-05-11T08:23:01Z</time>
      </trkpt>
      <trkpt lat="48.63047" lon="-2.4486">
        <ele>39.19482421875</ele>
        <time>2021-05-11T08:23:08Z</time>
      </trkpt>
      <trkpt lat="48.63052" lon="-2.44849">
        <ele>41.505859375</ele>
        <time>2021-05-11T08:23:15Z</time>
      </trkpt>
      <trkpt lat="48.63055" lon="-2.44837">
        <ele>41.924133300781</ele>
        <time>2021-05-11T08:23:22Z</time>
      </trkpt>
      <trkpt lat="48.63058" lon="-2.44826">
        <ele>42.897583007812</ele>
        <time>2021-05-11T08:23:29Z</time>
      </trkpt>
      <trkpt lat="48.63061" lon="-2.44814">
        <ele>43.397583007812</ele>
        <time>2021-05-11T08:23:34Z</time>
      </trkpt>
      <trkpt lat="48.63063" lon="-2.44801">
        <ele>44.709899902344</ele>
        <time>2021-05-11T08:23:42Z</time>
      </trkpt>
      <trkpt lat="48.63067" lon="-2.44789">
        <ele>44.776794433594</ele>
        <time>2021-05-11T08:23:49Z</time>
      </trkpt>
      <trkpt lat="48.63068" lon="-2.44777">
        <ele>43.502380371094</ele>
        <time>2021-05-11T08:23:56Z</time>
      </trkpt>
      <trkpt lat="48.6307" lon="-2.44766">
        <ele>44.400024414062</ele>
        <time>2021-05-11T08:24:01Z</time>
      </trkpt>
      <trkpt lat="48.63073" lon="-2.44754">
        <ele>43.125122070312</ele>
        <time>2021-05-11T08:24:08Z</time>
      </trkpt>
      <trkpt lat="48.63074" lon="-2.44743">
        <ele>44.296325683594</ele>
        <time>2021-05-11T08:24:15Z</time>
      </trkpt>
      <trkpt lat="48.63075" lon="-2.44731">
        <ele>43.4375</ele>
        <time>2021-05-11T08:24:20Z</time>
      </trkpt>
      <trkpt lat="48.63076" lon="-2.44718">
        <ele>44.426086425781</ele>
        <time>2021-05-11T08:24:28Z</time>
      </trkpt>
      <trkpt lat="48.63078" lon="-2.44705">
        <ele>45.27587890625</ele>
        <time>2021-05-11T08:24:35Z</time>
      </trkpt>
      <trkpt lat="48.63079" lon="-2.44692">
        <ele>44.620300292969</ele>
        <time>2021-05-11T08:24:40Z</time>
      </trkpt>
      <trkpt lat="48.63081" lon="-2.44681">
        <ele>44.213745117188</ele>
        <time>2021-05-11T08:24:47Z</time>
      </trkpt>
      <trkpt lat="48.63083" lon="-2.44668">
        <ele>43.7265625</ele>
        <time>2021-05-11T08:24:54Z</time>
      </trkpt>
      <trkpt lat="48.63084" lon="-2.44656">
        <ele>43.143127441406</ele>
        <time>2021-05-11T08:24:59Z</time>
      </trkpt>
      <trkpt lat="48.63085" lon="-2.44643">
        <ele>44.863708496094</ele>
        <time>2021-05-11T08:25:06Z</time>
      </trkpt>
      <trkpt lat="48.63087" lon="-2.44631">
        <ele>45.251892089844</ele>
        <time>2021-05-11T08:25:13Z</time>
      </trkpt>
      <trkpt lat="48.63089" lon="-2.44618">
        <ele>45.569458007812</ele>
        <time>2021-05-11T08:25:19Z</time>
      </trkpt>
      <trkpt lat="48.6309" lon="-2.44606">
        <ele>45.974243164062</ele>
        <time>2021-05-11T08:25:26Z</time>
      </trkpt>
      <trkpt lat="48.63092" lon="-2.44596">
        <ele>45.377319335938</ele>
        <time>2021-05-11T08:25:32Z</time>
      </trkpt>
      <trkpt lat="48.63093" lon="-2.44583">
        <ele>46.413208007812</ele>
        <time>2021-05-11T08:25:37Z</time>
      </trkpt>
      <trkpt lat="48.63094" lon="-2.4457">
        <ele>46.202575683594</ele>
        <time>2021-05-11T08:25:45Z</time>
      </trkpt>
      <trkpt lat="48.63097" lon="-2.44559">
        <ele>44.667846679688</ele>
        <time>2021-05-11T08:25:51Z</time>
      </trkpt>
      <trkpt lat="48.63098" lon="-2.44547">
        <ele>43.478515625</ele>
        <time>2021-05-11T08:25:56Z</time>
      </trkpt>
      <trkpt lat="48.631" lon="-2.44536">
        <ele>44.398803710938</ele>
        <time>2021-05-11T08:26:03Z</time>
      </trkpt>
      <trkpt lat="48.63101" lon="-2.44523">
        <ele>46.512756347656</ele>
        <time>2021-05-11T08:26:11Z</time>
      </trkpt>
      <trkpt lat="48.63103" lon="-2.4451">
        <ele>47.056884765625</ele>
        <time>2021-05-11T08:26:18Z</time>
      </trkpt>
      <trkpt lat="48.63104" lon="-2.44498">
        <ele>45.87744140625</ele>
        <time>2021-05-11T08:26:24Z</time>
      </trkpt>
      <trkpt lat="48.63107" lon="-2.44486">
        <ele>46.294372558594</ele>
        <time>2021-05-11T08:26:32Z</time>
      </trkpt>
      <trkpt lat="48.6311" lon="-2.44474">
        <ele>43.037780761719</ele>
        <time>2021-05-11T08:26:39Z</time>
      </trkpt>
      <trkpt lat="48.63111" lon="-2.44461">
        <ele>46.229614257812</ele>
        <time>2021-05-11T08:26:46Z</time>
      </trkpt>
      <trkpt lat="48.63112" lon="-2.44448">
        <ele>46.725830078125</ele>
        <time>2021-05-11T08:26:51Z</time>
      </trkpt>
      <trkpt lat="48.63112" lon="-2.44435">
        <ele>45.947937011719</ele>
        <time>2021-05-11T08:26:59Z</time>
      </trkpt>
      <trkpt lat="48.63113" lon="-2.44422">
        <ele>48.571472167969</ele>
        <time>2021-05-11T08:27:07Z</time>
      </trkpt>
      <trkpt lat="48.63114" lon="-2.44408">
        <ele>47.650268554688</ele>
        <time>2021-05-11T08:27:15Z</time>
      </trkpt>
      <trkpt lat="48.63115" lon="-2.44396">
        <ele>48.222106933594</ele>
        <time>2021-05-11T08:27:22Z</time>
      </trkpt>
      <trkpt lat="48.63117" lon="-2.44384">
        <ele>49.928466796875</ele>
        <time>2021-05-11T08:27:27Z</time>
      </trkpt>
      <trkpt lat="48.63118" lon="-2.44372">
        <ele>49.88134765625</ele>
        <time>2021-05-11T08:27:34Z</time>
      </trkpt>
      <trkpt lat="48.6312" lon="-2.44359">
        <ele>48.952697753906</ele>
        <time>2021-05-11T08:27:41Z</time>
      </trkpt>
      <trkpt lat="48.63121" lon="-2.44346">
        <ele>49.96923828125</ele>
        <time>2021-05-11T08:27:49Z</time>
      </trkpt>
      <trkpt lat="48.63123" lon="-2.44333">
        <ele>51.3857421875</ele>
        <time>2021-05-11T08:27:54Z</time>
      </trkpt>
      <trkpt lat="48.63126" lon="-2.44321">
        <ele>53.384643554688</ele>
        <time>2021-05-11T08:28:01Z</time>
      </trkpt>
      <trkpt lat="48.63129" lon="-2.44308">
        <ele>56.10888671875</ele>
        <time>2021-05-11T08:28:08Z</time>
      </trkpt>
      <trkpt lat="48.6313" lon="-2.44295">
        <ele>54.984436035156</ele>
        <time>2021-05-11T08:28:15Z</time>
      </trkpt>
      <trkpt lat="48.6313" lon="-2.44282">
        <ele>52.290710449219</ele>
        <time>2021-05-11T08:28:22Z</time>
      </trkpt>
      <trkpt lat="48.63131" lon="-2.44269">
        <ele>50.381469726562</ele>
        <time>2021-05-11T08:28:28Z</time>
      </trkpt>
      <trkpt lat="48.63133" lon="-2.44257">
        <ele>51.484924316406</ele>
        <time>2021-05-11T08:28:34Z</time>
      </trkpt>
      <trkpt lat="48.63135" lon="-2.44245">
        <ele>51.27197265625</ele>
        <time>2021-05-11T08:28:41Z</time>
      </trkpt>
      <trkpt lat="48.63138" lon="-2.44232">
        <ele>52.275329589844</ele>
        <time>2021-05-11T08:28:48Z</time>
      </trkpt>
      <trkpt lat="48.63139" lon="-2.44221">
        <ele>51.4521484375</ele>
        <time>2021-05-11T08:28:53Z</time>
      </trkpt>
      <trkpt lat="48.63138" lon="-2.44208">
        <ele>50.548400878906</ele>
        <time>2021-05-11T08:29:00Z</time>
      </trkpt>
      <trkpt lat="48.63142" lon="-2.44197">
        <ele>53.673828125</ele>
        <time>2021-05-11T08:29:07Z</time>
      </trkpt>
      <trkpt lat="48.63144" lon="-2.44185">
        <ele>54.236694335938</ele>
        <time>2021-05-11T08:29:14Z</time>
      </trkpt>
      <trkpt lat="48.63146" lon="-2.44174">
        <ele>55.110778808594</ele>
        <time>2021-05-11T08:29:19Z</time>
      </trkpt>
      <trkpt lat="48.63148" lon="-2.44162">
        <ele>52.826782226562</ele>
        <time>2021-05-11T08:29:27Z</time>
      </trkpt>
      <trkpt lat="48.63151" lon="-2.4415">
        <ele>53.223999023438</ele>
        <time>2021-05-11T08:29:34Z</time>
      </trkpt>
      <trkpt lat="48.63153" lon="-2.44138">
        <ele>54.242736816406</ele>
        <time>2021-05-11T08:29:41Z</time>
      </trkpt>
      <trkpt lat="48.63153" lon="-2.44125">
        <ele>54.324890136719</ele>
        <time>2021-05-11T08:29:47Z</time>
      </trkpt>
      <trkpt lat="48.63153" lon="-2.44113">
        <ele>54.937866210938</ele>
        <time>2021-05-11T08:29:54Z</time>
      </trkpt>
      <trkpt lat="48.63155" lon="-2.441">
        <ele>54.285095214844</ele>
        <time>2021-05-11T08:30:01Z</time>
      </trkpt>
      <trkpt lat="48.63156" lon="-2.44086">
        <ele>55.196044921875</ele>
        <time>2021-05-11T08:30:08Z</time>
      </trkpt>
      <trkpt lat="48.63158" lon="-2.44074">
        <ele>55.289611816406</ele>
        <time>2021-05-11T08:30:14Z</time>
      </trkpt>
      <trkpt lat="48.63159" lon="-2.44061">
        <ele>54.533386230469</ele>
        <time>2021-05-11T08:30:22Z</time>
      </trkpt>
      <trkpt lat="48.6316" lon="-2.4405">
        <ele>51.490356445312</ele>
        <time>2021-05-11T08:30:28Z</time>
      </trkpt>
      <trkpt lat="48.63163" lon="-2.44037">
        <ele>51.815307617188</ele>
        <time>2021-05-11T08:30:35Z</time>
      </trkpt>
      <trkpt lat="48.63165" lon="-2.44026">
        <ele>52.096618652344</ele>
        <time>2021-05-11T08:30:42Z</time>
      </trkpt>
      <trkpt lat="48.63166" lon="-2.44012">
        <ele>50.464111328125</ele>
        <time>2021-05-11T08:30:49Z</time>
      </trkpt>
      <trkpt lat="48.63166" lon="-2.43999">
        <ele>50.845703125</ele>
        <time>2021-05-11T08:30:55Z</time>
      </trkpt>
      <trkpt lat="48.63167" lon="-2.43988">
        <ele>51.699523925781</ele>
        <time>2021-05-11T08:31:02Z</time>
      </trkpt>
      <trkpt lat="48.63168" lon="-2.43975">
        <ele>49.628662109375</ele>
        <time>2021-05-11T08:31:09Z</time>
      </trkpt>
      <trkpt lat="48.63171" lon="-2.43964">
        <ele>52.440856933594</ele>
        <time>2021-05-11T08:31:16Z</time>
      </trkpt>
      <trkpt lat="48.63172" lon="-2.43952">
        <ele>54.010009765625</ele>
        <time>2021-05-11T08:31:21Z</time>
      </trkpt>
      <trkpt lat="48.6317" lon="-2.4394">
        <ele>53.80322265625</ele>
        <time>2021-05-11T08:31:29Z</time>
      </trkpt>
      <trkpt lat="48.63172" lon="-2.43927">
        <ele>53.429809570312</ele>
        <time>2021-05-11T08:31:35Z</time>
      </trkpt>
      <trkpt lat="48.63174" lon="-2.43917">
        <ele>52.202270507812</ele>
        <time>2021-05-11T08:31:40Z</time>
      </trkpt>
      <trkpt lat="48.63178" lon="-2.43905">
        <ele>53.174499511719</ele>
        <time>2021-05-11T08:31:47Z</time>
      </trkpt>
      <trkpt lat="48.63181" lon="-2.43894">
        <ele>52.212524414062</ele>
        <time>2021-05-11T08:31:54Z</time>
      </trkpt>
      <trkpt lat="48.63183" lon="-2.43881">
        <ele>53.369506835938</ele>
        <time>2021-05-11T08:32:01Z</time>
      </trkpt>
      <trkpt lat="48.63184" lon="-2.43868">
        <ele>54.509582519531</ele>
        <time>2021-05-11T08:32:09Z</time>
      </trkpt>
      <trkpt lat="48.63185" lon="-2.43856">
        <ele>55.152404785156</ele>
        <time>2021-05-11T08:32:15Z</time>
      </trkpt>
      <trkpt lat="48.63185" lon="-2.43843">
        <ele>54.117553710938</ele>
        <time>2021-05-11T08:32:23Z</time>
      </trkpt>
      <trkpt lat="48.63185" lon="-2.43831">
        <ele>52.125549316406</ele>
        <time>2021-05-11T08:32:32Z</time>
      </trkpt>
      <trkpt lat="48.63187" lon="-2.43819">
        <ele>52.293334960938</ele>
        <time>2021-05-11T08:32:36Z</time>
      </trkpt>
      <trkpt lat="48.63188" lon="-2.43806">
        <ele>49.368774414062</ele>
        <time>2021-05-11T08:32:42Z</time>
      </trkpt>
      <trkpt lat="48.6319" lon="-2.43793">
        <ele>51.791198730469</ele>
        <time>2021-05-11T08:32:50Z</time>
      </trkpt>
      <trkpt lat="48.63191" lon="-2.43783">
        <ele>49.830322265625</ele>
        <time>2021-05-11T08:32:56Z</time>
      </trkpt>
      <trkpt lat="48.63194" lon="-2.43771">
        <ele>48.603820800781</ele>
        <time>2021-05-11T08:33:03Z</time>
      </trkpt>
      <trkpt lat="48.63195" lon="-2.43761">
        <ele>50.140869140625</ele>
        <time>2021-05-11T08:33:11Z</time>
      </trkpt>
      <trkpt lat="48.63201" lon="-2.43747">
        <ele>53.120361328125</ele>
        <time>2021-05-11T08:33:16Z</time>
      </trkpt>
      <trkpt lat="48.63198" lon="-2.43734">
        <ele>54.08349609375</ele>
        <time>2021-05-11T08:33:21Z</time>
      </trkpt>
      <trkpt lat="48.63199" lon="-2.43721">
        <ele>52.43603515625</ele>
        <time>2021-05-11T08:33:28Z</time>
      </trkpt>
      <trkpt lat="48.632" lon="-2.4371">
        <ele>52.400085449219</ele>
        <time>2021-05-11T08:33:34Z</time>
      </trkpt>
      <trkpt lat="48.63203" lon="-2.43699">
        <ele>52.756286621094</ele>
        <time>2021-05-11T08:33:42Z</time>
      </trkpt>
      <trkpt lat="48.63205" lon="-2.43687">
        <ele>52.784790039062</ele>
        <time>2021-05-11T08:33:47Z</time>
      </trkpt>
      <trkpt lat="48.63209" lon="-2.43674">
        <ele>52.923095703125</ele>
        <time>2021-05-11T08:33:52Z</time>
      </trkpt>
      <trkpt lat="48.6321" lon="-2.43659">
        <ele>52.587951660156</ele>
        <time>2021-05-11T08:33:56Z</time>
      </trkpt>
      <trkpt lat="48.63211" lon="-2.43647">
        <ele>51.064147949219</ele>
        <time>2021-05-11T08:34:01Z</time>
      </trkpt>
      <trkpt lat="48.6321" lon="-2.43634">
        <ele>47.827026367188</ele>
        <time>2021-05-11T08:34:10Z</time>
      </trkpt>
      <trkpt lat="48.63209" lon="-2.43622">
        <ele>45.156494140625</ele>
        <time>2021-05-11T08:34:19Z</time>
      </trkpt>
      <trkpt lat="48.63209" lon="-2.43611">
        <ele>46.405578613281</ele>
        <time>2021-05-11T08:34:24Z</time>
      </trkpt>
      <trkpt lat="48.63212" lon="-2.43601">
        <ele>49.529235839844</ele>
        <time>2021-05-11T08:34:32Z</time>
      </trkpt>
      <trkpt lat="48.63213" lon="-2.4359">
        <ele>48.846740722656</ele>
        <time>2021-05-11T08:34:38Z</time>
      </trkpt>
      <trkpt lat="48.63214" lon="-2.43576">
        <ele>50.491638183594</ele>
        <time>2021-05-11T08:34:44Z</time>
      </trkpt>
      <trkpt lat="48.63219" lon="-2.43566">
        <ele>50.526245117188</ele>
        <time>2021-05-11T08:34:51Z</time>
      </trkpt>
      <trkpt lat="48.6322" lon="-2.43552">
        <ele>51.754821777344</ele>
        <time>2021-05-11T08:34:57Z</time>
      </trkpt>
      <trkpt lat="48.63221" lon="-2.4354">
        <ele>51.50341796875</ele>
        <time>2021-05-11T08:35:04Z</time>
      </trkpt>
      <trkpt lat="48.63221" lon="-2.43528">
        <ele>51.704162597656</ele>
        <time>2021-05-11T08:35:10Z</time>
      </trkpt>
      <trkpt lat="48.63223" lon="-2.43515">
        <ele>50.687316894531</ele>
        <time>2021-05-11T08:35:16Z</time>
      </trkpt>
      <trkpt lat="48.63225" lon="-2.43502">
        <ele>52.737426757812</ele>
        <time>2021-05-11T08:35:22Z</time>
      </trkpt>
      <trkpt lat="48.63229" lon="-2.43492">
        <ele>52.513854980469</ele>
        <time>2021-05-11T08:35:29Z</time>
      </trkpt>
      <trkpt lat="48.63231" lon="-2.43481">
        <ele>51.923522949219</ele>
        <time>2021-05-11T08:35:35Z</time>
      </trkpt>
      <trkpt lat="48.63232" lon="-2.43469">
        <ele>47.60986328125</ele>
        <time>2021-05-11T08:35:40Z</time>
      </trkpt>
      <trkpt lat="48.63236" lon="-2.43457">
        <ele>48.686584472656</ele>
        <time>2021-05-11T08:35:45Z</time>
      </trkpt>
      <trkpt lat="48.63235" lon="-2.43445">
        <ele>46.970581054688</ele>
        <time>2021-05-11T08:35:51Z</time>
      </trkpt>
      <trkpt lat="48.63236" lon="-2.43432">
        <ele>47.325988769531</ele>
        <time>2021-05-11T08:35:59Z</time>
      </trkpt>
      <trkpt lat="48.63238" lon="-2.43419">
        <ele>47.898681640625</ele>
        <time>2021-05-11T08:36:05Z</time>
      </trkpt>
      <trkpt lat="48.63241" lon="-2.43407">
        <ele>47.413513183594</ele>
        <time>2021-05-11T08:36:13Z</time>
      </trkpt>
      <trkpt lat="48.63244" lon="-2.43395">
        <ele>48.34375</ele>
        <time>2021-05-11T08:36:19Z</time>
      </trkpt>
      <trkpt lat="48.63245" lon="-2.43383">
        <ele>48.621337890625</ele>
        <time>2021-05-11T08:36:25Z</time>
      </trkpt>
      <trkpt lat="48.63245" lon="-2.43371">
        <ele>46.511779785156</ele>
        <time>2021-05-11T08:36:35Z</time>
      </trkpt>
      <trkpt lat="48.63246" lon="-2.43358">
        <ele>44.687194824219</ele>
        <time>2021-05-11T08:36:43Z</time>
      </trkpt>
      <trkpt lat="48.63246" lon="-2.43344">
        <ele>47.340881347656</ele>
        <time>2021-05-11T08:36:49Z</time>
      </trkpt>
      <trkpt lat="48.6325" lon="-2.43333">
        <ele>48.6083984375</ele>
        <time>2021-05-11T08:36:55Z</time>
      </trkpt>
      <trkpt lat="48.63255" lon="-2.43324">
        <ele>49.330444335938</ele>
        <time>2021-05-11T08:37:01Z</time>
      </trkpt>
      <trkpt lat="48.63259" lon="-2.43313">
        <ele>51.26318359375</ele>
        <time>2021-05-11T08:37:06Z</time>
      </trkpt>
      <trkpt lat="48.63262" lon="-2.43301">
        <ele>50.003051757812</ele>
        <time>2021-05-11T08:37:14Z</time>
      </trkpt>
      <trkpt lat="48.63267" lon="-2.43291">
        <ele>49.515930175781</ele>
        <time>2021-05-11T08:37:21Z</time>
      </trkpt>
      <trkpt lat="48.63269" lon="-2.43279">
        <ele>47.053955078125</ele>
        <time>2021-05-11T08:37:29Z</time>
      </trkpt>
      <trkpt lat="48.63274" lon="-2.4327">
        <ele>45.232849121094</ele>
        <time>2021-05-11T08:37:34Z</time>
      </trkpt>
      <trkpt lat="48.6328" lon="-2.43261">
        <ele>44.133728027344</ele>
        <time>2021-05-11T08:37:41Z</time>
      </trkpt>
      <trkpt lat="48.63285" lon="-2.43252">
        <ele>44.957702636719</ele>
        <time>2021-05-11T08:37:48Z</time>
      </trkpt>
      <trkpt lat="48.63292" lon="-2.43245">
        <ele>43.360229492188</ele>
        <time>2021-05-11T08:37:54Z</time>
      </trkpt>
      <trkpt lat="48.63298" lon="-2.43237">
        <ele>45.977355957031</ele>
        <time>2021-05-11T08:38:00Z</time>
      </trkpt>
      <trkpt lat="48.63303" lon="-2.43228">
        <ele>47.01123046875</ele>
        <time>2021-05-11T08:38:07Z</time>
      </trkpt>
      <trkpt lat="48.63309" lon="-2.4322">
        <ele>45.377075195312</ele>
        <time>2021-05-11T08:38:12Z</time>
      </trkpt>
      <trkpt lat="48.63312" lon="-2.43207">
        <ele>41.935302734375</ele>
        <time>2021-05-11T08:38:21Z</time>
      </trkpt>
      <trkpt lat="48.63316" lon="-2.43197">
        <ele>41.667541503906</ele>
        <time>2021-05-11T08:38:29Z</time>
      </trkpt>
      <trkpt lat="48.63323" lon="-2.4319">
        <ele>42.529418945312</ele>
        <time>2021-05-11T08:38:37Z</time>
      </trkpt>
      <trkpt lat="48.63328" lon="-2.4318">
        <ele>45.706848144531</ele>
        <time>2021-05-11T08:38:44Z</time>
      </trkpt>
      <trkpt lat="48.6333" lon="-2.4317">
        <ele>43.940673828125</ele>
        <time>2021-05-11T08:38:49Z</time>
      </trkpt>
      <trkpt lat="48.63335" lon="-2.43159">
        <ele>44.332458496094</ele>
        <time>2021-05-11T08:38:54Z</time>
      </trkpt>
      <trkpt lat="48.63341" lon="-2.43149">
        <ele>41.788330078125</ele>
        <time>2021-05-11T08:39:01Z</time>
      </trkpt>
      <trkpt lat="48.63344" lon="-2.43138">
        <ele>42.266235351562</ele>
        <time>2021-05-11T08:39:07Z</time>
      </trkpt>
      <trkpt lat="48.63344" lon="-2.43126">
        <ele>40.350158691406</ele>
        <time>2021-05-11T08:39:14Z</time>
      </trkpt>
      <trkpt lat="48.63346" lon="-2.43113">
        <ele>38.994018554688</ele>
        <time>2021-05-11T08:39:21Z</time>
      </trkpt>
      <trkpt lat="48.63347" lon="-2.431">
        <ele>36.400390625</ele>
        <time>2021-05-11T08:39:28Z</time>
      </trkpt>
      <trkpt lat="48.63348" lon="-2.43089">
        <ele>38.114196777344</ele>
        <time>2021-05-11T08:39:33Z</time>
      </trkpt>
      <trkpt lat="48.63349" lon="-2.43075">
        <ele>36.873168945312</ele>
        <time>2021-05-11T08:39:40Z</time>
      </trkpt>
      <trkpt lat="48.63349" lon="-2.43065">
        <ele>38.429443359375</ele>
        <time>2021-05-11T08:39:44Z</time>
      </trkpt>
      <trkpt lat="48.63351" lon="-2.43052">
        <ele>40.21728515625</ele>
        <time>2021-05-11T08:41:28Z</time>
      </trkpt>
      <trkpt lat="48.6335" lon="-2.4304">
        <ele>42.254516601562</ele>
        <time>2021-05-11T08:41:37Z</time>
      </trkpt>
      <trkpt lat="48.63347" lon="-2.43028">
        <ele>40.449340820312</ele>
        <time>2021-05-11T08:41:44Z</time>
      </trkpt>
      <trkpt lat="48.63347" lon="-2.43015">
        <ele>40.599853515625</ele>
        <time>2021-05-11T08:41:51Z</time>
      </trkpt>
      <trkpt lat="48.63347" lon="-2.43002">
        <ele>41.194091796875</ele>
        <time>2021-05-11T08:41:57Z</time>
      </trkpt>
      <trkpt lat="48.63345" lon="-2.4299">
        <ele>44.750244140625</ele>
        <time>2021-05-11T08:42:06Z</time>
      </trkpt>
      <trkpt lat="48.63343" lon="-2.42978">
        <ele>46.789184570312</ele>
        <time>2021-05-11T08:42:13Z</time>
      </trkpt>
      <trkpt lat="48.63341" lon="-2.42966">
        <ele>43.763854980469</ele>
        <time>2021-05-11T08:42:21Z</time>
      </trkpt>
      <trkpt lat="48.63337" lon="-2.42955">
        <ele>45.140197753906</ele>
        <time>2021-05-11T08:42:27Z</time>
      </trkpt>
      <trkpt lat="48.63334" lon="-2.42945">
        <ele>44.39990234375</ele>
        <time>2021-05-11T08:42:32Z</time>
      </trkpt>
      <trkpt lat="48.63331" lon="-2.42934">
        <ele>38.10400390625</ele>
        <time>2021-05-11T08:42:39Z</time>
      </trkpt>
      <trkpt lat="48.63327" lon="-2.42922">
        <ele>36.209289550781</ele>
        <time>2021-05-11T08:42:44Z</time>
      </trkpt>
      <trkpt lat="48.63325" lon="-2.42909">
        <ele>33.4150390625</ele>
        <time>2021-05-11T08:42:52Z</time>
      </trkpt>
      <trkpt lat="48.63327" lon="-2.42896">
        <ele>29.721008300781</ele>
        <time>2021-05-11T08:43:01Z</time>
      </trkpt>
      <trkpt lat="48.63325" lon="-2.42884">
        <ele>31.439514160156</ele>
        <time>2021-05-11T08:43:08Z</time>
      </trkpt>
      <trkpt lat="48.63324" lon="-2.42872">
        <ele>32.352172851562</ele>
        <time>2021-05-11T08:43:13Z</time>
      </trkpt>
      <trkpt lat="48.63324" lon="-2.42859">
        <ele>32.1923828125</ele>
        <time>2021-05-11T08:43:18Z</time>
      </trkpt>
      <trkpt lat="48.63322" lon="-2.42849">
        <ele>32.912109375</ele>
        <time>2021-05-11T08:43:23Z</time>
      </trkpt>
      <trkpt lat="48.63326" lon="-2.42837">
        <ele>34.987060546875</ele>
        <time>2021-05-11T08:43:28Z</time>
      </trkpt>
      <trkpt lat="48.6333" lon="-2.42825">
        <ele>33.260009765625</ele>
        <time>2021-05-11T08:43:36Z</time>
      </trkpt>
      <trkpt lat="48.63335" lon="-2.42815">
        <ele>33.173217773438</ele>
        <time>2021-05-11T08:43:47Z</time>
      </trkpt>
      <trkpt lat="48.63333" lon="-2.42802">
        <ele>31.156921386719</ele>
        <time>2021-05-11T08:43:53Z</time>
      </trkpt>
      <trkpt lat="48.63332" lon="-2.42789">
        <ele>32.132263183594</ele>
        <time>2021-05-11T08:43:58Z</time>
      </trkpt>
      <trkpt lat="48.63333" lon="-2.42777">
        <ele>31.289916992188</ele>
        <time>2021-05-11T08:44:05Z</time>
      </trkpt>
      <trkpt lat="48.63336" lon="-2.42765">
        <ele>32.143615722656</ele>
        <time>2021-05-11T08:44:13Z</time>
      </trkpt>
      <trkpt lat="48.63338" lon="-2.42752">
        <ele>30.985046386719</ele>
        <time>2021-05-11T08:44:19Z</time>
      </trkpt>
      <trkpt lat="48.63339" lon="-2.4274">
        <ele>33.181457519531</ele>
        <time>2021-05-11T08:44:27Z</time>
      </trkpt>
      <trkpt lat="48.63336" lon="-2.42728">
        <ele>31.718139648438</ele>
        <time>2021-05-11T08:44:33Z</time>
      </trkpt>
      <trkpt lat="48.63336" lon="-2.42714">
        <ele>29.977905273438</ele>
        <time>2021-05-11T08:44:38Z</time>
      </trkpt>
      <trkpt lat="48.63334" lon="-2.42701">
        <ele>29.801635742188</ele>
        <time>2021-05-11T08:44:44Z</time>
      </trkpt>
      <trkpt lat="48.63331" lon="-2.4269">
        <ele>29.63720703125</ele>
        <time>2021-05-11T08:44:53Z</time>
      </trkpt>
      <trkpt lat="48.63329" lon="-2.42679">
        <ele>28.509216308594</ele>
        <time>2021-05-11T08:44:58Z</time>
      </trkpt>
      <trkpt lat="48.63326" lon="-2.42668">
        <ele>27.36279296875</ele>
        <time>2021-05-11T08:45:05Z</time>
      </trkpt>
      <trkpt lat="48.63325" lon="-2.42655">
        <ele>26.844970703125</ele>
        <time>2021-05-11T08:45:12Z</time>
      </trkpt>
      <trkpt lat="48.63322" lon="-2.42644">
        <ele>27.846496582031</ele>
        <time>2021-05-11T08:45:17Z</time>
      </trkpt>
      <trkpt lat="48.63317" lon="-2.42634">
        <ele>26.051879882812</ele>
        <time>2021-05-11T08:45:25Z</time>
      </trkpt>
      <trkpt lat="48.63313" lon="-2.42622">
        <ele>29.323669433594</ele>
        <time>2021-05-11T08:45:32Z</time>
      </trkpt>
      <trkpt lat="48.63307" lon="-2.42614">
        <ele>29.251647949219</ele>
        <time>2021-05-11T08:45:40Z</time>
      </trkpt>
      <trkpt lat="48.63303" lon="-2.42606">
        <ele>29.515747070312</ele>
        <time>2021-05-11T08:45:45Z</time>
      </trkpt>
      <trkpt lat="48.633" lon="-2.42595">
        <ele>28.954040527344</ele>
        <time>2021-05-11T08:45:51Z</time>
      </trkpt>
      <trkpt lat="48.63292" lon="-2.42588">
        <ele>25.784545898438</ele>
        <time>2021-05-11T08:45:59Z</time>
      </trkpt>
      <trkpt lat="48.63287" lon="-2.42578">
        <ele>25.778930664062</ele>
        <time>2021-05-11T08:46:04Z</time>
      </trkpt>
      <trkpt lat="48.6328" lon="-2.42572">
        <ele>21.876586914062</ele>
        <time>2021-05-11T08:46:11Z</time>
      </trkpt>
      <trkpt lat="48.63277" lon="-2.42559">
        <ele>24.040954589844</ele>
        <time>2021-05-11T08:46:18Z</time>
      </trkpt>
      <trkpt lat="48.63274" lon="-2.42546">
        <ele>24.785095214844</ele>
        <time>2021-05-11T08:46:28Z</time>
      </trkpt>
      <trkpt lat="48.63271" lon="-2.42535">
        <ele>22.692077636719</ele>
        <time>2021-05-11T08:46:33Z</time>
      </trkpt>
      <trkpt lat="48.63265" lon="-2.42527">
        <ele>18.633239746094</ele>
        <time>2021-05-11T08:46:39Z</time>
      </trkpt>
      <trkpt lat="48.63265" lon="-2.42514">
        <ele>27.333984375</ele>
        <time>2021-05-11T08:46:44Z</time>
      </trkpt>
      <trkpt lat="48.63266" lon="-2.42501">
        <ele>29.858276367188</ele>
        <time>2021-05-11T08:46:50Z</time>
      </trkpt>
      <trkpt lat="48.63269" lon="-2.4249">
        <ele>26.710327148438</ele>
        <time>2021-05-11T08:46:56Z</time>
      </trkpt>
      <trkpt lat="48.63268" lon="-2.42477">
        <ele>24.595520019531</ele>
        <time>2021-05-11T08:47:05Z</time>
      </trkpt>
      <trkpt lat="48.6327" lon="-2.42465">
        <ele>27.402465820312</ele>
        <time>2021-05-11T08:47:10Z</time>
      </trkpt>
      <trkpt lat="48.6327" lon="-2.42453">
        <ele>27.179992675781</ele>
        <time>2021-05-11T08:47:17Z</time>
      </trkpt>
      <trkpt lat="48.63268" lon="-2.42442">
        <ele>26.619812011719</ele>
        <time>2021-05-11T08:47:25Z</time>
      </trkpt>
      <trkpt lat="48.63272" lon="-2.4243">
        <ele>33.565612792969</ele>
        <time>2021-05-11T08:47:33Z</time>
      </trkpt>
      <trkpt lat="48.63275" lon="-2.4242">
        <ele>34.308044433594</ele>
        <time>2021-05-11T08:47:39Z</time>
      </trkpt>
      <trkpt lat="48.63281" lon="-2.42411">
        <ele>33.91259765625</ele>
        <time>2021-05-11T08:47:45Z</time>
      </trkpt>
      <trkpt lat="48.63285" lon="-2.42401">
        <ele>34.031005859375</ele>
        <time>2021-05-11T08:47:52Z</time>
      </trkpt>
      <trkpt lat="48.63286" lon="-2.42387">
        <ele>32.181335449219</ele>
        <time>2021-05-11T08:48:01Z</time>
      </trkpt>
      <trkpt lat="48.63287" lon="-2.42375">
        <ele>31.420532226562</ele>
        <time>2021-05-11T08:48:09Z</time>
      </trkpt>
      <trkpt lat="48.63293" lon="-2.42367">
        <ele>30.031494140625</ele>
        <time>2021-05-11T08:48:15Z</time>
      </trkpt>
      <trkpt lat="48.63297" lon="-2.42356">
        <ele>32.648132324219</ele>
        <time>2021-05-11T08:48:22Z</time>
      </trkpt>
      <trkpt lat="48.63305" lon="-2.42354">
        <ele>35.593566894531</ele>
        <time>2021-05-11T08:48:26Z</time>
      </trkpt>
      <trkpt lat="48.63311" lon="-2.42348">
        <ele>37.207885742188</ele>
        <time>2021-05-11T08:48:30Z</time>
      </trkpt>
      <trkpt lat="48.63318" lon="-2.4234">
        <ele>36.5751953125</ele>
        <time>2021-05-11T08:48:36Z</time>
      </trkpt>
      <trkpt lat="48.63324" lon="-2.42332">
        <ele>35.746398925781</ele>
        <time>2021-05-11T08:48:40Z</time>
      </trkpt>
      <trkpt lat="48.63326" lon="-2.42319">
        <ele>35.873474121094</ele>
        <time>2021-05-11T08:48:50Z</time>
      </trkpt>
      <trkpt lat="48.63331" lon="-2.42311">
        <ele>37.288696289062</ele>
        <time>2021-05-11T08:48:56Z</time>
      </trkpt>
      <trkpt lat="48.63335" lon="-2.42299">
        <ele>34.575927734375</ele>
        <time>2021-05-11T08:49:02Z</time>
      </trkpt>
      <trkpt lat="48.6334" lon="-2.42291">
        <ele>32.694030761719</ele>
        <time>2021-05-11T08:49:07Z</time>
      </trkpt>
      <trkpt lat="48.63347" lon="-2.42285">
        <ele>32.022827148438</ele>
        <time>2021-05-11T08:49:13Z</time>
      </trkpt>
      <trkpt lat="48.63354" lon="-2.42277">
        <ele>30.974304199219</ele>
        <time>2021-05-11T08:49:17Z</time>
      </trkpt>
      <trkpt lat="48.63362" lon="-2.4227">
        <ele>31.193359375</ele>
        <time>2021-05-11T08:49:24Z</time>
      </trkpt>
      <trkpt lat="48.63366" lon="-2.42259">
        <ele>30.481201171875</ele>
        <time>2021-05-11T08:49:32Z</time>
      </trkpt>
      <trkpt lat="48.63367" lon="-2.42247">
        <ele>26.923583984375</ele>
        <time>2021-05-11T08:49:37Z</time>
      </trkpt>
      <trkpt lat="48.63369" lon="-2.42235">
        <ele>29.122436523438</ele>
        <time>2021-05-11T08:49:45Z</time>
      </trkpt>
      <trkpt lat="48.63366" lon="-2.42222">
        <ele>25.31103515625</ele>
        <time>2021-05-11T08:49:56Z</time>
      </trkpt>
      <trkpt lat="48.63367" lon="-2.42209">
        <ele>28.695739746094</ele>
        <time>2021-05-11T08:50:03Z</time>
      </trkpt>
      <trkpt lat="48.6337" lon="-2.42197">
        <ele>25.420654296875</ele>
        <time>2021-05-11T08:50:10Z</time>
      </trkpt>
      <trkpt lat="48.63371" lon="-2.42185">
        <ele>19.327270507812</ele>
        <time>2021-05-11T08:50:15Z</time>
      </trkpt>
      <trkpt lat="48.63371" lon="-2.42173">
        <ele>19.779846191406</ele>
        <time>2021-05-11T08:50:21Z</time>
      </trkpt>
      <trkpt lat="48.63372" lon="-2.4216">
        <ele>19.107055664062</ele>
        <time>2021-05-11T08:50:26Z</time>
      </trkpt>
      <trkpt lat="48.63372" lon="-2.42148">
        <ele>17.402221679688</ele>
        <time>2021-05-11T08:50:33Z</time>
      </trkpt>
      <trkpt lat="48.63371" lon="-2.42136">
        <ele>10.915649414062</ele>
        <time>2021-05-11T08:50:43Z</time>
      </trkpt>
      <trkpt lat="48.6337" lon="-2.42123">
        <ele>6.8736572265625</ele>
        <time>2021-05-11T08:50:50Z</time>
      </trkpt>
      <trkpt lat="48.63367" lon="-2.42111">
        <ele>6.961181640625</ele>
        <time>2021-05-11T08:51:05Z</time>
      </trkpt>
      <trkpt lat="48.6337" lon="-2.421">
        <ele>13.576843261719</ele>
        <time>2021-05-11T08:51:13Z</time>
      </trkpt>
      <trkpt lat="48.63364" lon="-2.42093">
        <ele>10.885681152344</ele>
        <time>2021-05-11T08:51:35Z</time>
      </trkpt>
      <trkpt lat="48.63363" lon="-2.42081">
        <ele>9.96240234375</ele>
        <time>2021-05-11T08:52:40Z</time>
      </trkpt>
      <trkpt lat="48.63361" lon="-2.42069">
        <ele>13.028564453125</ele>
        <time>2021-05-11T08:53:23Z</time>
      </trkpt>
      <trkpt lat="48.63359" lon="-2.42056">
        <ele>12.354736328125</ele>
        <time>2021-05-11T08:53:30Z</time>
      </trkpt>
      <trkpt lat="48.63355" lon="-2.42045">
        <ele>7.9593505859375</ele>
        <time>2021-05-11T08:53:43Z</time>
      </trkpt>
      <trkpt lat="48.63352" lon="-2.42036">
        <ele>11.380615234375</ele>
        <time>2021-05-11T08:53:49Z</time>
      </trkpt>
      <trkpt lat="48.6335" lon="-2.42022">
        <ele>18.364379882812</ele>
        <time>2021-05-11T08:53:54Z</time>
      </trkpt>
      <trkpt lat="48.63346" lon="-2.42012">
        <ele>17.660949707031</ele>
        <time>2021-05-11T08:54:01Z</time>
      </trkpt>
      <trkpt lat="48.63341" lon="-2.42001">
        <ele>12.710693359375</ele>
        <time>2021-05-11T08:54:22Z</time>
      </trkpt>
      <trkpt lat="48.63345" lon="-2.42013">
        <ele>11.514282226562</ele>
        <time>2021-05-11T08:55:41Z</time>
      </trkpt>
      <trkpt lat="48.63347" lon="-2.42025">
        <ele>9.5780639648438</ele>
        <time>2021-05-11T08:55:48Z</time>
      </trkpt>
      <trkpt lat="48.63351" lon="-2.42037">
        <ele>7.6555786132812</ele>
        <time>2021-05-11T08:55:55Z</time>
      </trkpt>
      <trkpt lat="48.63353" lon="-2.4205">
        <ele>11.711975097656</ele>
        <time>2021-05-11T08:56:05Z</time>
      </trkpt>
      <trkpt lat="48.6336" lon="-2.42057">
        <ele>7.803955078125</ele>
        <time>2021-05-11T08:56:15Z</time>
      </trkpt>
      <trkpt lat="48.63364" lon="-2.42069">
        <ele>10.518371582031</ele>
        <time>2021-05-11T08:56:36Z</time>
      </trkpt>
      <trkpt lat="48.63372" lon="-2.42069">
        <ele>7.9185791015625</ele>
        <time>2021-05-11T08:57:11Z</time>
      </trkpt>
      <trkpt lat="48.63379" lon="-2.42062">
        <ele>8.25927734375</ele>
        <time>2021-05-11T08:57:22Z</time>
      </trkpt>
      <trkpt lat="48.63387" lon="-2.42059">
        <ele>12.014282226562</ele>
        <time>2021-05-11T08:57:27Z</time>
      </trkpt>
      <trkpt lat="48.63395" lon="-2.42052">
        <ele>10.158630371094</ele>
        <time>2021-05-11T08:57:38Z</time>
      </trkpt>
      <trkpt lat="48.63401" lon="-2.42045">
        <ele>11.833312988281</ele>
        <time>2021-05-11T08:57:44Z</time>
      </trkpt>
      <trkpt lat="48.63407" lon="-2.42037">
        <ele>10.3701171875</ele>
        <time>2021-05-11T08:57:51Z</time>
      </trkpt>
      <trkpt lat="48.63415" lon="-2.42029">
        <ele>11.775695800781</ele>
        <time>2021-05-11T08:57:57Z</time>
      </trkpt>
      <trkpt lat="48.63417" lon="-2.42016">
        <ele>11.795715332031</ele>
        <time>2021-05-11T08:58:05Z</time>
      </trkpt>
      <trkpt lat="48.63423" lon="-2.4201">
        <ele>9.1168823242188</ele>
        <time>2021-05-11T08:58:10Z</time>
      </trkpt>
      <trkpt lat="48.63426" lon="-2.41998">
        <ele>4.9113159179688</ele>
        <time>2021-05-11T08:58:15Z</time>
      </trkpt>
      <trkpt lat="48.6343" lon="-2.41988">
        <ele>3.1905517578125</ele>
        <time>2021-05-11T08:58:22Z</time>
      </trkpt>
      <trkpt lat="48.63431" lon="-2.41972">
        <ele>2.78515625</ele>
        <time>2021-05-11T08:58:27Z</time>
      </trkpt>
      <trkpt lat="48.63436" lon="-2.41961">
        <ele>3.9967041015625</ele>
        <time>2021-05-11T08:58:33Z</time>
      </trkpt>
      <trkpt lat="48.63439" lon="-2.4195">
        <ele>3.2108154296875</ele>
        <time>2021-05-11T08:58:40Z</time>
      </trkpt>
      <trkpt lat="48.63444" lon="-2.4194">
        <ele>5.145263671875</ele>
        <time>2021-05-11T08:58:45Z</time>
      </trkpt>
      <trkpt lat="48.6345" lon="-2.41934">
        <ele>4.087158203125</ele>
        <time>2021-05-11T08:58:51Z</time>
      </trkpt>
      <trkpt lat="48.63454" lon="-2.41926">
        <ele>6.466796875</ele>
        <time>2021-05-11T08:58:55Z</time>
      </trkpt>
      <trkpt lat="48.63461" lon="-2.41919">
        <ele>7.38134765625</ele>
        <time>2021-05-11T08:59:01Z</time>
      </trkpt>
      <trkpt lat="48.63466" lon="-2.41911">
        <ele>6.6392822265625</ele>
        <time>2021-05-11T08:59:06Z</time>
      </trkpt>
      <trkpt lat="48.63473" lon="-2.41904">
        <ele>6.3590087890625</ele>
        <time>2021-05-11T08:59:13Z</time>
      </trkpt>
      <trkpt lat="48.6348" lon="-2.41897">
        <ele>8.9526977539062</ele>
        <time>2021-05-11T08:59:18Z</time>
      </trkpt>
      <trkpt lat="48.63486" lon="-2.41889">
        <ele>7.6117553710938</ele>
        <time>2021-05-11T08:59:26Z</time>
      </trkpt>
      <trkpt lat="48.63493" lon="-2.41883">
        <ele>8.517333984375</ele>
        <time>2021-05-11T08:59:32Z</time>
      </trkpt>
      <trkpt lat="48.635" lon="-2.41878">
        <ele>9.014404296875</ele>
        <time>2021-05-11T08:59:37Z</time>
      </trkpt>
      <trkpt lat="48.63507" lon="-2.41871">
        <ele>6.7954711914062</ele>
        <time>2021-05-11T08:59:44Z</time>
      </trkpt>
      <trkpt lat="48.63513" lon="-2.41864">
        <ele>8.6260375976562</ele>
        <time>2021-05-11T08:59:49Z</time>
      </trkpt>
      <trkpt lat="48.63521" lon="-2.41858">
        <ele>8.392333984375</ele>
        <time>2021-05-11T08:59:56Z</time>
      </trkpt>
      <trkpt lat="48.63527" lon="-2.41849">
        <ele>8.6813354492188</ele>
        <time>2021-05-11T09:00:03Z</time>
      </trkpt>
      <trkpt lat="48.63532" lon="-2.41841">
        <ele>8.8361206054688</ele>
        <time>2021-05-11T09:00:09Z</time>
      </trkpt>
      <trkpt lat="48.63538" lon="-2.41832">
        <ele>7.787353515625</ele>
        <time>2021-05-11T09:00:16Z</time>
      </trkpt>
      <trkpt lat="48.63543" lon="-2.41823">
        <ele>6.2542724609375</ele>
        <time>2021-05-11T09:00:21Z</time>
      </trkpt>
      <trkpt lat="48.63549" lon="-2.41814">
        <ele>3.7916259765625</ele>
        <time>2021-05-11T09:00:29Z</time>
      </trkpt>
      <trkpt lat="48.63556" lon="-2.41806">
        <ele>5.12451171875</ele>
        <time>2021-05-11T09:00:36Z</time>
      </trkpt>
      <trkpt lat="48.63561" lon="-2.41797">
        <ele>5.353271484375</ele>
        <time>2021-05-11T09:00:41Z</time>
      </trkpt>
      <trkpt lat="48.63566" lon="-2.41787">
        <ele>3.5013427734375</ele>
        <time>2021-05-11T09:00:49Z</time>
      </trkpt>
      <trkpt lat="48.63572" lon="-2.41777">
        <ele>3.731201171875</ele>
        <time>2021-05-11T09:00:56Z</time>
      </trkpt>
      <trkpt lat="48.63577" lon="-2.41769">
        <ele>6.34765625</ele>
        <time>2021-05-11T09:01:01Z</time>
      </trkpt>
      <trkpt lat="48.63583" lon="-2.41759">
        <ele>6.1790161132812</ele>
        <time>2021-05-11T09:01:08Z</time>
      </trkpt>
      <trkpt lat="48.63589" lon="-2.4175">
        <ele>7.5128784179688</ele>
        <time>2021-05-11T09:01:14Z</time>
      </trkpt>
      <trkpt lat="48.63596" lon="-2.41744">
        <ele>6.7146606445312</ele>
        <time>2021-05-11T09:01:21Z</time>
      </trkpt>
      <trkpt lat="48.63602" lon="-2.41738">
        <ele>6.4221801757812</ele>
        <time>2021-05-11T09:01:27Z</time>
      </trkpt>
      <trkpt lat="48.63608" lon="-2.41728">
        <ele>7.3423461914062</ele>
        <time>2021-05-11T09:01:32Z</time>
      </trkpt>
      <trkpt lat="48.63613" lon="-2.4172">
        <ele>9.3580322265625</ele>
        <time>2021-05-11T09:01:39Z</time>
      </trkpt>
      <trkpt lat="48.63619" lon="-2.41712">
        <ele>10.845153808594</ele>
        <time>2021-05-11T09:01:48Z</time>
      </trkpt>
      <trkpt lat="48.63625" lon="-2.41704">
        <ele>11.44580078125</ele>
        <time>2021-05-11T09:01:53Z</time>
      </trkpt>
      <trkpt lat="48.63632" lon="-2.41696">
        <ele>11.8388671875</ele>
        <time>2021-05-11T09:02:00Z</time>
      </trkpt>
      <trkpt lat="48.63638" lon="-2.4169">
        <ele>12.873168945312</ele>
        <time>2021-05-11T09:02:07Z</time>
      </trkpt>
      <trkpt lat="48.63646" lon="-2.41684">
        <ele>10.812377929688</ele>
        <time>2021-05-11T09:02:13Z</time>
      </trkpt>
      <trkpt lat="48.63654" lon="-2.41688">
        <ele>6.3374633789062</ele>
        <time>2021-05-11T09:02:22Z</time>
      </trkpt>
      <trkpt lat="48.63658" lon="-2.41699">
        <ele>7.16259765625</ele>
        <time>2021-05-11T09:02:29Z</time>
      </trkpt>
      <trkpt lat="48.63662" lon="-2.4171">
        <ele>5.8746337890625</ele>
        <time>2021-05-11T09:02:38Z</time>
      </trkpt>
      <trkpt lat="48.63669" lon="-2.41719">
        <ele>9.2862548828125</ele>
        <time>2021-05-11T09:02:44Z</time>
      </trkpt>
      <trkpt lat="48.63672" lon="-2.41729">
        <ele>10.957397460938</ele>
        <time>2021-05-11T09:02:49Z</time>
      </trkpt>
      <trkpt lat="48.63677" lon="-2.41738">
        <ele>10.864990234375</ele>
        <time>2021-05-11T09:02:56Z</time>
      </trkpt>
      <trkpt lat="48.63685" lon="-2.41743">
        <ele>10.405517578125</ele>
        <time>2021-05-11T09:03:03Z</time>
      </trkpt>
      <trkpt lat="48.63691" lon="-2.41752">
        <ele>11.063415527344</ele>
        <time>2021-05-11T09:03:10Z</time>
      </trkpt>
      <trkpt lat="48.63698" lon="-2.41761">
        <ele>12.4033203125</ele>
        <time>2021-05-11T09:03:16Z</time>
      </trkpt>
      <trkpt lat="48.63703" lon="-2.4177">
        <ele>11.880432128906</ele>
        <time>2021-05-11T09:03:23Z</time>
      </trkpt>
      <trkpt lat="48.63706" lon="-2.41782">
        <ele>10.75830078125</ele>
        <time>2021-05-11T09:03:29Z</time>
      </trkpt>
      <trkpt lat="48.63708" lon="-2.41796">
        <ele>12.061889648438</ele>
        <time>2021-05-11T09:03:34Z</time>
      </trkpt>
      <trkpt lat="48.63717" lon="-2.418">
        <ele>14.955749511719</ele>
        <time>2021-05-11T09:03:42Z</time>
      </trkpt>
      <trkpt lat="48.63722" lon="-2.41811">
        <ele>14.31787109375</ele>
        <time>2021-05-11T09:03:49Z</time>
      </trkpt>
      <trkpt lat="48.63727" lon="-2.41822">
        <ele>18.266418457031</ele>
        <time>2021-05-11T09:03:56Z</time>
      </trkpt>
      <trkpt lat="48.63731" lon="-2.41833">
        <ele>19.710021972656</ele>
        <time>2021-05-11T09:04:03Z</time>
      </trkpt>
      <trkpt lat="48.63735" lon="-2.41843">
        <ele>20.962524414062</ele>
        <time>2021-05-11T09:04:10Z</time>
      </trkpt>
      <trkpt lat="48.63741" lon="-2.41852">
        <ele>20.51318359375</ele>
        <time>2021-05-11T09:04:18Z</time>
      </trkpt>
      <trkpt lat="48.63746" lon="-2.4186">
        <ele>22.786254882812</ele>
        <time>2021-05-11T09:04:24Z</time>
      </trkpt>
      <trkpt lat="48.63742" lon="-2.41872">
        <ele>23.460021972656</ele>
        <time>2021-05-11T09:04:43Z</time>
      </trkpt>
      <trkpt lat="48.63746" lon="-2.41883">
        <ele>20.538879394531</ele>
        <time>2021-05-11T09:04:53Z</time>
      </trkpt>
      <trkpt lat="48.63747" lon="-2.41896">
        <ele>20.791259765625</ele>
        <time>2021-05-11T09:05:04Z</time>
      </trkpt>
      <trkpt lat="48.63753" lon="-2.41906">
        <ele>22.10302734375</ele>
        <time>2021-05-11T09:05:10Z</time>
      </trkpt>
      <trkpt lat="48.63759" lon="-2.41916">
        <ele>22.834167480469</ele>
        <time>2021-05-11T09:05:21Z</time>
      </trkpt>
      <trkpt lat="48.63761" lon="-2.41929">
        <ele>25.762329101562</ele>
        <time>2021-05-11T09:05:33Z</time>
      </trkpt>
      <trkpt lat="48.63764" lon="-2.41941">
        <ele>24.801025390625</ele>
        <time>2021-05-11T09:05:43Z</time>
      </trkpt>
      <trkpt lat="48.63768" lon="-2.41953">
        <ele>28.050537109375</ele>
        <time>2021-05-11T09:05:51Z</time>
      </trkpt>
      <trkpt lat="48.63772" lon="-2.41965">
        <ele>28.57177734375</ele>
        <time>2021-05-11T09:05:58Z</time>
      </trkpt>
      <trkpt lat="48.63773" lon="-2.41978">
        <ele>28.595458984375</ele>
        <time>2021-05-11T09:06:04Z</time>
      </trkpt>
      <trkpt lat="48.63778" lon="-2.41988">
        <ele>33.994995117188</ele>
        <time>2021-05-11T09:06:15Z</time>
      </trkpt>
      <trkpt lat="48.63782" lon="-2.42">
        <ele>38.397644042969</ele>
        <time>2021-05-11T09:06:24Z</time>
      </trkpt>
      <trkpt lat="48.63788" lon="-2.42009">
        <ele>40.505737304688</ele>
        <time>2021-05-11T09:06:34Z</time>
      </trkpt>
      <trkpt lat="48.63792" lon="-2.4202">
        <ele>39.973083496094</ele>
        <time>2021-05-11T09:06:46Z</time>
      </trkpt>
      <trkpt lat="48.63793" lon="-2.42032">
        <ele>40.004638671875</ele>
        <time>2021-05-11T09:06:58Z</time>
      </trkpt>
      <trkpt lat="48.63793" lon="-2.42043">
        <ele>39.626953125</ele>
        <time>2021-05-11T09:07:06Z</time>
      </trkpt>
      <trkpt lat="48.6379" lon="-2.42056">
        <ele>42.761840820312</ele>
        <time>2021-05-11T09:07:16Z</time>
      </trkpt>
      <trkpt lat="48.63788" lon="-2.42068">
        <ele>37.6201171875</ele>
        <time>2021-05-11T09:07:25Z</time>
      </trkpt>
      <trkpt lat="48.63784" lon="-2.42079">
        <ele>39.288330078125</ele>
        <time>2021-05-11T09:07:33Z</time>
      </trkpt>
      <trkpt lat="48.6378" lon="-2.42091">
        <ele>41.870300292969</ele>
        <time>2021-05-11T09:07:40Z</time>
      </trkpt>
      <trkpt lat="48.63777" lon="-2.42103">
        <ele>44.567138671875</ele>
        <time>2021-05-11T09:07:48Z</time>
      </trkpt>
      <trkpt lat="48.63775" lon="-2.42116">
        <ele>43.655944824219</ele>
        <time>2021-05-11T09:07:57Z</time>
      </trkpt>
      <trkpt lat="48.63768" lon="-2.42124">
        <ele>46.158996582031</ele>
        <time>2021-05-11T09:08:05Z</time>
      </trkpt>
      <trkpt lat="48.63762" lon="-2.42133">
        <ele>47.790161132812</ele>
        <time>2021-05-11T09:08:14Z</time>
      </trkpt>
      <trkpt lat="48.63757" lon="-2.42143">
        <ele>47.842163085938</ele>
        <time>2021-05-11T09:08:27Z</time>
      </trkpt>
      <trkpt lat="48.63753" lon="-2.42155">
        <ele>53.722229003906</ele>
        <time>2021-05-11T09:08:37Z</time>
      </trkpt>
      <trkpt lat="48.63747" lon="-2.42163">
        <ele>53.917419433594</ele>
        <time>2021-05-11T09:08:44Z</time>
      </trkpt>
      <trkpt lat="48.6374" lon="-2.4217">
        <ele>53.790222167969</ele>
        <time>2021-05-11T09:08:54Z</time>
      </trkpt>
      <trkpt lat="48.63742" lon="-2.42182">
        <ele>55.330383300781</ele>
        <time>2021-05-11T09:09:20Z</time>
      </trkpt>
      <trkpt lat="48.63751" lon="-2.42187">
        <ele>59.0947265625</ele>
        <time>2021-05-11T09:09:36Z</time>
      </trkpt>
      <trkpt lat="48.63759" lon="-2.42185">
        <ele>57.324890136719</ele>
        <time>2021-05-11T09:10:12Z</time>
      </trkpt>
      <trkpt lat="48.63767" lon="-2.42181">
        <ele>56.798034667969</ele>
        <time>2021-05-11T09:10:22Z</time>
      </trkpt>
      <trkpt lat="48.63775" lon="-2.4218">
        <ele>58.059997558594</ele>
        <time>2021-05-11T09:10:30Z</time>
      </trkpt>
      <trkpt lat="48.63784" lon="-2.42177">
        <ele>56.908935546875</ele>
        <time>2021-05-11T09:10:38Z</time>
      </trkpt>
      <trkpt lat="48.63792" lon="-2.42174">
        <ele>57.051940917969</ele>
        <time>2021-05-11T09:10:47Z</time>
      </trkpt>
      <trkpt lat="48.63801" lon="-2.42172">
        <ele>55.666259765625</ele>
        <time>2021-05-11T09:10:55Z</time>
      </trkpt>
      <trkpt lat="48.63809" lon="-2.4217">
        <ele>57.520446777344</ele>
        <time>2021-05-11T09:11:02Z</time>
      </trkpt>
      <trkpt lat="48.63818" lon="-2.42169">
        <ele>59.029113769531</ele>
        <time>2021-05-11T09:11:10Z</time>
      </trkpt>
      <trkpt lat="48.63825" lon="-2.42168">
        <ele>59.541320800781</ele>
        <time>2021-05-11T09:11:17Z</time>
      </trkpt>
      <trkpt lat="48.63833" lon="-2.42175">
        <ele>56.79052734375</ele>
        <time>2021-05-11T09:11:26Z</time>
      </trkpt>
      <trkpt lat="48.63841" lon="-2.42177">
        <ele>57.440734863281</ele>
        <time>2021-05-11T09:11:34Z</time>
      </trkpt>
      <trkpt lat="48.63849" lon="-2.42183">
        <ele>56.94091796875</ele>
        <time>2021-05-11T09:11:43Z</time>
      </trkpt>
      <trkpt lat="48.63857" lon="-2.4219">
        <ele>61.527526855469</ele>
        <time>2021-05-11T09:12:20Z</time>
      </trkpt>
      <trkpt lat="48.63863" lon="-2.42199">
        <ele>58.864929199219</ele>
        <time>2021-05-11T09:15:37Z</time>
      </trkpt>
      <trkpt lat="48.63871" lon="-2.42204">
        <ele>59.144897460938</ele>
        <time>2021-05-11T09:15:42Z</time>
      </trkpt>
      <trkpt lat="48.63878" lon="-2.42209">
        <ele>59.05322265625</ele>
        <time>2021-05-11T09:15:49Z</time>
      </trkpt>
      <trkpt lat="48.63883" lon="-2.42219">
        <ele>59.817626953125</ele>
        <time>2021-05-11T09:15:55Z</time>
      </trkpt>
      <trkpt lat="48.63892" lon="-2.42221">
        <ele>60.435607910156</ele>
        <time>2021-05-11T09:16:02Z</time>
      </trkpt>
      <trkpt lat="48.639" lon="-2.42222">
        <ele>60.910705566406</ele>
        <time>2021-05-11T09:16:10Z</time>
      </trkpt>
      <trkpt lat="48.63908" lon="-2.42227">
        <ele>61.392211914062</ele>
        <time>2021-05-11T09:16:18Z</time>
      </trkpt>
      <trkpt lat="48.63916" lon="-2.42231">
        <ele>58.607849121094</ele>
        <time>2021-05-11T09:16:27Z</time>
      </trkpt>
      <trkpt lat="48.63924" lon="-2.42237">
        <ele>55.828369140625</ele>
        <time>2021-05-11T09:16:36Z</time>
      </trkpt>
      <trkpt lat="48.63931" lon="-2.4224">
        <ele>54.814697265625</ele>
        <time>2021-05-11T09:16:44Z</time>
      </trkpt>
      <trkpt lat="48.6394" lon="-2.42242">
        <ele>54.779907226562</ele>
        <time>2021-05-11T09:16:52Z</time>
      </trkpt>
      <trkpt lat="48.63948" lon="-2.4224">
        <ele>52.835815429688</ele>
        <time>2021-05-11T09:17:01Z</time>
      </trkpt>
      <trkpt lat="48.63957" lon="-2.42241">
        <ele>51.940490722656</ele>
        <time>2021-05-11T09:17:12Z</time>
      </trkpt>
      <trkpt lat="48.63965" lon="-2.42238">
        <ele>49.833862304688</ele>
        <time>2021-05-11T09:17:51Z</time>
      </trkpt>
      <trkpt lat="48.63972" lon="-2.42231">
        <ele>48.191040039062</ele>
        <time>2021-05-11T09:18:06Z</time>
      </trkpt>
      <trkpt lat="48.6398" lon="-2.4223">
        <ele>47.866333007812</ele>
        <time>2021-05-11T09:18:14Z</time>
      </trkpt>
      <trkpt lat="48.63989" lon="-2.42233">
        <ele>48.677978515625</ele>
        <time>2021-05-11T09:18:20Z</time>
      </trkpt>
      <trkpt lat="48.63996" lon="-2.42239">
        <ele>49.222534179688</ele>
        <time>2021-05-11T09:18:27Z</time>
      </trkpt>
      <trkpt lat="48.64004" lon="-2.42236">
        <ele>48.90283203125</ele>
        <time>2021-05-11T09:18:34Z</time>
      </trkpt>
      <trkpt lat="48.64013" lon="-2.42234">
        <ele>48.937561035156</ele>
        <time>2021-05-11T09:18:42Z</time>
      </trkpt>
      <trkpt lat="48.64021" lon="-2.42236">
        <ele>48.10546875</ele>
        <time>2021-05-11T09:18:49Z</time>
      </trkpt>
      <trkpt lat="48.64029" lon="-2.42232">
        <ele>48.750915527344</ele>
        <time>2021-05-11T09:19:00Z</time>
      </trkpt>
      <trkpt lat="48.64037" lon="-2.42231">
        <ele>45.060119628906</ele>
        <time>2021-05-11T09:19:08Z</time>
      </trkpt>
      <trkpt lat="48.64045" lon="-2.42237">
        <ele>44.334045410156</ele>
        <time>2021-05-11T09:19:14Z</time>
      </trkpt>
      <trkpt lat="48.64052" lon="-2.42242">
        <ele>43.63525390625</ele>
        <time>2021-05-11T09:19:21Z</time>
      </trkpt>
      <trkpt lat="48.6406" lon="-2.42249">
        <ele>43.280944824219</ele>
        <time>2021-05-11T09:19:28Z</time>
      </trkpt>
      <trkpt lat="48.64067" lon="-2.42255">
        <ele>45.249206542969</ele>
        <time>2021-05-11T09:19:35Z</time>
      </trkpt>
      <trkpt lat="48.64075" lon="-2.42261">
        <ele>47.603637695312</ele>
        <time>2021-05-11T09:19:41Z</time>
      </trkpt>
      <trkpt lat="48.64082" lon="-2.42269">
        <ele>49.097534179688</ele>
        <time>2021-05-11T09:19:48Z</time>
      </trkpt>
      <trkpt lat="48.64088" lon="-2.42279">
        <ele>50.490417480469</ele>
        <time>2021-05-11T09:19:56Z</time>
      </trkpt>
      <trkpt lat="48.64093" lon="-2.42288">
        <ele>52.256469726562</ele>
        <time>2021-05-11T09:20:01Z</time>
      </trkpt>
      <trkpt lat="48.64098" lon="-2.42299">
        <ele>52.899108886719</ele>
        <time>2021-05-11T09:20:10Z</time>
      </trkpt>
      <trkpt lat="48.64098" lon="-2.42313">
        <ele>50.748291015625</ele>
        <time>2021-05-11T09:20:18Z</time>
      </trkpt>
      <trkpt lat="48.64096" lon="-2.42326">
        <ele>50.043212890625</ele>
        <time>2021-05-11T09:20:25Z</time>
      </trkpt>
      <trkpt lat="48.64095" lon="-2.42339">
        <ele>52.291198730469</ele>
        <time>2021-05-11T09:20:31Z</time>
      </trkpt>
      <trkpt lat="48.64096" lon="-2.42352">
        <ele>50.430541992188</ele>
        <time>2021-05-11T09:20:37Z</time>
      </trkpt>
      <trkpt lat="48.641" lon="-2.42364">
        <ele>48.854553222656</ele>
        <time>2021-05-11T09:21:01Z</time>
      </trkpt>
      <trkpt lat="48.64094" lon="-2.42374">
        <ele>46.47265625</ele>
        <time>2021-05-11T09:21:09Z</time>
      </trkpt>
      <trkpt lat="48.64093" lon="-2.42386">
        <ele>44.4267578125</ele>
        <time>2021-05-11T09:21:17Z</time>
      </trkpt>
      <trkpt lat="48.64093" lon="-2.424">
        <ele>47.992492675781</ele>
        <time>2021-05-11T09:21:25Z</time>
      </trkpt>
      <trkpt lat="48.64093" lon="-2.42411">
        <ele>50.3291015625</ele>
        <time>2021-05-11T09:21:31Z</time>
      </trkpt>
      <trkpt lat="48.64095" lon="-2.42424">
        <ele>51.251831054688</ele>
        <time>2021-05-11T09:21:37Z</time>
      </trkpt>
      <trkpt lat="48.64096" lon="-2.42438">
        <ele>53.323486328125</ele>
        <time>2021-05-11T09:21:43Z</time>
      </trkpt>
      <trkpt lat="48.64099" lon="-2.42448">
        <ele>54.53369140625</ele>
        <time>2021-05-11T09:21:50Z</time>
      </trkpt>
      <trkpt lat="48.641" lon="-2.4246">
        <ele>55.854064941406</ele>
        <time>2021-05-11T09:21:55Z</time>
      </trkpt>
      <trkpt lat="48.64104" lon="-2.42472">
        <ele>56.364196777344</ele>
        <time>2021-05-11T09:22:02Z</time>
      </trkpt>
      <trkpt lat="48.64112" lon="-2.42471">
        <ele>55.19140625</ele>
        <time>2021-05-11T09:22:08Z</time>
      </trkpt>
      <trkpt lat="48.64119" lon="-2.42465">
        <ele>54.545715332031</ele>
        <time>2021-05-11T09:22:17Z</time>
      </trkpt>
      <trkpt lat="48.64126" lon="-2.42457">
        <ele>53.31201171875</ele>
        <time>2021-05-11T09:22:25Z</time>
      </trkpt>
      <trkpt lat="48.64133" lon="-2.42448">
        <ele>52.160522460938</ele>
        <time>2021-05-11T09:22:31Z</time>
      </trkpt>
      <trkpt lat="48.6414" lon="-2.42443">
        <ele>49.303466796875</ele>
        <time>2021-05-11T09:22:38Z</time>
      </trkpt>
      <trkpt lat="48.64148" lon="-2.4244">
        <ele>48.179870605469</ele>
        <time>2021-05-11T09:22:45Z</time>
      </trkpt>
      <trkpt lat="48.64157" lon="-2.42437">
        <ele>45.744934082031</ele>
        <time>2021-05-11T09:22:53Z</time>
      </trkpt>
      <trkpt lat="48.64163" lon="-2.42433">
        <ele>47.717590332031</ele>
        <time>2021-05-11T09:22:58Z</time>
      </trkpt>
      <trkpt lat="48.64172" lon="-2.42431">
        <ele>48.78759765625</ele>
        <time>2021-05-11T09:23:06Z</time>
      </trkpt>
      <trkpt lat="48.64179" lon="-2.42427">
        <ele>45.366149902344</ele>
        <time>2021-05-11T09:23:13Z</time>
      </trkpt>
      <trkpt lat="48.64186" lon="-2.42421">
        <ele>45.158935546875</ele>
        <time>2021-05-11T09:23:18Z</time>
      </trkpt>
      <trkpt lat="48.64193" lon="-2.42415">
        <ele>43.494262695312</ele>
        <time>2021-05-11T09:23:25Z</time>
      </trkpt>
      <trkpt lat="48.64201" lon="-2.4241">
        <ele>45.50439453125</ele>
        <time>2021-05-11T09:23:33Z</time>
      </trkpt>
      <trkpt lat="48.64208" lon="-2.42406">
        <ele>44.161193847656</ele>
        <time>2021-05-11T09:23:37Z</time>
      </trkpt>
      <trkpt lat="48.64216" lon="-2.42402">
        <ele>41.671081542969</ele>
        <time>2021-05-11T09:23:44Z</time>
      </trkpt>
      <trkpt lat="48.64225" lon="-2.42399">
        <ele>41.668579101562</ele>
        <time>2021-05-11T09:23:50Z</time>
      </trkpt>
      <trkpt lat="48.64232" lon="-2.42395">
        <ele>41.436645507812</ele>
        <time>2021-05-11T09:23:56Z</time>
      </trkpt>
      <trkpt lat="48.64239" lon="-2.4239">
        <ele>44.418762207031</ele>
        <time>2021-05-11T09:24:04Z</time>
      </trkpt>
      <trkpt lat="48.64247" lon="-2.42384">
        <ele>46.752807617188</ele>
        <time>2021-05-11T09:24:11Z</time>
      </trkpt>
      <trkpt lat="48.64254" lon="-2.42377">
        <ele>45.689758300781</ele>
        <time>2021-05-11T09:24:18Z</time>
      </trkpt>
      <trkpt lat="48.64261" lon="-2.4237">
        <ele>44.381408691406</ele>
        <time>2021-05-11T09:24:25Z</time>
      </trkpt>
      <trkpt lat="48.64269" lon="-2.42364">
        <ele>43.545166015625</ele>
        <time>2021-05-11T09:24:31Z</time>
      </trkpt>
      <trkpt lat="48.64276" lon="-2.42359">
        <ele>43.783020019531</ele>
        <time>2021-05-11T09:24:38Z</time>
      </trkpt>
      <trkpt lat="48.64282" lon="-2.42353">
        <ele>45.034729003906</ele>
        <time>2021-05-11T09:24:45Z</time>
      </trkpt>
      <trkpt lat="48.6429" lon="-2.42349">
        <ele>44.4404296875</ele>
        <time>2021-05-11T09:24:52Z</time>
      </trkpt>
      <trkpt lat="48.64298" lon="-2.42343">
        <ele>45.630249023438</ele>
        <time>2021-05-11T09:24:59Z</time>
      </trkpt>
      <trkpt lat="48.64305" lon="-2.42336">
        <ele>46.959167480469</ele>
        <time>2021-05-11T09:25:05Z</time>
      </trkpt>
      <trkpt lat="48.64314" lon="-2.42333">
        <ele>42.689392089844</ele>
        <time>2021-05-11T09:25:15Z</time>
      </trkpt>
      <trkpt lat="48.6432" lon="-2.42327">
        <ele>41.931030273438</ele>
        <time>2021-05-11T09:25:23Z</time>
      </trkpt>
      <trkpt lat="48.64327" lon="-2.4232">
        <ele>40.571838378906</ele>
        <time>2021-05-11T09:25:31Z</time>
      </trkpt>
      <trkpt lat="48.64335" lon="-2.42314">
        <ele>40.050964355469</ele>
        <time>2021-05-11T09:25:37Z</time>
      </trkpt>
      <trkpt lat="48.6434" lon="-2.42305">
        <ele>38.353271484375</ele>
        <time>2021-05-11T09:25:42Z</time>
      </trkpt>
      <trkpt lat="48.64346" lon="-2.42297">
        <ele>34.11279296875</ele>
        <time>2021-05-11T09:25:50Z</time>
      </trkpt>
      <trkpt lat="48.64352" lon="-2.42288">
        <ele>34.53955078125</ele>
        <time>2021-05-11T09:25:57Z</time>
      </trkpt>
      <trkpt lat="48.64359" lon="-2.42281">
        <ele>35.777770996094</ele>
        <time>2021-05-11T09:26:02Z</time>
      </trkpt>
      <trkpt lat="48.64366" lon="-2.42277">
        <ele>33.93212890625</ele>
        <time>2021-05-11T09:26:08Z</time>
      </trkpt>
      <trkpt lat="48.64373" lon="-2.42269">
        <ele>34.697143554688</ele>
        <time>2021-05-11T09:26:13Z</time>
      </trkpt>
      <trkpt lat="48.6438" lon="-2.42264">
        <ele>33.030395507812</ele>
        <time>2021-05-11T09:26:21Z</time>
      </trkpt>
      <trkpt lat="48.64382" lon="-2.42252">
        <ele>32.059875488281</ele>
        <time>2021-05-11T09:26:29Z</time>
      </trkpt>
      <trkpt lat="48.6439" lon="-2.42248">
        <ele>36.766723632812</ele>
        <time>2021-05-11T09:26:43Z</time>
      </trkpt>
      <trkpt lat="48.64397" lon="-2.42245">
        <ele>37.368591308594</ele>
        <time>2021-05-11T09:26:49Z</time>
      </trkpt>
      <trkpt lat="48.64406" lon="-2.42244">
        <ele>35.64794921875</ele>
        <time>2021-05-11T09:26:59Z</time>
      </trkpt>
      <trkpt lat="48.64414" lon="-2.42241">
        <ele>32.362487792969</ele>
        <time>2021-05-11T09:27:06Z</time>
      </trkpt>
      <trkpt lat="48.64422" lon="-2.42241">
        <ele>31.415283203125</ele>
        <time>2021-05-11T09:27:11Z</time>
      </trkpt>
      <trkpt lat="48.64432" lon="-2.4224">
        <ele>34.060546875</ele>
        <time>2021-05-11T09:27:16Z</time>
      </trkpt>
      <trkpt lat="48.6444" lon="-2.4224">
        <ele>34.140319824219</ele>
        <time>2021-05-11T09:27:22Z</time>
      </trkpt>
      <trkpt lat="48.64447" lon="-2.42243">
        <ele>32.413330078125</ele>
        <time>2021-05-11T09:27:29Z</time>
      </trkpt>
      <trkpt lat="48.64456" lon="-2.42243">
        <ele>31.955017089844</ele>
        <time>2021-05-11T09:27:37Z</time>
      </trkpt>
      <trkpt lat="48.64463" lon="-2.42239">
        <ele>33.847900390625</ele>
        <time>2021-05-11T09:27:42Z</time>
      </trkpt>
      <trkpt lat="48.64472" lon="-2.4224">
        <ele>32.424560546875</ele>
        <time>2021-05-11T09:27:48Z</time>
      </trkpt>
      <trkpt lat="48.64481" lon="-2.42238">
        <ele>34.473815917969</ele>
        <time>2021-05-11T09:27:53Z</time>
      </trkpt>
      <trkpt lat="48.64488" lon="-2.42236">
        <ele>33.790283203125</ele>
        <time>2021-05-11T09:28:00Z</time>
      </trkpt>
      <trkpt lat="48.64497" lon="-2.42233">
        <ele>35.575622558594</ele>
        <time>2021-05-11T09:28:05Z</time>
      </trkpt>
      <trkpt lat="48.64505" lon="-2.42233">
        <ele>32.411743164062</ele>
        <time>2021-05-11T09:28:14Z</time>
      </trkpt>
      <trkpt lat="48.64514" lon="-2.42231">
        <ele>33.617858886719</ele>
        <time>2021-05-11T09:28:32Z</time>
      </trkpt>
      <trkpt lat="48.6452" lon="-2.42224">
        <ele>36.972534179688</ele>
        <time>2021-05-11T09:28:40Z</time>
      </trkpt>
      <trkpt lat="48.64529" lon="-2.42221">
        <ele>38.455139160156</ele>
        <time>2021-05-11T09:28:46Z</time>
      </trkpt>
      <trkpt lat="48.64536" lon="-2.42217">
        <ele>37.555358886719</ele>
        <time>2021-05-11T09:28:52Z</time>
      </trkpt>
      <trkpt lat="48.64544" lon="-2.42213">
        <ele>35.446533203125</ele>
        <time>2021-05-11T09:28:57Z</time>
      </trkpt>
      <trkpt lat="48.6455" lon="-2.42208">
        <ele>36.8349609375</ele>
        <time>2021-05-11T09:29:01Z</time>
      </trkpt>
      <trkpt lat="48.64556" lon="-2.42204">
        <ele>37.02734375</ele>
        <time>2021-05-11T09:29:06Z</time>
      </trkpt>
      <trkpt lat="48.64565" lon="-2.42194">
        <ele>34.666259765625</ele>
        <time>2021-05-11T09:29:11Z</time>
      </trkpt>
      <trkpt lat="48.64571" lon="-2.42184">
        <ele>32.503723144531</ele>
        <time>2021-05-11T09:29:30Z</time>
      </trkpt>
      <trkpt lat="48.64575" lon="-2.42174">
        <ele>30.669921875</ele>
        <time>2021-05-11T09:29:42Z</time>
      </trkpt>
      <trkpt lat="48.64582" lon="-2.42167">
        <ele>30.54248046875</ele>
        <time>2021-05-11T09:29:49Z</time>
      </trkpt>
      <trkpt lat="48.64588" lon="-2.42158">
        <ele>31.377502441406</ele>
        <time>2021-05-11T09:29:55Z</time>
      </trkpt>
      <trkpt lat="48.64595" lon="-2.4215">
        <ele>28.921203613281</ele>
        <time>2021-05-11T09:30:03Z</time>
      </trkpt>
      <trkpt lat="48.64602" lon="-2.42146">
        <ele>29.958251953125</ele>
        <time>2021-05-11T09:30:10Z</time>
      </trkpt>
      <trkpt lat="48.6461" lon="-2.4214">
        <ele>29.566772460938</ele>
        <time>2021-05-11T09:30:18Z</time>
      </trkpt>
      <trkpt lat="48.64604" lon="-2.42129">
        <ele>22.903381347656</ele>
        <time>2021-05-11T09:30:35Z</time>
      </trkpt>
      <trkpt lat="48.64613" lon="-2.4213">
        <ele>22.537231445312</ele>
        <time>2021-05-11T09:30:52Z</time>
      </trkpt>
      <trkpt lat="48.64621" lon="-2.42128">
        <ele>21.232482910156</ele>
        <time>2021-05-11T09:31:01Z</time>
      </trkpt>
      <trkpt lat="48.64628" lon="-2.4212">
        <ele>21.616394042969</ele>
        <time>2021-05-11T09:31:11Z</time>
      </trkpt>
      <trkpt lat="48.64636" lon="-2.4212">
        <ele>14.238891601562</ele>
        <time>2021-05-11T09:31:24Z</time>
      </trkpt>
      <trkpt lat="48.64644" lon="-2.42119">
        <ele>16.485473632812</ele>
        <time>2021-05-11T09:31:33Z</time>
      </trkpt>
      <trkpt lat="48.64653" lon="-2.42119">
        <ele>15.609802246094</ele>
        <time>2021-05-11T09:31:46Z</time>
      </trkpt>
      <trkpt lat="48.64659" lon="-2.42111">
        <ele>15.828125</ele>
        <time>2021-05-11T09:31:53Z</time>
      </trkpt>
      <trkpt lat="48.64658" lon="-2.42081">
        <ele>10.1</ele>
        <time>2021-05-11T09:32:02Z</time>
      </trkpt>
      <trkpt lat="48.64657" lon="-2.42066">
        <ele>9.7</ele>
        <time>2021-05-11T09:32:38Z</time>
      </trkpt>
      <trkpt lat="48.64658" lon="-2.42062">
        <ele>9.6</ele>
        <time>2021-05-11T09:32:45Z</time>
      </trkpt>
      <trkpt lat="48.64658" lon="-2.42052">
        <ele>9.3</ele>
        <time>2021-05-11T09:32:52Z</time>
      </trkpt>
      <trkpt lat="48.64654" lon="-2.42036">
        <ele>8.7</ele>
        <time>2021-05-11T09:33:04Z</time>
      </trkpt>
      <trkpt lat="48.64651" lon="-2.42027">
        <ele>8.4</ele>
        <time>2021-05-11T09:33:15Z</time>
      </trkpt>
      <trkpt lat="48.64648" lon="-2.42019">
        <ele>8</ele>
        <time>2021-05-11T09:33:27Z</time>
      </trkpt>
      <trkpt lat="48.64645" lon="-2.4201">
        <ele>7.6</ele>
        <time>2021-05-11T09:33:34Z</time>
      </trkpt>
      <trkpt lat="48.64645" lon="-2.42003">
        <ele>10.734680175781</ele>
        <time>2021-05-11T09:33:41Z</time>
      </trkpt>
      <trkpt lat="48.6464" lon="-2.41994">
        <ele>8.6893310546875</ele>
        <time>2021-05-11T09:33:46Z</time>
      </trkpt>
      <trkpt lat="48.64635" lon="-2.41984">
        <ele>7.1251831054688</ele>
        <time>2021-05-11T09:33:53Z</time>
      </trkpt>
      <trkpt lat="48.64633" lon="-2.41969">
        <ele>6.3</ele>
        <time>2021-05-11T09:34:01Z</time>
      </trkpt>
      <trkpt lat="48.64634" lon="-2.41952">
        <ele>6</ele>
        <time>2021-05-11T09:34:09Z</time>
      </trkpt>
      <trkpt lat="48.64635" lon="-2.41938">
        <ele>5.8</ele>
        <time>2021-05-11T09:34:16Z</time>
      </trkpt>
      <trkpt lat="48.64634" lon="-2.4192">
        <ele>5.5</ele>
        <time>2021-05-11T09:34:24Z</time>
      </trkpt>
      <trkpt lat="48.64636" lon="-2.41909">
        <ele>5.2</ele>
        <time>2021-05-11T09:34:30Z</time>
      </trkpt>
      <trkpt lat="48.64642" lon="-2.41872">
        <ele>3.8</ele>
        <time>2021-05-11T09:34:45Z</time>
      </trkpt>
      <trkpt lat="48.64648" lon="-2.41854">
        <ele>3</ele>
        <time>2021-05-11T09:35:17Z</time>
      </trkpt>
      <trkpt lat="48.64655" lon="-2.41853">
        <ele>3.1</ele>
        <time>2021-05-11T09:35:24Z</time>
      </trkpt>
      <trkpt lat="48.64677" lon="-2.41861">
        <ele>3.3</ele>
        <time>2021-05-11T09:35:33Z</time>
      </trkpt>
      <trkpt lat="48.64691" lon="-2.4186">
        <ele>2.8</ele>
        <time>2021-05-11T09:35:43Z</time>
      </trkpt>
      <trkpt lat="48.64706" lon="-2.41853">
        <ele>2.2</ele>
        <time>2021-05-11T09:35:52Z</time>
      </trkpt>
      <trkpt lat="48.64716" lon="-2.4184">
        <ele>1.6</ele>
        <time>2021-05-11T09:36:49Z</time>
      </trkpt>
      <trkpt lat="48.64721" lon="-2.41839">
        <ele>1.5</ele>
        <time>2021-05-11T09:36:57Z</time>
      </trkpt>
      <trkpt lat="48.64726" lon="-2.41838">
        <ele>1.4</ele>
        <time>2021-05-11T09:37:06Z</time>
      </trkpt>
      <trkpt lat="48.6473" lon="-2.41832">
        <ele>1.3</ele>
        <time>2021-05-11T09:37:13Z</time>
      </trkpt>
      <trkpt lat="48.64739" lon="-2.41818">
        <ele>1.3</ele>
        <time>2021-05-11T09:37:20Z</time>
      </trkpt>
      <trkpt lat="48.64731" lon="-2.4185">
        <ele>7.0120849609375</ele>
        <time>2021-05-11T09:37:30Z</time>
      </trkpt>
      <trkpt lat="48.64737" lon="-2.41833">
        <ele>1.2</ele>
        <time>2021-05-11T09:37:39Z</time>
      </trkpt>
      <trkpt lat="48.64731" lon="-2.4185">
        <ele>5.9393920898438</ele>
        <time>2021-05-11T09:40:42Z</time>
      </trkpt>
      <trkpt lat="48.64728" lon="-2.41862">
        <ele>1.7</ele>
        <time>2021-05-11T09:40:49Z</time>
      </trkpt>
      <trkpt lat="48.64726" lon="-2.41873">
        <ele>6.5093383789062</ele>
        <time>2021-05-11T09:40:57Z</time>
      </trkpt>
      <trkpt lat="48.64723" lon="-2.41886">
        <ele>5.7301635742188</ele>
        <time>2021-05-11T09:41:05Z</time>
      </trkpt>
      <trkpt lat="48.64719" lon="-2.41898">
        <ele>7.9986572265625</ele>
        <time>2021-05-11T09:41:14Z</time>
      </trkpt>
      <trkpt lat="48.64713" lon="-2.41911">
        <ele>3.5</ele>
        <time>2021-05-11T09:41:21Z</time>
      </trkpt>
      <trkpt lat="48.64707" lon="-2.41914">
        <ele>8.8709106445312</ele>
        <time>2021-05-11T09:41:32Z</time>
      </trkpt>
      <trkpt lat="48.64699" lon="-2.41919">
        <ele>11.747863769531</ele>
        <time>2021-05-11T09:41:56Z</time>
      </trkpt>
      <trkpt lat="48.64692" lon="-2.41926">
        <ele>14.182373046875</ele>
        <time>2021-05-11T09:42:04Z</time>
      </trkpt>
      <trkpt lat="48.64684" lon="-2.41931">
        <ele>13.582458496094</ele>
        <time>2021-05-11T09:42:13Z</time>
      </trkpt>
      <trkpt lat="48.64676" lon="-2.41936">
        <ele>12.814514160156</ele>
        <time>2021-05-11T09:42:22Z</time>
      </trkpt>
      <trkpt lat="48.64669" lon="-2.41947">
        <ele>7.2</ele>
        <time>2021-05-11T09:42:30Z</time>
      </trkpt>
      <trkpt lat="48.64665" lon="-2.41954">
        <ele>9.8815307617188</ele>
        <time>2021-05-11T09:42:38Z</time>
      </trkpt>
      <trkpt lat="48.64661" lon="-2.41966">
        <ele>8.9776000976562</ele>
        <time>2021-05-11T09:42:48Z</time>
      </trkpt>
      <trkpt lat="48.64661" lon="-2.41979">
        <ele>10.878723144531</ele>
        <time>2021-05-11T09:42:56Z</time>
      </trkpt>
      <trkpt lat="48.64664" lon="-2.41991">
        <ele>11.474914550781</ele>
        <time>2021-05-11T09:43:15Z</time>
      </trkpt>
      <trkpt lat="48.64666" lon="-2.42004">
        <ele>10.892822265625</ele>
        <time>2021-05-11T09:43:24Z</time>
      </trkpt>
      <trkpt lat="48.64664" lon="-2.42017">
        <ele>9.703125</ele>
        <time>2021-05-11T09:43:33Z</time>
      </trkpt>
      <trkpt lat="48.64665" lon="-2.42022">
        <ele>8.5</ele>
        <time>2021-05-11T09:43:39Z</time>
      </trkpt>
      <trkpt lat="48.64665" lon="-2.42028">
        <ele>8.6</ele>
        <time>2021-05-11T09:43:49Z</time>
      </trkpt>
      <trkpt lat="48.64667" lon="-2.42034">
        <ele>8.8</ele>
        <time>2021-05-11T09:43:57Z</time>
      </trkpt>
      <trkpt lat="48.64671" lon="-2.42046">
        <ele>8.8</ele>
        <time>2021-05-11T09:44:02Z</time>
      </trkpt>
      <trkpt lat="48.64672" lon="-2.42061">
        <ele>9.1</ele>
        <time>2021-05-11T09:44:11Z</time>
      </trkpt>
      <trkpt lat="48.64662" lon="-2.42091">
        <ele>11.474487304688</ele>
        <time>2021-05-11T09:44:19Z</time>
      </trkpt>
      <trkpt lat="48.64668" lon="-2.421">
        <ele>14.725463867188</ele>
        <time>2021-05-11T09:44:26Z</time>
      </trkpt>
      <trkpt lat="48.64674" lon="-2.42108">
        <ele>13.191040039062</ele>
        <time>2021-05-11T09:44:35Z</time>
      </trkpt>
      <trkpt lat="48.64681" lon="-2.42115">
        <ele>16.853820800781</ele>
        <time>2021-05-11T09:44:43Z</time>
      </trkpt>
      <trkpt lat="48.64685" lon="-2.42126">
        <ele>17.385925292969</ele>
        <time>2021-05-11T09:44:48Z</time>
      </trkpt>
      <trkpt lat="48.64691" lon="-2.42134">
        <ele>17.273071289062</ele>
        <time>2021-05-11T09:44:54Z</time>
      </trkpt>
      <trkpt lat="48.64699" lon="-2.42139">
        <ele>17.451721191406</ele>
        <time>2021-05-11T09:45:00Z</time>
      </trkpt>
      <trkpt lat="48.64705" lon="-2.42147">
        <ele>13.724670410156</ele>
        <time>2021-05-11T09:45:10Z</time>
      </trkpt>
      <trkpt lat="48.64709" lon="-2.42157">
        <ele>12.963134765625</ele>
        <time>2021-05-11T09:45:18Z</time>
      </trkpt>
      <trkpt lat="48.64713" lon="-2.42168">
        <ele>13.50048828125</ele>
        <time>2021-05-11T09:45:32Z</time>
      </trkpt>
      <trkpt lat="48.6472" lon="-2.42177">
        <ele>12.665283203125</ele>
        <time>2021-05-11T09:45:41Z</time>
      </trkpt>
      <trkpt lat="48.64727" lon="-2.42186">
        <ele>11.461547851562</ele>
        <time>2021-05-11T09:45:49Z</time>
      </trkpt>
      <trkpt lat="48.64733" lon="-2.42193">
        <ele>12.529846191406</ele>
        <time>2021-05-11T09:45:56Z</time>
      </trkpt>
      <trkpt lat="48.64737" lon="-2.42202">
        <ele>15.535339355469</ele>
        <time>2021-05-11T09:46:04Z</time>
      </trkpt>
      <trkpt lat="48.64738" lon="-2.42215">
        <ele>14.248596191406</ele>
        <time>2021-05-11T09:46:12Z</time>
      </trkpt>
      <trkpt lat="48.64739" lon="-2.42222">
        <ele>7.7</ele>
        <time>2021-05-11T09:46:21Z</time>
      </trkpt>
      <trkpt lat="48.64744" lon="-2.42224">
        <ele>7.1</ele>
      </trkpt>
      <trkpt lat="48.64747" lon="-2.42227">
        <ele>6.7</ele>
        <time>2021-05-11T09:46:28Z</time>
      </trkpt>
      <trkpt lat="48.64751" lon="-2.42231">
        <ele>6.2</ele>
      </trkpt>
      <trkpt lat="48.64752" lon="-2.42238">
        <ele>6.1</ele>
      </trkpt>
      <trkpt lat="48.64755" lon="-2.42245">
        <ele>6.1</ele>
      </trkpt>
      <trkpt lat="48.64756" lon="-2.42251">
        <ele>6</ele>
        <time>2021-05-11T09:46:36Z</time>
      </trkpt>
      <trkpt lat="48.64757" lon="-2.42256">
        <ele>6</ele>
        <time>2021-05-11T09:46:42Z</time>
      </trkpt>
      <trkpt lat="48.64757" lon="-2.42261">
        <ele>6.1</ele>
        <time>2021-05-11T09:46:49Z</time>
      </trkpt>
      <trkpt lat="48.64759" lon="-2.42267">
        <ele>6.1</ele>
        <time>2021-05-11T09:46:56Z</time>
      </trkpt>
      <trkpt lat="48.6476" lon="-2.42273">
        <ele>6.1</ele>
        <time>2021-05-11T09:47:04Z</time>
      </trkpt>
      <trkpt lat="48.64762" lon="-2.4228">
        <ele>6.2</ele>
        <time>2021-05-11T09:47:13Z</time>
      </trkpt>
      <trkpt lat="48.64763" lon="-2.42288">
        <ele>6.2</ele>
        <time>2021-05-11T09:47:18Z</time>
      </trkpt>
      <trkpt lat="48.64765" lon="-2.42295">
        <ele>6.1</ele>
        <time>2021-05-11T09:47:25Z</time>
      </trkpt>
      <trkpt lat="48.64766" lon="-2.42302">
        <ele>6.2</ele>
        <time>2021-05-11T09:47:32Z</time>
      </trkpt>
      <trkpt lat="48.64768" lon="-2.42309">
        <ele>6.1</ele>
        <time>2021-05-11T09:47:39Z</time>
      </trkpt>
      <trkpt lat="48.64775" lon="-2.42338">
        <ele>5.9</ele>
        <time>2021-05-11T09:47:47Z</time>
      </trkpt>
      <trkpt lat="48.64779" lon="-2.42361">
        <ele>5.8</ele>
        <time>2021-05-11T09:47:54Z</time>
      </trkpt>
      <trkpt lat="48.64782" lon="-2.42389">
        <ele>5.9</ele>
        <time>2021-05-11T09:48:01Z</time>
      </trkpt>
      <trkpt lat="48.6479" lon="-2.42412">
        <ele>5.6</ele>
        <time>2021-05-11T09:48:09Z</time>
      </trkpt>
      <trkpt lat="48.64818" lon="-2.42522">
        <ele>6.4</ele>
      </trkpt>
      <trkpt lat="48.64819" lon="-2.42523">
        <ele>12.572875976562</ele>
        <time>2021-05-11T09:50:01Z</time>
      </trkpt>
      <trkpt lat="48.64827" lon="-2.42528">
        <ele>12.602233886719</ele>
        <time>2021-05-11T09:50:29Z</time>
      </trkpt>
      <trkpt lat="48.6482" lon="-2.42537">
        <ele>11.218627929688</ele>
        <time>2021-05-11T09:51:38Z</time>
      </trkpt>
      <trkpt lat="48.64822" lon="-2.42549">
        <ele>10.458679199219</ele>
        <time>2021-05-11T09:51:45Z</time>
      </trkpt>
      <trkpt lat="48.64824" lon="-2.42562">
        <ele>9.8770751953125</ele>
        <time>2021-05-11T09:51:52Z</time>
      </trkpt>
      <trkpt lat="48.64826" lon="-2.42575">
        <ele>8.958984375</ele>
        <time>2021-05-11T09:51:58Z</time>
      </trkpt>
      <trkpt lat="48.64828" lon="-2.42586">
        <ele>6.0929565429688</ele>
        <time>2021-05-11T09:52:05Z</time>
      </trkpt>
      <trkpt lat="48.6483" lon="-2.426">
        <ele>8.3046264648438</ele>
        <time>2021-05-11T09:52:13Z</time>
      </trkpt>
      <trkpt lat="48.64833" lon="-2.42611">
        <ele>9.0805053710938</ele>
        <time>2021-05-11T09:52:21Z</time>
      </trkpt>
      <trkpt lat="48.64836" lon="-2.42623">
        <ele>10.052185058594</ele>
        <time>2021-05-11T09:52:28Z</time>
      </trkpt>
      <trkpt lat="48.64835" lon="-2.42635">
        <ele>11.589294433594</ele>
        <time>2021-05-11T09:52:35Z</time>
      </trkpt>
      <trkpt lat="48.64832" lon="-2.42647">
        <ele>9.8025512695312</ele>
        <time>2021-05-11T09:52:40Z</time>
      </trkpt>
      <trkpt lat="48.64833" lon="-2.4266">
        <ele>8.82763671875</ele>
        <time>2021-05-11T09:52:48Z</time>
      </trkpt>
      <trkpt lat="48.64838" lon="-2.42672">
        <ele>7.1220703125</ele>
        <time>2021-05-11T09:52:56Z</time>
      </trkpt>
      <trkpt lat="48.6484" lon="-2.42684">
        <ele>5.8321533203125</ele>
        <time>2021-05-11T09:53:05Z</time>
      </trkpt>
      <trkpt lat="48.64845" lon="-2.42692">
        <ele>8.0169677734375</ele>
        <time>2021-05-11T09:53:14Z</time>
      </trkpt>
      <trkpt lat="48.64852" lon="-2.42698">
        <ele>9.9926147460938</ele>
        <time>2021-05-11T09:53:20Z</time>
      </trkpt>
      <trkpt lat="48.64861" lon="-2.42695">
        <ele>11.975341796875</ele>
        <time>2021-05-11T09:53:29Z</time>
      </trkpt>
      <trkpt lat="48.64866" lon="-2.42706">
        <ele>14.589111328125</ele>
        <time>2021-05-11T09:53:39Z</time>
      </trkpt>
      <trkpt lat="48.64869" lon="-2.42718">
        <ele>13.90771484375</ele>
        <time>2021-05-11T09:53:54Z</time>
      </trkpt>
      <trkpt lat="48.64873" lon="-2.42729">
        <ele>13.568115234375</ele>
        <time>2021-05-11T09:54:03Z</time>
      </trkpt>
      <trkpt lat="48.64877" lon="-2.4274">
        <ele>10.007385253906</ele>
        <time>2021-05-11T09:54:12Z</time>
      </trkpt>
      <trkpt lat="48.64878" lon="-2.42752">
        <ele>9.167724609375</ele>
        <time>2021-05-11T09:54:20Z</time>
      </trkpt>
      <trkpt lat="48.64881" lon="-2.42764">
        <ele>9.7673950195312</ele>
        <time>2021-05-11T09:54:30Z</time>
      </trkpt>
      <trkpt lat="48.64883" lon="-2.42777">
        <ele>8.1298828125</ele>
        <time>2021-05-11T09:54:41Z</time>
      </trkpt>
      <trkpt lat="48.64887" lon="-2.42789">
        <ele>7.9373168945312</ele>
        <time>2021-05-11T09:54:49Z</time>
      </trkpt>
      <trkpt lat="48.6489" lon="-2.42802">
        <ele>7.635498046875</ele>
        <time>2021-05-11T09:54:56Z</time>
      </trkpt>
      <trkpt lat="48.64891" lon="-2.42815">
        <ele>8.5685424804688</ele>
        <time>2021-05-11T09:55:04Z</time>
      </trkpt>
      <trkpt lat="48.64898" lon="-2.42823">
        <ele>9.6119995117188</ele>
        <time>2021-05-11T09:55:13Z</time>
      </trkpt>
      <trkpt lat="48.649" lon="-2.42835">
        <ele>7.9400634765625</ele>
        <time>2021-05-11T09:56:21Z</time>
      </trkpt>
      <trkpt lat="48.64895" lon="-2.42843">
        <ele>8.8199462890625</ele>
        <time>2021-05-11T09:56:29Z</time>
      </trkpt>
      <trkpt lat="48.64887" lon="-2.4285">
        <ele>9.5736694335938</ele>
        <time>2021-05-11T09:56:36Z</time>
      </trkpt>
      <trkpt lat="48.64879" lon="-2.42853">
        <ele>9.2923583984375</ele>
        <time>2021-05-11T09:56:44Z</time>
      </trkpt>
      <trkpt lat="48.64874" lon="-2.42863">
        <ele>8.2810668945312</ele>
        <time>2021-05-11T09:56:54Z</time>
      </trkpt>
      <trkpt lat="48.64877" lon="-2.42876">
        <ele>10.141357421875</ele>
        <time>2021-05-11T09:57:07Z</time>
      </trkpt>
      <trkpt lat="48.64881" lon="-2.42888">
        <ele>7.56689453125</ele>
        <time>2021-05-11T09:57:24Z</time>
      </trkpt>
      <trkpt lat="48.64883" lon="-2.42901">
        <ele>8.6834716796875</ele>
        <time>2021-05-11T09:57:31Z</time>
      </trkpt>
      <trkpt lat="48.64886" lon="-2.42912">
        <ele>8.8036499023438</ele>
        <time>2021-05-11T09:57:38Z</time>
      </trkpt>
      <trkpt lat="48.6489" lon="-2.42922">
        <ele>7.8611450195312</ele>
        <time>2021-05-11T09:57:45Z</time>
      </trkpt>
      <trkpt lat="48.64894" lon="-2.42933">
        <ele>8.800537109375</ele>
        <time>2021-05-11T09:57:53Z</time>
      </trkpt>
      <trkpt lat="48.64897" lon="-2.42946">
        <ele>6.3539428710938</ele>
        <time>2021-05-11T09:58:01Z</time>
      </trkpt>
      <trkpt lat="48.64899" lon="-2.42957">
        <ele>6.1862182617188</ele>
        <time>2021-05-11T09:58:08Z</time>
      </trkpt>
      <trkpt lat="48.649" lon="-2.42969">
        <ele>7.8402709960938</ele>
        <time>2021-05-11T09:58:15Z</time>
      </trkpt>
      <trkpt lat="48.64902" lon="-2.42981">
        <ele>9.0906372070312</ele>
        <time>2021-05-11T09:58:21Z</time>
      </trkpt>
      <trkpt lat="48.64905" lon="-2.42994">
        <ele>8.464599609375</ele>
        <time>2021-05-11T09:58:29Z</time>
      </trkpt>
      <trkpt lat="48.64907" lon="-2.43006">
        <ele>10.17578125</ele>
        <time>2021-05-11T09:58:36Z</time>
      </trkpt>
      <trkpt lat="48.64908" lon="-2.43019">
        <ele>8.3302612304688</ele>
        <time>2021-05-11T09:58:43Z</time>
      </trkpt>
      <trkpt lat="48.64909" lon="-2.43031">
        <ele>9.8927612304688</ele>
        <time>2021-05-11T09:58:50Z</time>
      </trkpt>
      <trkpt lat="48.64912" lon="-2.43042">
        <ele>9.0075073242188</ele>
        <time>2021-05-11T09:58:58Z</time>
      </trkpt>
      <trkpt lat="48.64913" lon="-2.43055">
        <ele>11.392517089844</ele>
        <time>2021-05-11T09:59:05Z</time>
      </trkpt>
      <trkpt lat="48.64915" lon="-2.43067">
        <ele>10.021850585938</ele>
        <time>2021-05-11T09:59:11Z</time>
      </trkpt>
      <trkpt lat="48.64922" lon="-2.43072">
        <ele>6.7857055664062</ele>
        <time>2021-05-11T09:59:19Z</time>
      </trkpt>
      <trkpt lat="48.64926" lon="-2.43083">
        <ele>6.7728881835938</ele>
        <time>2021-05-11T09:59:32Z</time>
      </trkpt>
      <trkpt lat="48.64923" lon="-2.43094">
        <ele>6.843505859375</ele>
        <time>2021-05-11T09:59:38Z</time>
      </trkpt>
      <trkpt lat="48.64921" lon="-2.43106">
        <ele>6.9796752929688</ele>
        <time>2021-05-11T09:59:46Z</time>
      </trkpt>
      <trkpt lat="48.64918" lon="-2.43118">
        <ele>8.7191162109375</ele>
        <time>2021-05-11T09:59:55Z</time>
      </trkpt>
      <trkpt lat="48.64912" lon="-2.43126">
        <ele>8.7263793945312</ele>
        <time>2021-05-11T10:00:01Z</time>
      </trkpt>
      <trkpt lat="48.64904" lon="-2.43131">
        <ele>7.315673828125</ele>
        <time>2021-05-11T10:00:09Z</time>
      </trkpt>
      <trkpt lat="48.64902" lon="-2.43144">
        <ele>5.5219116210938</ele>
        <time>2021-05-11T10:00:22Z</time>
      </trkpt>
      <trkpt lat="48.64909" lon="-2.43149">
        <ele>7.578857421875</ele>
        <time>2021-05-11T10:00:31Z</time>
      </trkpt>
      <trkpt lat="48.64915" lon="-2.43157">
        <ele>7.525634765625</ele>
        <time>2021-05-11T10:00:37Z</time>
      </trkpt>
      <trkpt lat="48.64916" lon="-2.4317">
        <ele>7.6473388671875</ele>
        <time>2021-05-11T10:00:43Z</time>
      </trkpt>
      <trkpt lat="48.64921" lon="-2.4318">
        <ele>6.5540771484375</ele>
        <time>2021-05-11T10:00:56Z</time>
      </trkpt>
      <trkpt lat="48.64926" lon="-2.43187">
        <ele>6.0693359375</ele>
        <time>2021-05-11T10:01:02Z</time>
      </trkpt>
      <trkpt lat="48.64934" lon="-2.43193">
        <ele>6.8289184570312</ele>
        <time>2021-05-11T10:01:06Z</time>
      </trkpt>
      <trkpt lat="48.64941" lon="-2.43199">
        <ele>9.3953857421875</ele>
        <time>2021-05-11T10:01:16Z</time>
      </trkpt>
      <trkpt lat="48.64949" lon="-2.43205">
        <ele>7.2337036132812</ele>
        <time>2021-05-11T10:01:21Z</time>
      </trkpt>
      <trkpt lat="48.64956" lon="-2.43212">
        <ele>10.19140625</ele>
        <time>2021-05-11T10:01:31Z</time>
      </trkpt>
      <trkpt lat="48.64962" lon="-2.4322">
        <ele>9.4049682617188</ele>
        <time>2021-05-11T10:01:36Z</time>
      </trkpt>
      <trkpt lat="48.64968" lon="-2.43228">
        <ele>12.462280273438</ele>
        <time>2021-05-11T10:01:42Z</time>
      </trkpt>
      <trkpt lat="48.64975" lon="-2.43236">
        <ele>10.210266113281</ele>
        <time>2021-05-11T10:01:52Z</time>
      </trkpt>
      <trkpt lat="48.64976" lon="-2.43249">
        <ele>15.17431640625</ele>
        <time>2021-05-11T10:02:10Z</time>
      </trkpt>
      <trkpt lat="48.64981" lon="-2.43256">
        <ele>8.5687255859375</ele>
        <time>2021-05-11T10:02:26Z</time>
      </trkpt>
      <trkpt lat="48.64988" lon="-2.43262">
        <ele>11.77587890625</ele>
        <time>2021-05-11T10:02:33Z</time>
      </trkpt>
      <trkpt lat="48.6499" lon="-2.43269">
        <ele>12.8</ele>
      </trkpt>
      <trkpt lat="48.64995" lon="-2.43274">
        <ele>12.3</ele>
        <time>2021-05-11T10:02:37Z</time>
      </trkpt>
      <trkpt lat="48.65" lon="-2.4328">
        <ele>12</ele>
        <time>2021-05-11T10:02:44Z</time>
      </trkpt>
      <trkpt lat="48.64995" lon="-2.43291">
        <ele>14.5</ele>
        <time>2021-05-11T10:02:56Z</time>
      </trkpt>
      <trkpt lat="48.65008" lon="-2.43298">
        <ele>14.716552734375</ele>
        <time>2021-05-11T10:03:27Z</time>
      </trkpt>
      <trkpt lat="48.65015" lon="-2.43304">
        <ele>11.943969726562</ele>
        <time>2021-05-11T10:03:37Z</time>
      </trkpt>
      <trkpt lat="48.65021" lon="-2.43314">
        <ele>11.451599121094</ele>
        <time>2021-05-11T10:03:45Z</time>
      </trkpt>
      <trkpt lat="48.65024" lon="-2.43326">
        <ele>12.828308105469</ele>
        <time>2021-05-11T10:03:52Z</time>
      </trkpt>
      <trkpt lat="48.65031" lon="-2.43333">
        <ele>12.548217773438</ele>
        <time>2021-05-11T10:03:58Z</time>
      </trkpt>
      <trkpt lat="48.6504" lon="-2.43339">
        <ele>14.592407226562</ele>
        <time>2021-05-11T10:04:03Z</time>
      </trkpt>
      <trkpt lat="48.65048" lon="-2.43343">
        <ele>15.110473632812</ele>
        <time>2021-05-11T10:04:08Z</time>
      </trkpt>
      <trkpt lat="48.65051" lon="-2.43354">
        <ele>15.831115722656</ele>
        <time>2021-05-11T10:04:13Z</time>
      </trkpt>
      <trkpt lat="48.65054" lon="-2.43366">
        <ele>11.835571289062</ele>
        <time>2021-05-11T10:04:24Z</time>
      </trkpt>
      <trkpt lat="48.6506" lon="-2.43376">
        <ele>10.08935546875</ele>
        <time>2021-05-11T10:04:44Z</time>
      </trkpt>
      <trkpt lat="48.65066" lon="-2.43386">
        <ele>10.875915527344</ele>
        <time>2021-05-11T10:04:51Z</time>
      </trkpt>
      <trkpt lat="48.65067" lon="-2.43398">
        <ele>10.352111816406</ele>
        <time>2021-05-11T10:04:58Z</time>
      </trkpt>
      <trkpt lat="48.65071" lon="-2.4341">
        <ele>7.6912231445312</ele>
        <time>2021-05-11T10:05:06Z</time>
      </trkpt>
      <trkpt lat="48.6507" lon="-2.43422">
        <ele>10.153137207031</ele>
        <time>2021-05-11T10:05:13Z</time>
      </trkpt>
      <trkpt lat="48.65071" lon="-2.43435">
        <ele>8.3934936523438</ele>
        <time>2021-05-11T10:05:21Z</time>
      </trkpt>
      <trkpt lat="48.65079" lon="-2.43439">
        <ele>9.47216796875</ele>
        <time>2021-05-11T10:05:27Z</time>
      </trkpt>
      <trkpt lat="48.65087" lon="-2.43446">
        <ele>7.5634765625</ele>
        <time>2021-05-11T10:05:35Z</time>
      </trkpt>
      <trkpt lat="48.65093" lon="-2.43454">
        <ele>10.745971679688</ele>
        <time>2021-05-11T10:05:42Z</time>
      </trkpt>
      <trkpt lat="48.65098" lon="-2.43464">
        <ele>13.482727050781</ele>
        <time>2021-05-11T10:05:49Z</time>
      </trkpt>
      <trkpt lat="48.65106" lon="-2.43468">
        <ele>14.242919921875</ele>
        <time>2021-05-11T10:05:58Z</time>
      </trkpt>
      <trkpt lat="48.65113" lon="-2.43471">
        <ele>11.80712890625</ele>
        <time>2021-05-11T10:06:09Z</time>
      </trkpt>
      <trkpt lat="48.65119" lon="-2.43481">
        <ele>13.395568847656</ele>
        <time>2021-05-11T10:06:17Z</time>
      </trkpt>
      <trkpt lat="48.65124" lon="-2.43487">
        <ele>13.891052246094</ele>
        <time>2021-05-11T10:06:23Z</time>
      </trkpt>
      <trkpt lat="48.6513" lon="-2.43497">
        <ele>13.228515625</ele>
        <time>2021-05-11T10:06:33Z</time>
      </trkpt>
      <trkpt lat="48.65135" lon="-2.43508">
        <ele>9.919921875</ele>
        <time>2021-05-11T10:06:59Z</time>
      </trkpt>
      <trkpt lat="48.65134" lon="-2.43521">
        <ele>12.600463867188</ele>
        <time>2021-05-11T10:07:05Z</time>
      </trkpt>
      <trkpt lat="48.65141" lon="-2.43526">
        <ele>14.542419433594</ele>
        <time>2021-05-11T10:07:11Z</time>
      </trkpt>
      <trkpt lat="48.65146" lon="-2.43535">
        <ele>14.068481445312</ele>
        <time>2021-05-11T10:07:26Z</time>
      </trkpt>
      <trkpt lat="48.65153" lon="-2.43543">
        <ele>12.877807617188</ele>
        <time>2021-05-11T10:07:36Z</time>
      </trkpt>
      <trkpt lat="48.6516" lon="-2.4355">
        <ele>13.543212890625</ele>
        <time>2021-05-11T10:07:42Z</time>
      </trkpt>
      <trkpt lat="48.65163" lon="-2.43562">
        <ele>14.314697265625</ele>
        <time>2021-05-11T10:07:50Z</time>
      </trkpt>
      <trkpt lat="48.65169" lon="-2.43571">
        <ele>14.179992675781</ele>
        <time>2021-05-11T10:07:59Z</time>
      </trkpt>
      <trkpt lat="48.65173" lon="-2.43583">
        <ele>14.663330078125</ele>
        <time>2021-05-11T10:08:07Z</time>
      </trkpt>
      <trkpt lat="48.65178" lon="-2.43591">
        <ele>14.556457519531</ele>
        <time>2021-05-11T10:08:12Z</time>
      </trkpt>
      <trkpt lat="48.65185" lon="-2.43599">
        <ele>15.302795410156</ele>
        <time>2021-05-11T10:08:17Z</time>
      </trkpt>
      <trkpt lat="48.65187" lon="-2.43611">
        <ele>12.373657226562</ele>
        <time>2021-05-11T10:08:29Z</time>
      </trkpt>
      <trkpt lat="48.65195" lon="-2.43619">
        <ele>12.206848144531</ele>
        <time>2021-05-11T10:08:34Z</time>
      </trkpt>
      <trkpt lat="48.65201" lon="-2.43628">
        <ele>11.239440917969</ele>
        <time>2021-05-11T10:08:41Z</time>
      </trkpt>
      <trkpt lat="48.65204" lon="-2.4364">
        <ele>11.758544921875</ele>
        <time>2021-05-11T10:09:11Z</time>
      </trkpt>
      <trkpt lat="48.65211" lon="-2.43646">
        <ele>11.872802734375</ele>
        <time>2021-05-11T10:09:20Z</time>
      </trkpt>
      <trkpt lat="48.65216" lon="-2.43654">
        <ele>14.131042480469</ele>
        <time>2021-05-11T10:09:28Z</time>
      </trkpt>
      <trkpt lat="48.6522" lon="-2.43663">
        <ele>14.567932128906</ele>
        <time>2021-05-11T10:09:32Z</time>
      </trkpt>
      <trkpt lat="48.65225" lon="-2.43673">
        <ele>14.176086425781</ele>
        <time>2021-05-11T10:09:39Z</time>
      </trkpt>
      <trkpt lat="48.6523" lon="-2.43684">
        <ele>13.468322753906</ele>
        <time>2021-05-11T10:09:46Z</time>
      </trkpt>
      <trkpt lat="48.65234" lon="-2.43696">
        <ele>13.708312988281</ele>
        <time>2021-05-11T10:09:52Z</time>
      </trkpt>
      <trkpt lat="48.65238" lon="-2.43707">
        <ele>13.556884765625</ele>
        <time>2021-05-11T10:09:58Z</time>
      </trkpt>
      <trkpt lat="48.65241" lon="-2.43719">
        <ele>12.110473632812</ele>
        <time>2021-05-11T10:10:06Z</time>
      </trkpt>
      <trkpt lat="48.65244" lon="-2.43731">
        <ele>11.6552734375</ele>
        <time>2021-05-11T10:10:14Z</time>
      </trkpt>
      <trkpt lat="48.65247" lon="-2.43743">
        <ele>10.759704589844</ele>
        <time>2021-05-11T10:10:21Z</time>
      </trkpt>
      <trkpt lat="48.65249" lon="-2.43755">
        <ele>8.84326171875</ele>
        <time>2021-05-11T10:10:29Z</time>
      </trkpt>
      <trkpt lat="48.65247" lon="-2.43768">
        <ele>8.1827392578125</ele>
        <time>2021-05-11T10:10:43Z</time>
      </trkpt>
      <trkpt lat="48.6525" lon="-2.43779">
        <ele>9.4188232421875</ele>
        <time>2021-05-11T10:10:49Z</time>
      </trkpt>
      <trkpt lat="48.65251" lon="-2.43791">
        <ele>11.435363769531</ele>
        <time>2021-05-11T10:10:56Z</time>
      </trkpt>
      <trkpt lat="48.6525" lon="-2.43803">
        <ele>10.575927734375</ele>
        <time>2021-05-11T10:11:03Z</time>
      </trkpt>
      <trkpt lat="48.65249" lon="-2.43815">
        <ele>11.481201171875</ele>
        <time>2021-05-11T10:11:10Z</time>
      </trkpt>
      <trkpt lat="48.65245" lon="-2.43828">
        <ele>9.68408203125</ele>
        <time>2021-05-11T10:11:18Z</time>
      </trkpt>
      <trkpt lat="48.65244" lon="-2.43841">
        <ele>10.662292480469</ele>
        <time>2021-05-11T10:11:26Z</time>
      </trkpt>
      <trkpt lat="48.65249" lon="-2.43851">
        <ele>11.590881347656</ele>
        <time>2021-05-11T10:11:35Z</time>
      </trkpt>
      <trkpt lat="48.65244" lon="-2.43862">
        <ele>10.870422363281</ele>
        <time>2021-05-11T10:11:45Z</time>
      </trkpt>
      <trkpt lat="48.65239" lon="-2.43873">
        <ele>9.2344970703125</ele>
        <time>2021-05-11T10:11:54Z</time>
      </trkpt>
      <trkpt lat="48.65235" lon="-2.43883">
        <ele>11.655944824219</ele>
        <time>2021-05-11T10:12:02Z</time>
      </trkpt>
      <trkpt lat="48.65231" lon="-2.43895">
        <ele>10.937683105469</ele>
        <time>2021-05-11T10:12:10Z</time>
      </trkpt>
      <trkpt lat="48.65228" lon="-2.43907">
        <ele>9.3828125</ele>
        <time>2021-05-11T10:12:18Z</time>
      </trkpt>
      <trkpt lat="48.65224" lon="-2.43918">
        <ele>10.012145996094</ele>
        <time>2021-05-11T10:12:26Z</time>
      </trkpt>
      <trkpt lat="48.6522" lon="-2.4393">
        <ele>9.2592163085938</ele>
        <time>2021-05-11T10:12:36Z</time>
      </trkpt>
      <trkpt lat="48.65215" lon="-2.43941">
        <ele>7.972900390625</ele>
        <time>2021-05-11T10:12:44Z</time>
      </trkpt>
      <trkpt lat="48.65211" lon="-2.43952">
        <ele>9.6063842773438</ele>
        <time>2021-05-11T10:12:52Z</time>
      </trkpt>
      <trkpt lat="48.65209" lon="-2.43953">
        <ele>10.787353515625</ele>
        <time>2021-05-11T10:13:36Z</time>
      </trkpt>
      <trkpt lat="48.65209" lon="-2.43953">
        <ele>10.787353515625</ele>
        <time>2021-05-11T10:13:37Z</time>
      </trkpt>
      <trkpt lat="48.65206" lon="-2.43957">
        <ele>6.5</ele>
        <time>2021-05-11T10:29:56Z</time>
      </trkpt>
      <trkpt lat="48.65204" lon="-2.43963">
        <ele>6.6</ele>
        <time>2021-05-11T10:30:01Z</time>
      </trkpt>
      <trkpt lat="48.65204" lon="-2.4396">
        <ele>7.9818725585938</ele>
        <time>2021-05-11T10:30:06Z</time>
      </trkpt>
      <trkpt lat="48.65202" lon="-2.43973">
        <ele>10.084533691406</ele>
        <time>2021-05-11T10:30:21Z</time>
      </trkpt>
      <trkpt lat="48.65198" lon="-2.43984">
        <ele>11.143859863281</ele>
        <time>2021-05-11T10:30:30Z</time>
      </trkpt>
      <trkpt lat="48.65195" lon="-2.43995">
        <ele>10.632934570312</ele>
        <time>2021-05-11T10:30:38Z</time>
      </trkpt>
      <trkpt lat="48.65191" lon="-2.44006">
        <ele>10.743835449219</ele>
        <time>2021-05-11T10:30:47Z</time>
      </trkpt>
      <trkpt lat="48.65186" lon="-2.44018">
        <ele>9.94140625</ele>
        <time>2021-05-11T10:30:55Z</time>
      </trkpt>
      <trkpt lat="48.65181" lon="-2.44029">
        <ele>11.778015136719</ele>
        <time>2021-05-11T10:31:03Z</time>
      </trkpt>
      <trkpt lat="48.65178" lon="-2.4404">
        <ele>10.88037109375</ele>
        <time>2021-05-11T10:31:11Z</time>
      </trkpt>
      <trkpt lat="48.65175" lon="-2.44051">
        <ele>10.73974609375</ele>
        <time>2021-05-11T10:31:19Z</time>
      </trkpt>
      <trkpt lat="48.6517" lon="-2.44062">
        <ele>10.683837890625</ele>
        <time>2021-05-11T10:31:27Z</time>
      </trkpt>
      <trkpt lat="48.65167" lon="-2.44077">
        <ele>8.1</ele>
        <time>2021-05-11T10:31:36Z</time>
      </trkpt>
      <trkpt lat="48.6516" lon="-2.44081">
        <ele>9.4541015625</ele>
        <time>2021-05-11T10:31:44Z</time>
      </trkpt>
      <trkpt lat="48.65152" lon="-2.44087">
        <ele>9.7164306640625</ele>
        <time>2021-05-11T10:31:57Z</time>
      </trkpt>
      <trkpt lat="48.65151" lon="-2.441">
        <ele>12.654052734375</ele>
        <time>2021-05-11T10:32:23Z</time>
      </trkpt>
      <trkpt lat="48.6515" lon="-2.44112">
        <ele>10.5</ele>
      </trkpt>
      <trkpt lat="48.65143" lon="-2.44106">
        <ele>20.849182128906</ele>
        <time>2021-05-11T10:32:47Z</time>
      </trkpt>
      <trkpt lat="48.65138" lon="-2.44113">
        <ele>12.8</ele>
        <time>2021-05-11T10:33:12Z</time>
      </trkpt>
      <trkpt lat="48.65126" lon="-2.44107">
        <ele>31.89990234375</ele>
        <time>2021-05-11T10:33:33Z</time>
      </trkpt>
      <trkpt lat="48.65117" lon="-2.44107">
        <ele>33.823852539062</ele>
        <time>2021-05-11T10:33:46Z</time>
      </trkpt>
      <trkpt lat="48.65109" lon="-2.44108">
        <ele>33.496704101562</ele>
        <time>2021-05-11T10:33:57Z</time>
      </trkpt>
      <trkpt lat="48.65101" lon="-2.44115">
        <ele>36.632141113281</ele>
        <time>2021-05-11T10:34:47Z</time>
      </trkpt>
      <trkpt lat="48.65098" lon="-2.44127">
        <ele>32.841186523438</ele>
        <time>2021-05-11T10:35:01Z</time>
      </trkpt>
      <trkpt lat="48.65093" lon="-2.44139">
        <ele>27.1279296875</ele>
        <time>2021-05-11T10:35:13Z</time>
      </trkpt>
      <trkpt lat="48.6509" lon="-2.44151">
        <ele>23.765869140625</ele>
        <time>2021-05-11T10:35:23Z</time>
      </trkpt>
      <trkpt lat="48.65086" lon="-2.44163">
        <ele>20.988037109375</ele>
        <time>2021-05-11T10:35:33Z</time>
      </trkpt>
      <trkpt lat="48.65082" lon="-2.44174">
        <ele>18.074157714844</ele>
        <time>2021-05-11T10:35:42Z</time>
      </trkpt>
      <trkpt lat="48.6508" lon="-2.44186">
        <ele>15.248291015625</ele>
        <time>2021-05-11T10:35:51Z</time>
      </trkpt>
      <trkpt lat="48.65078" lon="-2.44199">
        <ele>15.153991699219</ele>
        <time>2021-05-11T10:36:00Z</time>
      </trkpt>
      <trkpt lat="48.65075" lon="-2.44211">
        <ele>14.598876953125</ele>
        <time>2021-05-11T10:36:08Z</time>
      </trkpt>
      <trkpt lat="48.6507" lon="-2.44222">
        <ele>15.350646972656</ele>
        <time>2021-05-11T10:36:15Z</time>
      </trkpt>
      <trkpt lat="48.65064" lon="-2.44218">
        <ele>14.935424804688</ele>
        <time>2021-05-11T10:36:24Z</time>
      </trkpt>
      <trkpt lat="48.65056" lon="-2.4422">
        <ele>17.135681152344</ele>
        <time>2021-05-11T10:36:31Z</time>
      </trkpt>
      <trkpt lat="48.65055" lon="-2.44233">
        <ele>19.059509277344</ele>
        <time>2021-05-11T10:36:38Z</time>
      </trkpt>
      <trkpt lat="48.65054" lon="-2.44246">
        <ele>22.041748046875</ele>
        <time>2021-05-11T10:36:44Z</time>
      </trkpt>
      <trkpt lat="48.65051" lon="-2.44258">
        <ele>24.65673828125</ele>
        <time>2021-05-11T10:36:51Z</time>
      </trkpt>
      <trkpt lat="48.65053" lon="-2.44271">
        <ele>26.957946777344</ele>
        <time>2021-05-11T10:36:59Z</time>
      </trkpt>
      <trkpt lat="48.65054" lon="-2.44284">
        <ele>24.3525390625</ele>
        <time>2021-05-11T10:37:11Z</time>
      </trkpt>
      <trkpt lat="48.65062" lon="-2.44288">
        <ele>26.136901855469</ele>
        <time>2021-05-11T10:37:19Z</time>
      </trkpt>
      <trkpt lat="48.65064" lon="-2.44301">
        <ele>23.432983398438</ele>
        <time>2021-05-11T10:37:29Z</time>
      </trkpt>
      <trkpt lat="48.65058" lon="-2.44308">
        <ele>23.191345214844</ele>
        <time>2021-05-11T10:37:35Z</time>
      </trkpt>
      <trkpt lat="48.65054" lon="-2.4432">
        <ele>24.627319335938</ele>
        <time>2021-05-11T10:37:43Z</time>
      </trkpt>
      <trkpt lat="48.65047" lon="-2.44327">
        <ele>17.797119140625</ele>
        <time>2021-05-11T10:37:52Z</time>
      </trkpt>
      <trkpt lat="48.65042" lon="-2.44339">
        <ele>20.048278808594</ele>
        <time>2021-05-11T10:37:58Z</time>
      </trkpt>
      <trkpt lat="48.65035" lon="-2.44344">
        <ele>17.520263671875</ele>
        <time>2021-05-11T10:38:07Z</time>
      </trkpt>
      <trkpt lat="48.65028" lon="-2.4435">
        <ele>18.45556640625</ele>
        <time>2021-05-11T10:38:12Z</time>
      </trkpt>
      <trkpt lat="48.65026" lon="-2.44363">
        <ele>20.439697265625</ele>
        <time>2021-05-11T10:38:18Z</time>
      </trkpt>
      <trkpt lat="48.65024" lon="-2.44374">
        <ele>20.444580078125</ele>
        <time>2021-05-11T10:38:25Z</time>
      </trkpt>
      <trkpt lat="48.65021" lon="-2.44387">
        <ele>15.963439941406</ele>
        <time>2021-05-11T10:39:10Z</time>
      </trkpt>
      <trkpt lat="48.65016" lon="-2.44397">
        <ele>14.010314941406</ele>
        <time>2021-05-11T10:39:18Z</time>
      </trkpt>
      <trkpt lat="48.65009" lon="-2.44404">
        <ele>13.663635253906</ele>
        <time>2021-05-11T10:39:25Z</time>
      </trkpt>
      <trkpt lat="48.65001" lon="-2.44411">
        <ele>16.406799316406</ele>
        <time>2021-05-11T10:39:32Z</time>
      </trkpt>
      <trkpt lat="48.64993" lon="-2.44416">
        <ele>16.261169433594</ele>
        <time>2021-05-11T10:39:39Z</time>
      </trkpt>
      <trkpt lat="48.64986" lon="-2.44421">
        <ele>14.319458007812</ele>
        <time>2021-05-11T10:39:47Z</time>
      </trkpt>
      <trkpt lat="48.64979" lon="-2.44427">
        <ele>13.8017578125</ele>
        <time>2021-05-11T10:39:54Z</time>
      </trkpt>
      <trkpt lat="48.64974" lon="-2.44438">
        <ele>13.802124023438</ele>
        <time>2021-05-11T10:40:02Z</time>
      </trkpt>
      <trkpt lat="48.6497" lon="-2.44449">
        <ele>16.962280273438</ele>
        <time>2021-05-11T10:40:10Z</time>
      </trkpt>
      <trkpt lat="48.64964" lon="-2.44458">
        <ele>19.676696777344</ele>
        <time>2021-05-11T10:40:17Z</time>
      </trkpt>
      <trkpt lat="48.64961" lon="-2.44468">
        <ele>20.661376953125</ele>
        <time>2021-05-11T10:40:23Z</time>
      </trkpt>
      <trkpt lat="48.64956" lon="-2.44477">
        <ele>18.91796875</ele>
        <time>2021-05-11T10:40:28Z</time>
      </trkpt>
      <trkpt lat="48.64948" lon="-2.44481">
        <ele>17.458984375</ele>
        <time>2021-05-11T10:40:35Z</time>
      </trkpt>
      <trkpt lat="48.64943" lon="-2.44491">
        <ele>15.089782714844</ele>
        <time>2021-05-11T10:40:43Z</time>
      </trkpt>
      <trkpt lat="48.64937" lon="-2.44501">
        <ele>14.679138183594</ele>
        <time>2021-05-11T10:40:55Z</time>
      </trkpt>
      <trkpt lat="48.64932" lon="-2.44511">
        <ele>15.148010253906</ele>
        <time>2021-05-11T10:41:05Z</time>
      </trkpt>
      <trkpt lat="48.64928" lon="-2.44523">
        <ele>5.59521484375</ele>
        <time>2021-05-11T10:41:18Z</time>
      </trkpt>
      <trkpt lat="48.64924" lon="-2.44533">
        <ele>7.1141967773438</ele>
        <time>2021-05-11T10:41:25Z</time>
      </trkpt>
      <trkpt lat="48.64918" lon="-2.44542">
        <ele>10.088806152344</ele>
        <time>2021-05-11T10:41:29Z</time>
      </trkpt>
      <trkpt lat="48.64913" lon="-2.44551">
        <ele>9.3555297851562</ele>
        <time>2021-05-11T10:41:35Z</time>
      </trkpt>
      <trkpt lat="48.64906" lon="-2.44559">
        <ele>11.9072265625</ele>
        <time>2021-05-11T10:41:42Z</time>
      </trkpt>
      <trkpt lat="48.64901" lon="-2.44569">
        <ele>13.265869140625</ele>
        <time>2021-05-11T10:41:48Z</time>
      </trkpt>
      <trkpt lat="48.64894" lon="-2.44578">
        <ele>13.553527832031</ele>
        <time>2021-05-11T10:41:55Z</time>
      </trkpt>
      <trkpt lat="48.64889" lon="-2.44588">
        <ele>15.622497558594</ele>
        <time>2021-05-11T10:42:03Z</time>
      </trkpt>
      <trkpt lat="48.64885" lon="-2.44599">
        <ele>14.981262207031</ele>
        <time>2021-05-11T10:42:11Z</time>
      </trkpt>
      <trkpt lat="48.64882" lon="-2.44609">
        <ele>16.240295410156</ele>
        <time>2021-05-11T10:42:18Z</time>
      </trkpt>
      <trkpt lat="48.64877" lon="-2.44619">
        <ele>18.031799316406</ele>
        <time>2021-05-11T10:42:24Z</time>
      </trkpt>
      <trkpt lat="48.64873" lon="-2.44629">
        <ele>18.778503417969</ele>
        <time>2021-05-11T10:42:29Z</time>
      </trkpt>
      <trkpt lat="48.64869" lon="-2.4464">
        <ele>18.881774902344</ele>
        <time>2021-05-11T10:42:36Z</time>
      </trkpt>
      <trkpt lat="48.64864" lon="-2.44651">
        <ele>20.4</ele>
        <time>2021-05-11T10:42:44Z</time>
      </trkpt>
      <trkpt lat="48.64861" lon="-2.44664">
        <ele>20.4</ele>
        <time>2021-05-11T10:42:52Z</time>
      </trkpt>
      <trkpt lat="48.6486" lon="-2.44678">
        <ele>20.4</ele>
        <time>2021-05-11T10:43:00Z</time>
      </trkpt>
      <trkpt lat="48.64861" lon="-2.44691">
        <ele>20.1</ele>
        <time>2021-05-11T10:43:04Z</time>
      </trkpt>
      <trkpt lat="48.6486" lon="-2.44703">
        <ele>20.1</ele>
        <time>2021-05-11T10:43:11Z</time>
      </trkpt>
      <trkpt lat="48.64862" lon="-2.44717">
        <ele>19.5</ele>
        <time>2021-05-11T10:43:18Z</time>
      </trkpt>
      <trkpt lat="48.64866" lon="-2.44729">
        <ele>15.04736328125</ele>
        <time>2021-05-11T10:43:24Z</time>
      </trkpt>
      <trkpt lat="48.64868" lon="-2.44742">
        <ele>14.804809570312</ele>
        <time>2021-05-11T10:43:32Z</time>
      </trkpt>
      <trkpt lat="48.6487" lon="-2.44755">
        <ele>15.459655761719</ele>
        <time>2021-05-11T10:43:39Z</time>
      </trkpt>
      <trkpt lat="48.64872" lon="-2.44768">
        <ele>14.540161132812</ele>
        <time>2021-05-11T10:43:47Z</time>
      </trkpt>
      <trkpt lat="48.64875" lon="-2.44779">
        <ele>14.44140625</ele>
        <time>2021-05-11T10:43:54Z</time>
      </trkpt>
      <trkpt lat="48.64879" lon="-2.44791">
        <ele>15.075134277344</ele>
        <time>2021-05-11T10:44:00Z</time>
      </trkpt>
      <trkpt lat="48.64879" lon="-2.44804">
        <ele>15.320739746094</ele>
        <time>2021-05-11T10:44:08Z</time>
      </trkpt>
      <trkpt lat="48.64876" lon="-2.44815">
        <ele>15.318664550781</ele>
        <time>2021-05-11T10:44:14Z</time>
      </trkpt>
      <trkpt lat="48.64872" lon="-2.44826">
        <ele>14.376525878906</ele>
        <time>2021-05-11T10:44:21Z</time>
      </trkpt>
      <trkpt lat="48.64865" lon="-2.44834">
        <ele>10.745544433594</ele>
        <time>2021-05-11T10:44:29Z</time>
      </trkpt>
      <trkpt lat="48.64858" lon="-2.4484">
        <ele>9.6055297851562</ele>
        <time>2021-05-11T10:44:37Z</time>
      </trkpt>
      <trkpt lat="48.64851" lon="-2.44842">
        <ele>10.89697265625</ele>
        <time>2021-05-11T10:44:44Z</time>
      </trkpt>
      <trkpt lat="48.64842" lon="-2.44843">
        <ele>11.621032714844</ele>
        <time>2021-05-11T10:44:51Z</time>
      </trkpt>
      <trkpt lat="48.64836" lon="-2.44852">
        <ele>10.101928710938</ele>
        <time>2021-05-11T10:44:59Z</time>
      </trkpt>
      <trkpt lat="48.64835" lon="-2.44864">
        <ele>14.048461914062</ele>
        <time>2021-05-11T10:45:43Z</time>
      </trkpt>
      <trkpt lat="48.64834" lon="-2.44877">
        <ele>15.498657226562</ele>
        <time>2021-05-11T10:45:55Z</time>
      </trkpt>
      <trkpt lat="48.64834" lon="-2.4489">
        <ele>18.094055175781</ele>
        <time>2021-05-11T10:46:06Z</time>
      </trkpt>
      <trkpt lat="48.64834" lon="-2.44903">
        <ele>20.101257324219</ele>
        <time>2021-05-11T10:46:16Z</time>
      </trkpt>
      <trkpt lat="48.64828" lon="-2.44912">
        <ele>21.226867675781</ele>
        <time>2021-05-11T10:46:26Z</time>
      </trkpt>
      <trkpt lat="48.64829" lon="-2.44925">
        <ele>22.478637695312</ele>
        <time>2021-05-11T10:46:33Z</time>
      </trkpt>
      <trkpt lat="48.64825" lon="-2.44937">
        <ele>23.046264648438</ele>
        <time>2021-05-11T10:46:41Z</time>
      </trkpt>
      <trkpt lat="48.64825" lon="-2.44948">
        <ele>20.923522949219</ele>
        <time>2021-05-11T10:46:47Z</time>
      </trkpt>
      <trkpt lat="48.64825" lon="-2.4496">
        <ele>19.691040039062</ele>
        <time>2021-05-11T10:46:55Z</time>
      </trkpt>
      <trkpt lat="48.6482" lon="-2.4497">
        <ele>17.618774414062</ele>
        <time>2021-05-11T10:47:02Z</time>
      </trkpt>
      <trkpt lat="48.64815" lon="-2.44979">
        <ele>19.953369140625</ele>
        <time>2021-05-11T10:47:08Z</time>
      </trkpt>
      <trkpt lat="48.64809" lon="-2.44987">
        <ele>21.055786132812</ele>
        <time>2021-05-11T10:47:16Z</time>
      </trkpt>
      <trkpt lat="48.64805" lon="-2.44998">
        <ele>25.8349609375</ele>
        <time>2021-05-11T10:47:26Z</time>
      </trkpt>
      <trkpt lat="48.64803" lon="-2.45011">
        <ele>24.803466796875</ele>
        <time>2021-05-11T10:47:34Z</time>
      </trkpt>
      <trkpt lat="48.64797" lon="-2.45019">
        <ele>22.732055664062</ele>
        <time>2021-05-11T10:47:41Z</time>
      </trkpt>
      <trkpt lat="48.64789" lon="-2.45024">
        <ele>18.7822265625</ele>
        <time>2021-05-11T10:47:48Z</time>
      </trkpt>
      <trkpt lat="48.64781" lon="-2.4503">
        <ele>17.946960449219</ele>
        <time>2021-05-11T10:47:56Z</time>
      </trkpt>
      <trkpt lat="48.64777" lon="-2.45041">
        <ele>23.27783203125</ele>
        <time>2021-05-11T10:48:06Z</time>
      </trkpt>
      <trkpt lat="48.64774" lon="-2.45052">
        <ele>24.325378417969</ele>
        <time>2021-05-11T10:48:12Z</time>
      </trkpt>
      <trkpt lat="48.64771" lon="-2.45065">
        <ele>22.383117675781</ele>
        <time>2021-05-11T10:48:20Z</time>
      </trkpt>
      <trkpt lat="48.64766" lon="-2.45075">
        <ele>21.685668945312</ele>
        <time>2021-05-11T10:48:29Z</time>
      </trkpt>
      <trkpt lat="48.64763" lon="-2.45084">
        <ele>17.656311035156</ele>
        <time>2021-05-11T10:48:37Z</time>
      </trkpt>
      <trkpt lat="48.64761" lon="-2.45097">
        <ele>18.474914550781</ele>
        <time>2021-05-11T10:48:45Z</time>
      </trkpt>
      <trkpt lat="48.64762" lon="-2.45111">
        <ele>21.407897949219</ele>
        <time>2021-05-11T10:48:53Z</time>
      </trkpt>
      <trkpt lat="48.64758" lon="-2.45121">
        <ele>22.943359375</ele>
        <time>2021-05-11T10:48:59Z</time>
      </trkpt>
      <trkpt lat="48.64758" lon="-2.45134">
        <ele>22.988586425781</ele>
        <time>2021-05-11T10:49:07Z</time>
      </trkpt>
      <trkpt lat="48.64758" lon="-2.45146">
        <ele>23.833740234375</ele>
        <time>2021-05-11T10:49:13Z</time>
      </trkpt>
      <trkpt lat="48.64757" lon="-2.45157">
        <ele>22.564147949219</ele>
        <time>2021-05-11T10:49:19Z</time>
      </trkpt>
      <trkpt lat="48.64753" lon="-2.45169">
        <ele>20.235107421875</ele>
        <time>2021-05-11T10:49:27Z</time>
      </trkpt>
      <trkpt lat="48.64747" lon="-2.45178">
        <ele>19.894348144531</ele>
        <time>2021-05-11T10:49:35Z</time>
      </trkpt>
      <trkpt lat="48.64744" lon="-2.45188">
        <ele>21.37890625</ele>
        <time>2021-05-11T10:49:41Z</time>
      </trkpt>
      <trkpt lat="48.6474" lon="-2.45197">
        <ele>20.112243652344</ele>
        <time>2021-05-11T10:49:48Z</time>
      </trkpt>
      <trkpt lat="48.64736" lon="-2.45209">
        <ele>20.37548828125</ele>
        <time>2021-05-11T10:49:55Z</time>
      </trkpt>
      <trkpt lat="48.64733" lon="-2.45221">
        <ele>22.180847167969</ele>
        <time>2021-05-11T10:50:05Z</time>
      </trkpt>
      <trkpt lat="48.64729" lon="-2.45232">
        <ele>20.866760253906</ele>
        <time>2021-05-11T10:50:14Z</time>
      </trkpt>
      <trkpt lat="48.64727" lon="-2.45243">
        <ele>20.110717773438</ele>
        <time>2021-05-11T10:50:21Z</time>
      </trkpt>
      <trkpt lat="48.64723" lon="-2.45255">
        <ele>22.77001953125</ele>
        <time>2021-05-11T10:50:28Z</time>
      </trkpt>
      <trkpt lat="48.6472" lon="-2.45267">
        <ele>23.490234375</ele>
        <time>2021-05-11T10:50:34Z</time>
      </trkpt>
      <trkpt lat="48.64719" lon="-2.45279">
        <ele>22.744750976562</ele>
        <time>2021-05-11T10:50:43Z</time>
      </trkpt>
      <trkpt lat="48.64715" lon="-2.4529">
        <ele>22.734741210938</ele>
        <time>2021-05-11T10:50:48Z</time>
      </trkpt>
      <trkpt lat="48.6471" lon="-2.45299">
        <ele>21.653991699219</ele>
        <time>2021-05-11T10:50:54Z</time>
      </trkpt>
      <trkpt lat="48.64705" lon="-2.45311">
        <ele>22.145080566406</ele>
        <time>2021-05-11T10:51:03Z</time>
      </trkpt>
      <trkpt lat="48.64703" lon="-2.45322">
        <ele>24.67333984375</ele>
        <time>2021-05-11T10:51:10Z</time>
      </trkpt>
      <trkpt lat="48.64696" lon="-2.45331">
        <ele>27.156799316406</ele>
        <time>2021-05-11T10:51:16Z</time>
      </trkpt>
      <trkpt lat="48.6469" lon="-2.45339">
        <ele>24.00244140625</ele>
        <time>2021-05-11T10:51:23Z</time>
      </trkpt>
      <trkpt lat="48.64689" lon="-2.45351">
        <ele>19.526062011719</ele>
        <time>2021-05-11T10:51:33Z</time>
      </trkpt>
      <trkpt lat="48.64696" lon="-2.45358">
        <ele>20.121520996094</ele>
        <time>2021-05-11T10:51:40Z</time>
      </trkpt>
      <trkpt lat="48.64704" lon="-2.45359">
        <ele>21.527709960938</ele>
        <time>2021-05-11T10:51:45Z</time>
      </trkpt>
      <trkpt lat="48.64712" lon="-2.45364">
        <ele>18.424194335938</ele>
        <time>2021-05-11T10:51:52Z</time>
      </trkpt>
      <trkpt lat="48.64719" lon="-2.45368">
        <ele>20.638610839844</ele>
        <time>2021-05-11T10:51:59Z</time>
      </trkpt>
      <trkpt lat="48.64725" lon="-2.45374">
        <ele>20.983032226562</ele>
        <time>2021-05-11T10:52:05Z</time>
      </trkpt>
      <trkpt lat="48.64732" lon="-2.45378">
        <ele>19.70166015625</ele>
        <time>2021-05-11T10:52:10Z</time>
      </trkpt>
      <trkpt lat="48.6474" lon="-2.45382">
        <ele>20.797729492188</ele>
        <time>2021-05-11T10:52:18Z</time>
      </trkpt>
      <trkpt lat="48.64743" lon="-2.45394">
        <ele>20.743408203125</ele>
        <time>2021-05-11T10:52:36Z</time>
      </trkpt>
      <trkpt lat="48.6474" lon="-2.45404">
        <ele>19.362548828125</ele>
        <time>2021-05-11T10:52:42Z</time>
      </trkpt>
      <trkpt lat="48.64732" lon="-2.45408">
        <ele>17.39208984375</ele>
        <time>2021-05-11T10:52:49Z</time>
      </trkpt>
      <trkpt lat="48.64725" lon="-2.45412">
        <ele>18.557373046875</ele>
        <time>2021-05-11T10:52:56Z</time>
      </trkpt>
      <trkpt lat="48.64718" lon="-2.45416">
        <ele>18.803283691406</ele>
        <time>2021-05-11T10:53:02Z</time>
      </trkpt>
      <trkpt lat="48.64711" lon="-2.45423">
        <ele>17.76123046875</ele>
        <time>2021-05-11T10:53:08Z</time>
      </trkpt>
      <trkpt lat="48.64703" lon="-2.45428">
        <ele>18.749572753906</ele>
        <time>2021-05-11T10:53:15Z</time>
      </trkpt>
      <trkpt lat="48.64694" lon="-2.45432">
        <ele>20.182434082031</ele>
        <time>2021-05-11T10:53:22Z</time>
      </trkpt>
      <trkpt lat="48.64689" lon="-2.45443">
        <ele>24.53271484375</ele>
        <time>2021-05-11T10:53:28Z</time>
      </trkpt>
      <trkpt lat="48.64682" lon="-2.45451">
        <ele>26.516479492188</ele>
        <time>2021-05-11T10:53:35Z</time>
      </trkpt>
      <trkpt lat="48.64676" lon="-2.45461">
        <ele>28.057678222656</ele>
        <time>2021-05-11T10:53:44Z</time>
      </trkpt>
      <trkpt lat="48.64669" lon="-2.45469">
        <ele>32.367980957031</ele>
        <time>2021-05-11T10:53:51Z</time>
      </trkpt>
      <trkpt lat="48.64663" lon="-2.45479">
        <ele>33.171203613281</ele>
        <time>2021-05-11T10:53:57Z</time>
      </trkpt>
      <trkpt lat="48.64659" lon="-2.45491">
        <ele>38.879028320312</ele>
        <time>2021-05-11T10:54:08Z</time>
      </trkpt>
      <trkpt lat="48.64654" lon="-2.45501">
        <ele>41.814453125</ele>
        <time>2021-05-11T10:54:15Z</time>
      </trkpt>
      <trkpt lat="48.64656" lon="-2.45514">
        <ele>42.533142089844</ele>
        <time>2021-05-11T10:54:29Z</time>
      </trkpt>
      <trkpt lat="48.64661" lon="-2.45524">
        <ele>40.042602539062</ele>
        <time>2021-05-11T10:54:42Z</time>
      </trkpt>
      <trkpt lat="48.6467" lon="-2.45523">
        <ele>35.701354980469</ele>
        <time>2021-05-11T10:54:50Z</time>
      </trkpt>
      <trkpt lat="48.64677" lon="-2.45518">
        <ele>36.710876464844</ele>
        <time>2021-05-11T10:54:57Z</time>
      </trkpt>
      <trkpt lat="48.64685" lon="-2.45511">
        <ele>37.054565429688</ele>
        <time>2021-05-11T10:55:05Z</time>
      </trkpt>
      <trkpt lat="48.6469" lon="-2.45502">
        <ele>40.696655273438</ele>
        <time>2021-05-11T10:55:10Z</time>
      </trkpt>
      <trkpt lat="48.64697" lon="-2.45495">
        <ele>39.788696289062</ele>
        <time>2021-05-11T10:55:15Z</time>
      </trkpt>
      <trkpt lat="48.64705" lon="-2.45491">
        <ele>41.358947753906</ele>
        <time>2021-05-11T10:55:22Z</time>
      </trkpt>
      <trkpt lat="48.64711" lon="-2.45482">
        <ele>42.240234375</ele>
        <time>2021-05-11T10:55:29Z</time>
      </trkpt>
      <trkpt lat="48.64718" lon="-2.45474">
        <ele>43.482360839844</ele>
        <time>2021-05-11T10:55:40Z</time>
      </trkpt>
      <trkpt lat="48.64725" lon="-2.45468">
        <ele>41.891967773438</ele>
        <time>2021-05-11T10:55:50Z</time>
      </trkpt>
      <trkpt lat="48.64732" lon="-2.45462">
        <ele>42.927856445312</ele>
        <time>2021-05-11T10:55:57Z</time>
      </trkpt>
      <trkpt lat="48.64739" lon="-2.45456">
        <ele>42.311462402344</ele>
        <time>2021-05-11T10:56:05Z</time>
      </trkpt>
      <trkpt lat="48.64747" lon="-2.45458">
        <ele>41.620727539062</ele>
        <time>2021-05-11T10:56:12Z</time>
      </trkpt>
      <trkpt lat="48.64755" lon="-2.45461">
        <ele>40.471069335938</ele>
        <time>2021-05-11T10:56:22Z</time>
      </trkpt>
      <trkpt lat="48.64764" lon="-2.4546">
        <ele>42.583801269531</ele>
        <time>2021-05-11T10:56:30Z</time>
      </trkpt>
      <trkpt lat="48.64767" lon="-2.45471">
        <ele>42.323120117188</ele>
        <time>2021-05-11T10:56:38Z</time>
      </trkpt>
      <trkpt lat="48.64767" lon="-2.45483">
        <ele>40.809509277344</ele>
        <time>2021-05-11T10:56:45Z</time>
      </trkpt>
      <trkpt lat="48.64764" lon="-2.45494">
        <ele>40.362731933594</ele>
        <time>2021-05-11T10:56:52Z</time>
      </trkpt>
      <trkpt lat="48.64763" lon="-2.45507">
        <ele>39.170471191406</ele>
        <time>2021-05-11T10:56:59Z</time>
      </trkpt>
      <trkpt lat="48.64762" lon="-2.4552">
        <ele>38.745361328125</ele>
        <time>2021-05-11T10:57:14Z</time>
      </trkpt>
      <trkpt lat="48.6476" lon="-2.45532">
        <ele>37.147583007812</ele>
        <time>2021-05-11T10:57:21Z</time>
      </trkpt>
      <trkpt lat="48.64763" lon="-2.45544">
        <ele>39.965515136719</ele>
        <time>2021-05-11T10:58:21Z</time>
      </trkpt>
      <trkpt lat="48.64766" lon="-2.45555">
        <ele>38.59814453125</ele>
        <time>2021-05-11T10:58:30Z</time>
      </trkpt>
      <trkpt lat="48.64771" lon="-2.45565">
        <ele>38.736328125</ele>
        <time>2021-05-11T10:58:38Z</time>
      </trkpt>
      <trkpt lat="48.64773" lon="-2.45575">
        <ele>38.443908691406</ele>
        <time>2021-05-11T10:58:53Z</time>
      </trkpt>
      <trkpt lat="48.64774" lon="-2.45588">
        <ele>37.00146484375</ele>
        <time>2021-05-11T10:59:00Z</time>
      </trkpt>
      <trkpt lat="48.64775" lon="-2.456">
        <ele>37.655639648438</ele>
        <time>2021-05-11T10:59:10Z</time>
      </trkpt>
      <trkpt lat="48.64774" lon="-2.45613">
        <ele>39.134460449219</ele>
        <time>2021-05-11T10:59:19Z</time>
      </trkpt>
      <trkpt lat="48.64777" lon="-2.45625">
        <ele>41.9814453125</ele>
        <time>2021-05-11T10:59:28Z</time>
      </trkpt>
      <trkpt lat="48.6478" lon="-2.45638">
        <ele>44.228881835938</ele>
        <time>2021-05-11T10:59:37Z</time>
      </trkpt>
      <trkpt lat="48.64786" lon="-2.45648">
        <ele>44.096435546875</ele>
        <time>2021-05-11T10:59:46Z</time>
      </trkpt>
      <trkpt lat="48.64789" lon="-2.45658">
        <ele>43.616333007812</ele>
        <time>2021-05-11T10:59:54Z</time>
      </trkpt>
      <trkpt lat="48.64794" lon="-2.4567">
        <ele>45.965026855469</ele>
        <time>2021-05-11T11:00:03Z</time>
      </trkpt>
      <trkpt lat="48.64794" lon="-2.45684">
        <ele>43.694946289062</ele>
        <time>2021-05-11T11:00:13Z</time>
      </trkpt>
      <trkpt lat="48.64797" lon="-2.45695">
        <ele>45.138000488281</ele>
        <time>2021-05-11T11:00:21Z</time>
      </trkpt>
      <trkpt lat="48.64801" lon="-2.45707">
        <ele>46.161926269531</ele>
        <time>2021-05-11T11:00:28Z</time>
      </trkpt>
      <trkpt lat="48.64805" lon="-2.45717">
        <ele>46.266784667969</ele>
        <time>2021-05-11T11:00:35Z</time>
      </trkpt>
      <trkpt lat="48.64807" lon="-2.4573">
        <ele>45.660400390625</ele>
        <time>2021-05-11T11:00:43Z</time>
      </trkpt>
      <trkpt lat="48.64807" lon="-2.45742">
        <ele>45.154052734375</ele>
        <time>2021-05-11T11:00:51Z</time>
      </trkpt>
      <trkpt lat="48.64808" lon="-2.45754">
        <ele>45.654724121094</ele>
        <time>2021-05-11T11:01:00Z</time>
      </trkpt>
      <trkpt lat="48.64808" lon="-2.45766">
        <ele>47.116577148438</ele>
        <time>2021-05-11T11:01:08Z</time>
      </trkpt>
      <trkpt lat="48.64806" lon="-2.45778">
        <ele>45.88232421875</ele>
        <time>2021-05-11T11:01:15Z</time>
      </trkpt>
      <trkpt lat="48.64803" lon="-2.45789">
        <ele>45.901611328125</ele>
        <time>2021-05-11T11:01:22Z</time>
      </trkpt>
      <trkpt lat="48.64801" lon="-2.45803">
        <ele>46.443908691406</ele>
        <time>2021-05-11T11:01:30Z</time>
      </trkpt>
      <trkpt lat="48.64801" lon="-2.45816">
        <ele>44.715515136719</ele>
        <time>2021-05-11T11:01:41Z</time>
      </trkpt>
      <trkpt lat="48.64801" lon="-2.45828">
        <ele>43.993957519531</ele>
        <time>2021-05-11T11:01:50Z</time>
      </trkpt>
      <trkpt lat="48.64797" lon="-2.4584">
        <ele>42.805297851562</ele>
        <time>2021-05-11T11:01:59Z</time>
      </trkpt>
      <trkpt lat="48.64798" lon="-2.45852">
        <ele>39.289794921875</ele>
        <time>2021-05-11T11:02:10Z</time>
      </trkpt>
      <trkpt lat="48.64797" lon="-2.45864">
        <ele>37.312561035156</ele>
        <time>2021-05-11T11:02:19Z</time>
      </trkpt>
      <trkpt lat="48.64797" lon="-2.45877">
        <ele>35.334289550781</ele>
        <time>2021-05-11T11:02:32Z</time>
      </trkpt>
      <trkpt lat="48.648" lon="-2.45888">
        <ele>35.177551269531</ele>
        <time>2021-05-11T11:02:48Z</time>
      </trkpt>
      <trkpt lat="48.64799" lon="-2.45902">
        <ele>34.817016601562</ele>
        <time>2021-05-11T11:02:56Z</time>
      </trkpt>
      <trkpt lat="48.64797" lon="-2.45914">
        <ele>33.711059570312</ele>
        <time>2021-05-11T11:03:08Z</time>
      </trkpt>
      <trkpt lat="48.64789" lon="-2.45918">
        <ele>33.165466308594</ele>
        <time>2021-05-11T11:03:14Z</time>
      </trkpt>
      <trkpt lat="48.64781" lon="-2.4592">
        <ele>33.527221679688</ele>
        <time>2021-05-11T11:03:21Z</time>
      </trkpt>
      <trkpt lat="48.64772" lon="-2.4592">
        <ele>33.748840332031</ele>
        <time>2021-05-11T11:04:39Z</time>
      </trkpt>
      <trkpt lat="48.64764" lon="-2.45919">
        <ele>36.296264648438</ele>
        <time>2021-05-11T11:04:47Z</time>
      </trkpt>
      <trkpt lat="48.64759" lon="-2.4593">
        <ele>29.835571289062</ele>
        <time>2021-05-11T11:05:04Z</time>
      </trkpt>
      <trkpt lat="48.64751" lon="-2.45933">
        <ele>28.264709472656</ele>
        <time>2021-05-11T11:05:11Z</time>
      </trkpt>
      <trkpt lat="48.64743" lon="-2.45933">
        <ele>30.14794921875</ele>
        <time>2021-05-11T11:05:21Z</time>
      </trkpt>
      <trkpt lat="48.64737" lon="-2.45942">
        <ele>31.926147460938</ele>
        <time>2021-05-11T11:05:35Z</time>
      </trkpt>
      <trkpt lat="48.64743" lon="-2.45949">
        <ele>31.658142089844</ele>
        <time>2021-05-11T11:05:48Z</time>
      </trkpt>
      <trkpt lat="48.64743" lon="-2.45962">
        <ele>28.162048339844</ele>
        <time>2021-05-11T11:05:58Z</time>
      </trkpt>
      <trkpt lat="48.64744" lon="-2.45975">
        <ele>26.927795410156</ele>
        <time>2021-05-11T11:06:09Z</time>
      </trkpt>
      <trkpt lat="48.64748" lon="-2.45987">
        <ele>24.700866699219</ele>
        <time>2021-05-11T11:06:20Z</time>
      </trkpt>
      <trkpt lat="48.64751" lon="-2.45999">
        <ele>21.47216796875</ele>
        <time>2021-05-11T11:06:36Z</time>
      </trkpt>
      <trkpt lat="48.64758" lon="-2.46006">
        <ele>20.0458984375</ele>
        <time>2021-05-11T11:06:44Z</time>
      </trkpt>
      <trkpt lat="48.64762" lon="-2.46017">
        <ele>18.384826660156</ele>
        <time>2021-05-11T11:06:54Z</time>
      </trkpt>
      <trkpt lat="48.64761" lon="-2.4603">
        <ele>15.445190429688</ele>
        <time>2021-05-11T11:07:09Z</time>
      </trkpt>
      <trkpt lat="48.64764" lon="-2.46042">
        <ele>15.391235351562</ele>
        <time>2021-05-11T11:07:18Z</time>
      </trkpt>
      <trkpt lat="48.64761" lon="-2.46054">
        <ele>15.962158203125</ele>
        <time>2021-05-11T11:07:28Z</time>
      </trkpt>
      <trkpt lat="48.64756" lon="-2.46064">
        <ele>14.775573730469</ele>
        <time>2021-05-11T11:07:40Z</time>
      </trkpt>
      <trkpt lat="48.6475" lon="-2.46072">
        <ele>14.1787109375</ele>
        <time>2021-05-11T11:07:48Z</time>
      </trkpt>
      <trkpt lat="48.64743" lon="-2.46079">
        <ele>16.518127441406</ele>
        <time>2021-05-11T11:07:57Z</time>
      </trkpt>
      <trkpt lat="48.64739" lon="-2.46089">
        <ele>18.283020019531</ele>
        <time>2021-05-11T11:08:05Z</time>
      </trkpt>
      <trkpt lat="48.64733" lon="-2.46098">
        <ele>17.439636230469</ele>
        <time>2021-05-11T11:08:13Z</time>
      </trkpt>
      <trkpt lat="48.64735" lon="-2.46111">
        <ele>17.897033691406</ele>
        <time>2021-05-11T11:08:23Z</time>
      </trkpt>
      <trkpt lat="48.64738" lon="-2.46123">
        <ele>15.179077148438</ele>
        <time>2021-05-11T11:08:32Z</time>
      </trkpt>
      <trkpt lat="48.6474" lon="-2.46136">
        <ele>16.410766601562</ele>
        <time>2021-05-11T11:08:45Z</time>
      </trkpt>
      <trkpt lat="48.64744" lon="-2.46147">
        <ele>18.003662109375</ele>
        <time>2021-05-11T11:08:55Z</time>
      </trkpt>
      <trkpt lat="48.64744" lon="-2.4616">
        <ele>15.780883789062</ele>
        <time>2021-05-11T11:09:03Z</time>
      </trkpt>
      <trkpt lat="48.64746" lon="-2.46173">
        <ele>17.3759765625</ele>
        <time>2021-05-11T11:09:10Z</time>
      </trkpt>
      <trkpt lat="48.64748" lon="-2.46184">
        <ele>17.444091796875</ele>
        <time>2021-05-11T11:09:56Z</time>
      </trkpt>
      <trkpt lat="48.64748" lon="-2.46197">
        <ele>16.469787597656</ele>
        <time>2021-05-11T11:10:10Z</time>
      </trkpt>
      <trkpt lat="48.64747" lon="-2.4621">
        <ele>17.065124511719</ele>
        <time>2021-05-11T11:10:17Z</time>
      </trkpt>
      <trkpt lat="48.64748" lon="-2.46223">
        <ele>16.957214355469</ele>
        <time>2021-05-11T11:10:27Z</time>
      </trkpt>
      <trkpt lat="48.6475" lon="-2.46235">
        <ele>16.621337890625</ele>
        <time>2021-05-11T11:10:34Z</time>
      </trkpt>
      <trkpt lat="48.64749" lon="-2.46248">
        <ele>16.785888671875</ele>
        <time>2021-05-11T11:10:41Z</time>
      </trkpt>
      <trkpt lat="48.64746" lon="-2.46259">
        <ele>14.913696289062</ele>
        <time>2021-05-11T11:10:51Z</time>
      </trkpt>
      <trkpt lat="48.64748" lon="-2.46271">
        <ele>16.809020996094</ele>
        <time>2021-05-11T11:10:58Z</time>
      </trkpt>
      <trkpt lat="48.64748" lon="-2.46284">
        <ele>17.25439453125</ele>
        <time>2021-05-11T11:11:06Z</time>
      </trkpt>
      <trkpt lat="48.64742" lon="-2.46295">
        <ele>18.417602539062</ele>
        <time>2021-05-11T11:11:44Z</time>
      </trkpt>
      <trkpt lat="48.64735" lon="-2.46301">
        <ele>18.224365234375</ele>
        <time>2021-05-11T11:12:01Z</time>
      </trkpt>
      <trkpt lat="48.64728" lon="-2.46308">
        <ele>21.804321289062</ele>
        <time>2021-05-11T11:12:19Z</time>
      </trkpt>
      <trkpt lat="48.6472" lon="-2.46314">
        <ele>23.717407226562</ele>
        <time>2021-05-11T11:12:31Z</time>
      </trkpt>
      <trkpt lat="48.64713" lon="-2.46322">
        <ele>26.576538085938</ele>
        <time>2021-05-11T11:12:49Z</time>
      </trkpt>
      <trkpt lat="48.64707" lon="-2.46331">
        <ele>30.357543945312</ele>
        <time>2021-05-11T11:13:03Z</time>
      </trkpt>
      <trkpt lat="48.64701" lon="-2.46341">
        <ele>30.313049316406</ele>
        <time>2021-05-11T11:13:20Z</time>
      </trkpt>
      <trkpt lat="48.64693" lon="-2.46345">
        <ele>36.279235839844</ele>
        <time>2021-05-11T11:14:59Z</time>
      </trkpt>
      <trkpt lat="48.64685" lon="-2.46351">
        <ele>36.967102050781</ele>
        <time>2021-05-11T11:15:10Z</time>
      </trkpt>
      <trkpt lat="48.6468" lon="-2.46361">
        <ele>38.330749511719</ele>
        <time>2021-05-11T11:15:25Z</time>
      </trkpt>
      <trkpt lat="48.64687" lon="-2.46369">
        <ele>41.501037597656</ele>
        <time>2021-05-11T11:15:49Z</time>
      </trkpt>
      <trkpt lat="48.64693" lon="-2.46377">
        <ele>40.373901367188</ele>
        <time>2021-05-11T11:15:59Z</time>
      </trkpt>
      <trkpt lat="48.64701" lon="-2.46382">
        <ele>41.959167480469</ele>
        <time>2021-05-11T11:16:08Z</time>
      </trkpt>
      <trkpt lat="48.64709" lon="-2.46382">
        <ele>40.327575683594</ele>
        <time>2021-05-11T11:16:16Z</time>
      </trkpt>
      <trkpt lat="48.64718" lon="-2.46383">
        <ele>39.203491210938</ele>
        <time>2021-05-11T11:16:24Z</time>
      </trkpt>
      <trkpt lat="48.64727" lon="-2.46385">
        <ele>38.628967285156</ele>
        <time>2021-05-11T11:16:34Z</time>
      </trkpt>
      <trkpt lat="48.64734" lon="-2.46389">
        <ele>39.312866210938</ele>
        <time>2021-05-11T11:16:39Z</time>
      </trkpt>
      <trkpt lat="48.64742" lon="-2.46396">
        <ele>39.286804199219</ele>
        <time>2021-05-11T11:17:06Z</time>
      </trkpt>
      <trkpt lat="48.64749" lon="-2.46401">
        <ele>39.381652832031</ele>
        <time>2021-05-11T11:17:14Z</time>
      </trkpt>
      <trkpt lat="48.64757" lon="-2.46407">
        <ele>38.891784667969</ele>
        <time>2021-05-11T11:17:21Z</time>
      </trkpt>
      <trkpt lat="48.64765" lon="-2.46409">
        <ele>39.01611328125</ele>
        <time>2021-05-11T11:17:27Z</time>
      </trkpt>
      <trkpt lat="48.64773" lon="-2.46414">
        <ele>38.825439453125</ele>
        <time>2021-05-11T11:17:35Z</time>
      </trkpt>
      <trkpt lat="48.64781" lon="-2.46419">
        <ele>42.329895019531</ele>
        <time>2021-05-11T11:17:51Z</time>
      </trkpt>
      <trkpt lat="48.64788" lon="-2.46426">
        <ele>41.734313964844</ele>
        <time>2021-05-11T11:17:59Z</time>
      </trkpt>
      <trkpt lat="48.64796" lon="-2.46432">
        <ele>38.51220703125</ele>
        <time>2021-05-11T11:18:09Z</time>
      </trkpt>
      <trkpt lat="48.64802" lon="-2.4644">
        <ele>40.306274414062</ele>
        <time>2021-05-11T11:18:18Z</time>
      </trkpt>
      <trkpt lat="48.64806" lon="-2.46452">
        <ele>41.571472167969</ele>
        <time>2021-05-11T11:18:27Z</time>
      </trkpt>
      <trkpt lat="48.64813" lon="-2.46457">
        <ele>39.763488769531</ele>
        <time>2021-05-11T11:18:36Z</time>
      </trkpt>
      <trkpt lat="48.6482" lon="-2.46464">
        <ele>40.540283203125</ele>
        <time>2021-05-11T11:18:43Z</time>
      </trkpt>
      <trkpt lat="48.64826" lon="-2.46473">
        <ele>40.502624511719</ele>
        <time>2021-05-11T11:18:53Z</time>
      </trkpt>
      <trkpt lat="48.64832" lon="-2.46481">
        <ele>39.239440917969</ele>
        <time>2021-05-11T11:19:00Z</time>
      </trkpt>
      <trkpt lat="48.6484" lon="-2.46488">
        <ele>41.05810546875</ele>
        <time>2021-05-11T11:19:08Z</time>
      </trkpt>
      <trkpt lat="48.64846" lon="-2.46496">
        <ele>39.14208984375</ele>
        <time>2021-05-11T11:19:18Z</time>
      </trkpt>
      <trkpt lat="48.64851" lon="-2.46506">
        <ele>40.620971679688</ele>
        <time>2021-05-11T11:19:27Z</time>
      </trkpt>
      <trkpt lat="48.64858" lon="-2.46514">
        <ele>40.006530761719</ele>
        <time>2021-05-11T11:19:36Z</time>
      </trkpt>
      <trkpt lat="48.64867" lon="-2.46512">
        <ele>41.841369628906</ele>
        <time>2021-05-11T11:19:43Z</time>
      </trkpt>
      <trkpt lat="48.64874" lon="-2.46518">
        <ele>42.972473144531</ele>
        <time>2021-05-11T11:19:54Z</time>
      </trkpt>
      <trkpt lat="48.64876" lon="-2.46531">
        <ele>43.527587890625</ele>
        <time>2021-05-11T11:20:02Z</time>
      </trkpt>
      <trkpt lat="48.64876" lon="-2.46543">
        <ele>45.280944824219</ele>
        <time>2021-05-11T11:20:09Z</time>
      </trkpt>
      <trkpt lat="48.64876" lon="-2.46556">
        <ele>43.60693359375</ele>
        <time>2021-05-11T11:20:17Z</time>
      </trkpt>
      <trkpt lat="48.64877" lon="-2.46567">
        <ele>41.91943359375</ele>
        <time>2021-05-11T11:20:24Z</time>
      </trkpt>
      <trkpt lat="48.64877" lon="-2.46579">
        <ele>42.11572265625</ele>
        <time>2021-05-11T11:20:31Z</time>
      </trkpt>
      <trkpt lat="48.64877" lon="-2.4659">
        <ele>41.076049804688</ele>
        <time>2021-05-11T11:20:47Z</time>
      </trkpt>
      <trkpt lat="48.64876" lon="-2.46602">
        <ele>41.695068359375</ele>
        <time>2021-05-11T11:20:53Z</time>
      </trkpt>
      <trkpt lat="48.64876" lon="-2.46614">
        <ele>41.527465820312</ele>
        <time>2021-05-11T11:21:00Z</time>
      </trkpt>
      <trkpt lat="48.6488" lon="-2.46625">
        <ele>38.983947753906</ele>
        <time>2021-05-11T11:21:10Z</time>
      </trkpt>
      <trkpt lat="48.64885" lon="-2.46636">
        <ele>40.066650390625</ele>
        <time>2021-05-11T11:21:18Z</time>
      </trkpt>
      <trkpt lat="48.64892" lon="-2.46645">
        <ele>39.116882324219</ele>
        <time>2021-05-11T11:21:26Z</time>
      </trkpt>
      <trkpt lat="48.64895" lon="-2.46656">
        <ele>38.636474609375</ele>
        <time>2021-05-11T11:21:34Z</time>
      </trkpt>
      <trkpt lat="48.64899" lon="-2.46667">
        <ele>37.044982910156</ele>
        <time>2021-05-11T11:21:43Z</time>
      </trkpt>
      <trkpt lat="48.64904" lon="-2.46678">
        <ele>37.609802246094</ele>
        <time>2021-05-11T11:21:52Z</time>
      </trkpt>
      <trkpt lat="48.64908" lon="-2.46689">
        <ele>38.85986328125</ele>
        <time>2021-05-11T11:21:59Z</time>
      </trkpt>
      <trkpt lat="48.64911" lon="-2.46701">
        <ele>40.337646484375</ele>
        <time>2021-05-11T11:22:06Z</time>
      </trkpt>
      <trkpt lat="48.64915" lon="-2.46713">
        <ele>38.532775878906</ele>
        <time>2021-05-11T11:22:14Z</time>
      </trkpt>
      <trkpt lat="48.64921" lon="-2.46722">
        <ele>36.903747558594</ele>
        <time>2021-05-11T11:22:23Z</time>
      </trkpt>
      <trkpt lat="48.64929" lon="-2.46726">
        <ele>36.50927734375</ele>
        <time>2021-05-11T11:22:32Z</time>
      </trkpt>
      <trkpt lat="48.64936" lon="-2.46732">
        <ele>38.781555175781</ele>
        <time>2021-05-11T11:22:40Z</time>
      </trkpt>
      <trkpt lat="48.64931" lon="-2.46743">
        <ele>34.617797851562</ele>
        <time>2021-05-11T11:24:52Z</time>
      </trkpt>
      <trkpt lat="48.64924" lon="-2.46749">
        <ele>34.563354492188</ele>
        <time>2021-05-11T11:25:01Z</time>
      </trkpt>
      <trkpt lat="48.64917" lon="-2.46756">
        <ele>35.59765625</ele>
        <time>2021-05-11T11:25:12Z</time>
      </trkpt>
      <trkpt lat="48.64908" lon="-2.4676">
        <ele>36.704650878906</ele>
        <time>2021-05-11T11:25:23Z</time>
      </trkpt>
      <trkpt lat="48.64901" lon="-2.46767">
        <ele>36.404113769531</ele>
        <time>2021-05-11T11:25:31Z</time>
      </trkpt>
      <trkpt lat="48.64892" lon="-2.4677">
        <ele>36.355285644531</ele>
        <time>2021-05-11T11:25:41Z</time>
      </trkpt>
      <trkpt lat="48.64884" lon="-2.46764">
        <ele>40.202514648438</ele>
        <time>2021-05-11T11:25:51Z</time>
      </trkpt>
      <trkpt lat="48.64876" lon="-2.46765">
        <ele>37.239013671875</ele>
        <time>2021-05-11T11:26:02Z</time>
      </trkpt>
      <trkpt lat="48.64867" lon="-2.46764">
        <ele>37.286499023438</ele>
        <time>2021-05-11T11:26:10Z</time>
      </trkpt>
      <trkpt lat="48.64858" lon="-2.46767">
        <ele>37.459350585938</ele>
        <time>2021-05-11T11:26:17Z</time>
      </trkpt>
      <trkpt lat="48.64851" lon="-2.46769">
        <ele>37.168334960938</ele>
        <time>2021-05-11T11:26:24Z</time>
      </trkpt>
      <trkpt lat="48.64843" lon="-2.46773">
        <ele>37.835815429688</ele>
        <time>2021-05-11T11:26:32Z</time>
      </trkpt>
      <trkpt lat="48.64835" lon="-2.46776">
        <ele>39.606323242188</ele>
        <time>2021-05-11T11:26:40Z</time>
      </trkpt>
      <trkpt lat="48.64827" lon="-2.46784">
        <ele>41.7841796875</ele>
        <time>2021-05-11T11:26:50Z</time>
      </trkpt>
      <trkpt lat="48.64826" lon="-2.46796">
        <ele>41.505737304688</ele>
        <time>2021-05-11T11:26:58Z</time>
      </trkpt>
      <trkpt lat="48.64825" lon="-2.46808">
        <ele>41.124816894531</ele>
        <time>2021-05-11T11:27:06Z</time>
      </trkpt>
      <trkpt lat="48.64824" lon="-2.46819">
        <ele>43.231567382812</ele>
        <time>2021-05-11T11:27:13Z</time>
      </trkpt>
      <trkpt lat="48.64823" lon="-2.46832">
        <ele>42.896179199219</ele>
        <time>2021-05-11T11:27:20Z</time>
      </trkpt>
      <trkpt lat="48.64821" lon="-2.46845">
        <ele>43.986267089844</ele>
        <time>2021-05-11T11:27:26Z</time>
      </trkpt>
      <trkpt lat="48.64821" lon="-2.46859">
        <ele>43.522399902344</ele>
        <time>2021-05-11T11:27:36Z</time>
      </trkpt>
      <trkpt lat="48.6482" lon="-2.46872">
        <ele>44.302185058594</ele>
        <time>2021-05-11T11:27:44Z</time>
      </trkpt>
      <trkpt lat="48.64821" lon="-2.46885">
        <ele>44.958312988281</ele>
        <time>2021-05-11T11:27:51Z</time>
      </trkpt>
      <trkpt lat="48.64821" lon="-2.46898">
        <ele>43.371276855469</ele>
        <time>2021-05-11T11:27:59Z</time>
      </trkpt>
      <trkpt lat="48.64819" lon="-2.46911">
        <ele>43.237670898438</ele>
        <time>2021-05-11T11:28:06Z</time>
      </trkpt>
      <trkpt lat="48.64815" lon="-2.46922">
        <ele>42.820068359375</ele>
        <time>2021-05-11T11:28:12Z</time>
      </trkpt>
      <trkpt lat="48.64808" lon="-2.4693">
        <ele>43.807373046875</ele>
        <time>2021-05-11T11:28:19Z</time>
      </trkpt>
      <trkpt lat="48.64802" lon="-2.4694">
        <ele>43.53564453125</ele>
        <time>2021-05-11T11:28:28Z</time>
      </trkpt>
      <trkpt lat="48.64795" lon="-2.46949">
        <ele>42.118041992188</ele>
        <time>2021-05-11T11:28:39Z</time>
      </trkpt>
      <trkpt lat="48.64791" lon="-2.46959">
        <ele>41.680725097656</ele>
        <time>2021-05-11T11:28:47Z</time>
      </trkpt>
      <trkpt lat="48.64785" lon="-2.46966">
        <ele>41.395080566406</ele>
        <time>2021-05-11T11:28:55Z</time>
      </trkpt>
      <trkpt lat="48.64777" lon="-2.46971">
        <ele>40.064025878906</ele>
        <time>2021-05-11T11:29:03Z</time>
      </trkpt>
      <trkpt lat="48.6477" lon="-2.46976">
        <ele>38.010498046875</ele>
        <time>2021-05-11T11:29:11Z</time>
      </trkpt>
      <trkpt lat="48.64762" lon="-2.46977">
        <ele>37.440124511719</ele>
        <time>2021-05-11T11:29:18Z</time>
      </trkpt>
      <trkpt lat="48.64753" lon="-2.46978">
        <ele>37.628356933594</ele>
        <time>2021-05-11T11:29:25Z</time>
      </trkpt>
      <trkpt lat="48.64746" lon="-2.46984">
        <ele>37.982299804688</ele>
        <time>2021-05-11T11:29:33Z</time>
      </trkpt>
      <trkpt lat="48.64737" lon="-2.46986">
        <ele>39.304870605469</ele>
        <time>2021-05-11T11:29:41Z</time>
      </trkpt>
      <trkpt lat="48.64729" lon="-2.46989">
        <ele>37.524536132812</ele>
        <time>2021-05-11T11:29:50Z</time>
      </trkpt>
      <trkpt lat="48.64721" lon="-2.46993">
        <ele>35.068420410156</ele>
        <time>2021-05-11T11:29:58Z</time>
      </trkpt>
      <trkpt lat="48.64712" lon="-2.46997">
        <ele>37.609924316406</ele>
        <time>2021-05-11T11:31:01Z</time>
      </trkpt>
      <trkpt lat="48.64707" lon="-2.47004">
        <ele>38.063354492188</ele>
        <time>2021-05-11T11:31:07Z</time>
      </trkpt>
      <trkpt lat="48.647" lon="-2.47012">
        <ele>36.165893554688</ele>
        <time>2021-05-11T11:31:14Z</time>
      </trkpt>
      <trkpt lat="48.64693" lon="-2.47017">
        <ele>36.292602539062</ele>
        <time>2021-05-11T11:31:20Z</time>
      </trkpt>
      <trkpt lat="48.64686" lon="-2.47022">
        <ele>35.090393066406</ele>
        <time>2021-05-11T11:31:27Z</time>
      </trkpt>
      <trkpt lat="48.64679" lon="-2.47027">
        <ele>34.125366210938</ele>
        <time>2021-05-11T11:31:34Z</time>
      </trkpt>
      <trkpt lat="48.64671" lon="-2.4703">
        <ele>37.344421386719</ele>
        <time>2021-05-11T11:31:41Z</time>
      </trkpt>
      <trkpt lat="48.64663" lon="-2.47034">
        <ele>36.382446289062</ele>
        <time>2021-05-11T11:31:49Z</time>
      </trkpt>
      <trkpt lat="48.64655" lon="-2.47037">
        <ele>38.318603515625</ele>
        <time>2021-05-11T11:31:56Z</time>
      </trkpt>
      <trkpt lat="48.64647" lon="-2.47039">
        <ele>37.627685546875</ele>
        <time>2021-05-11T11:32:03Z</time>
      </trkpt>
      <trkpt lat="48.64639" lon="-2.47044">
        <ele>37.173095703125</ele>
        <time>2021-05-11T11:32:11Z</time>
      </trkpt>
      <trkpt lat="48.64631" lon="-2.47052">
        <ele>35.215942382812</ele>
        <time>2021-05-11T11:32:19Z</time>
      </trkpt>
      <trkpt lat="48.64623" lon="-2.47057">
        <ele>39.352783203125</ele>
        <time>2021-05-11T11:32:26Z</time>
      </trkpt>
      <trkpt lat="48.64616" lon="-2.47064">
        <ele>38.569458007812</ele>
        <time>2021-05-11T11:32:32Z</time>
      </trkpt>
      <trkpt lat="48.6461" lon="-2.47072">
        <ele>40.702880859375</ele>
        <time>2021-05-11T11:32:40Z</time>
      </trkpt>
      <trkpt lat="48.64604" lon="-2.4708">
        <ele>38.783020019531</ele>
        <time>2021-05-11T11:32:48Z</time>
      </trkpt>
      <trkpt lat="48.64597" lon="-2.47087">
        <ele>39.324096679688</ele>
        <time>2021-05-11T11:32:55Z</time>
      </trkpt>
      <trkpt lat="48.64592" lon="-2.47097">
        <ele>37.795593261719</ele>
        <time>2021-05-11T11:33:04Z</time>
      </trkpt>
      <trkpt lat="48.64586" lon="-2.47107">
        <ele>39.3310546875</ele>
        <time>2021-05-11T11:33:11Z</time>
      </trkpt>
      <trkpt lat="48.64581" lon="-2.47117">
        <ele>39.460266113281</ele>
        <time>2021-05-11T11:33:18Z</time>
      </trkpt>
      <trkpt lat="48.64575" lon="-2.47125">
        <ele>40.296936035156</ele>
        <time>2021-05-11T11:33:24Z</time>
      </trkpt>
      <trkpt lat="48.6457" lon="-2.47134">
        <ele>41.59521484375</ele>
        <time>2021-05-11T11:33:32Z</time>
      </trkpt>
      <trkpt lat="48.64566" lon="-2.47145">
        <ele>40.736083984375</ele>
        <time>2021-05-11T11:33:40Z</time>
      </trkpt>
      <trkpt lat="48.64563" lon="-2.47157">
        <ele>40.438720703125</ele>
        <time>2021-05-11T11:33:46Z</time>
      </trkpt>
      <trkpt lat="48.64558" lon="-2.47167">
        <ele>38.31103515625</ele>
        <time>2021-05-11T11:33:53Z</time>
      </trkpt>
      <trkpt lat="48.64551" lon="-2.47172">
        <ele>38.912292480469</ele>
        <time>2021-05-11T11:34:00Z</time>
      </trkpt>
      <trkpt lat="48.64545" lon="-2.47179">
        <ele>39.708190917969</ele>
        <time>2021-05-11T11:34:07Z</time>
      </trkpt>
      <trkpt lat="48.6454" lon="-2.4719">
        <ele>39.322998046875</ele>
        <time>2021-05-11T11:34:15Z</time>
      </trkpt>
      <trkpt lat="48.64532" lon="-2.47185">
        <ele>39.389770507812</ele>
        <time>2021-05-11T11:34:43Z</time>
      </trkpt>
      <trkpt lat="48.64525" lon="-2.4718">
        <ele>41.787536621094</ele>
        <time>2021-05-11T11:34:50Z</time>
      </trkpt>
      <trkpt lat="48.64516" lon="-2.47179">
        <ele>40.750671386719</ele>
        <time>2021-05-11T11:35:05Z</time>
      </trkpt>
      <trkpt lat="48.64509" lon="-2.47175">
        <ele>41.608703613281</ele>
        <time>2021-05-11T11:35:13Z</time>
      </trkpt>
      <trkpt lat="48.645" lon="-2.47173">
        <ele>45.133361816406</ele>
        <time>2021-05-11T11:35:20Z</time>
      </trkpt>
      <trkpt lat="48.64493" lon="-2.47181">
        <ele>45.196533203125</ele>
        <time>2021-05-11T11:35:30Z</time>
      </trkpt>
      <trkpt lat="48.64488" lon="-2.47189">
        <ele>43.292236328125</ele>
        <time>2021-05-11T11:35:37Z</time>
      </trkpt>
      <trkpt lat="48.64482" lon="-2.47199">
        <ele>44.050964355469</ele>
        <time>2021-05-11T11:35:45Z</time>
      </trkpt>
      <trkpt lat="48.64477" lon="-2.47208">
        <ele>42.1767578125</ele>
        <time>2021-05-11T11:35:52Z</time>
      </trkpt>
      <trkpt lat="48.64471" lon="-2.47216">
        <ele>42.606994628906</ele>
        <time>2021-05-11T11:36:00Z</time>
      </trkpt>
      <trkpt lat="48.64464" lon="-2.47225">
        <ele>40.570922851562</ele>
        <time>2021-05-11T11:36:09Z</time>
      </trkpt>
      <trkpt lat="48.64459" lon="-2.47233">
        <ele>43.328125</ele>
        <time>2021-05-11T11:36:16Z</time>
      </trkpt>
      <trkpt lat="48.64454" lon="-2.47242">
        <ele>40.220520019531</ele>
        <time>2021-05-11T11:36:23Z</time>
      </trkpt>
      <trkpt lat="48.64453" lon="-2.47255">
        <ele>41.534606933594</ele>
        <time>2021-05-11T11:36:34Z</time>
      </trkpt>
      <trkpt lat="48.64458" lon="-2.47265">
        <ele>36.394165039062</ele>
        <time>2021-05-11T11:36:45Z</time>
      </trkpt>
      <trkpt lat="48.64459" lon="-2.47278">
        <ele>34.093078613281</ele>
        <time>2021-05-11T11:36:56Z</time>
      </trkpt>
      <trkpt lat="48.64461" lon="-2.47291">
        <ele>31.844848632812</ele>
        <time>2021-05-11T11:37:13Z</time>
      </trkpt>
      <trkpt lat="48.64463" lon="-2.47305">
        <ele>31.112670898438</ele>
        <time>2021-05-11T11:37:27Z</time>
      </trkpt>
      <trkpt lat="48.64465" lon="-2.47317">
        <ele>30.111877441406</ele>
        <time>2021-05-11T11:37:42Z</time>
      </trkpt>
      <trkpt lat="48.6447" lon="-2.47328">
        <ele>26.705017089844</ele>
        <time>2021-05-11T11:37:54Z</time>
      </trkpt>
      <trkpt lat="48.64476" lon="-2.47337">
        <ele>20.999877929688</ele>
        <time>2021-05-11T11:38:06Z</time>
      </trkpt>
      <trkpt lat="48.64481" lon="-2.47347">
        <ele>19.930969238281</ele>
        <time>2021-05-11T11:38:17Z</time>
      </trkpt>
      <trkpt lat="48.64486" lon="-2.47356">
        <ele>19.211181640625</ele>
        <time>2021-05-11T11:38:28Z</time>
      </trkpt>
      <trkpt lat="48.64494" lon="-2.47363">
        <ele>16.576049804688</ele>
        <time>2021-05-11T11:38:46Z</time>
      </trkpt>
      <trkpt lat="48.64501" lon="-2.47371">
        <ele>15.74853515625</ele>
        <time>2021-05-11T11:38:59Z</time>
      </trkpt>
      <trkpt lat="48.64504" lon="-2.47383">
        <ele>14.508117675781</ele>
        <time>2021-05-11T11:39:07Z</time>
      </trkpt>
      <trkpt lat="48.64507" lon="-2.47394">
        <ele>11.729675292969</ele>
        <time>2021-05-11T11:39:19Z</time>
      </trkpt>
      <trkpt lat="48.64509" lon="-2.47407">
        <ele>11.540649414062</ele>
        <time>2021-05-11T11:39:36Z</time>
      </trkpt>
      <trkpt lat="48.64503" lon="-2.47418">
        <ele>11.595764160156</ele>
        <time>2021-05-11T11:39:46Z</time>
      </trkpt>
      <trkpt lat="48.64497" lon="-2.47426">
        <ele>10.714904785156</ele>
        <time>2021-05-11T11:39:54Z</time>
      </trkpt>
      <trkpt lat="48.64493" lon="-2.47436">
        <ele>11.388916015625</ele>
        <time>2021-05-11T11:40:01Z</time>
      </trkpt>
      <trkpt lat="48.64489" lon="-2.47448">
        <ele>11.745971679688</ele>
        <time>2021-05-11T11:40:08Z</time>
      </trkpt>
      <trkpt lat="48.64486" lon="-2.4746">
        <ele>12.955810546875</ele>
        <time>2021-05-11T11:40:18Z</time>
      </trkpt>
      <trkpt lat="48.64483" lon="-2.47473">
        <ele>12.598510742188</ele>
        <time>2021-05-11T11:40:25Z</time>
      </trkpt>
      <trkpt lat="48.64478" lon="-2.47482">
        <ele>11.674743652344</ele>
        <time>2021-05-11T11:40:31Z</time>
      </trkpt>
      <trkpt lat="48.64471" lon="-2.4749">
        <ele>9.761474609375</ele>
        <time>2021-05-11T11:40:38Z</time>
      </trkpt>
      <trkpt lat="48.64463" lon="-2.47496">
        <ele>9.595458984375</ele>
        <time>2021-05-11T11:40:45Z</time>
      </trkpt>
      <trkpt lat="48.6446" lon="-2.47507">
        <ele>12.249572753906</ele>
        <time>2021-05-11T11:40:52Z</time>
      </trkpt>
      <trkpt lat="48.64456" lon="-2.47519">
        <ele>12.467712402344</ele>
        <time>2021-05-11T11:41:01Z</time>
      </trkpt>
      <trkpt lat="48.64452" lon="-2.47531">
        <ele>10.931396484375</ele>
        <time>2021-05-11T11:41:12Z</time>
      </trkpt>
      <trkpt lat="48.64445" lon="-2.47537">
        <ele>9.8991088867188</ele>
        <time>2021-05-11T11:41:22Z</time>
      </trkpt>
      <trkpt lat="48.64438" lon="-2.47542">
        <ele>8.6788940429688</ele>
        <time>2021-05-11T11:41:32Z</time>
      </trkpt>
      <trkpt lat="48.64435" lon="-2.47554">
        <ele>11.946594238281</ele>
        <time>2021-05-11T11:41:43Z</time>
      </trkpt>
      <trkpt lat="48.64429" lon="-2.47563">
        <ele>12.101928710938</ele>
        <time>2021-05-11T11:41:51Z</time>
      </trkpt>
      <trkpt lat="48.64423" lon="-2.47571">
        <ele>12.766296386719</ele>
        <time>2021-05-11T11:41:59Z</time>
      </trkpt>
      <trkpt lat="48.64415" lon="-2.47572">
        <ele>11.956481933594</ele>
        <time>2021-05-11T11:42:07Z</time>
      </trkpt>
      <trkpt lat="48.64409" lon="-2.47564">
        <ele>11.524841308594</ele>
        <time>2021-05-11T11:42:15Z</time>
      </trkpt>
      <trkpt lat="48.64402" lon="-2.47556">
        <ele>14.586547851562</ele>
        <time>2021-05-11T11:42:26Z</time>
      </trkpt>
      <trkpt lat="48.64397" lon="-2.47548">
        <ele>15.623413085938</ele>
        <time>2021-05-11T11:42:33Z</time>
      </trkpt>
      <trkpt lat="48.6439" lon="-2.47541">
        <ele>17.250549316406</ele>
        <time>2021-05-11T11:42:40Z</time>
      </trkpt>
      <trkpt lat="48.64383" lon="-2.47533">
        <ele>19.664489746094</ele>
        <time>2021-05-11T11:42:46Z</time>
      </trkpt>
      <trkpt lat="48.64376" lon="-2.47528">
        <ele>21.614440917969</ele>
        <time>2021-05-11T11:42:52Z</time>
      </trkpt>
      <trkpt lat="48.64368" lon="-2.47523">
        <ele>24.430969238281</ele>
        <time>2021-05-11T11:42:59Z</time>
      </trkpt>
      <trkpt lat="48.6436" lon="-2.47525">
        <ele>24.917846679688</ele>
        <time>2021-05-11T11:43:06Z</time>
      </trkpt>
      <trkpt lat="48.64352" lon="-2.47527">
        <ele>24.437744140625</ele>
        <time>2021-05-11T11:43:13Z</time>
      </trkpt>
      <trkpt lat="48.64343" lon="-2.47526">
        <ele>25.029541015625</ele>
        <time>2021-05-11T11:43:20Z</time>
      </trkpt>
      <trkpt lat="48.64336" lon="-2.47527">
        <ele>27.339538574219</ele>
        <time>2021-05-11T11:43:27Z</time>
      </trkpt>
      <trkpt lat="48.64328" lon="-2.47529">
        <ele>26.57861328125</ele>
        <time>2021-05-11T11:43:34Z</time>
      </trkpt>
      <trkpt lat="48.6432" lon="-2.47534">
        <ele>23.870300292969</ele>
        <time>2021-05-11T11:43:41Z</time>
      </trkpt>
      <trkpt lat="48.64314" lon="-2.4754">
        <ele>23.752136230469</ele>
        <time>2021-05-11T11:43:48Z</time>
      </trkpt>
      <trkpt lat="48.64307" lon="-2.47548">
        <ele>25.431213378906</ele>
        <time>2021-05-11T11:43:55Z</time>
      </trkpt>
      <trkpt lat="48.64299" lon="-2.47554">
        <ele>26.150451660156</ele>
        <time>2021-05-11T11:44:03Z</time>
      </trkpt>
      <trkpt lat="48.64292" lon="-2.47562">
        <ele>25.163940429688</ele>
        <time>2021-05-11T11:44:10Z</time>
      </trkpt>
      <trkpt lat="48.64286" lon="-2.4757">
        <ele>29.196166992188</ele>
        <time>2021-05-11T11:44:17Z</time>
      </trkpt>
      <trkpt lat="48.64279" lon="-2.47576">
        <ele>29.524108886719</ele>
        <time>2021-05-11T11:44:25Z</time>
      </trkpt>
      <trkpt lat="48.64272" lon="-2.47585">
        <ele>30.499633789062</ele>
        <time>2021-05-11T11:44:33Z</time>
      </trkpt>
      <trkpt lat="48.64272" lon="-2.47598">
        <ele>34.212585449219</ele>
        <time>2021-05-11T11:44:47Z</time>
      </trkpt>
      <trkpt lat="48.64274" lon="-2.47611">
        <ele>39.744201660156</ele>
        <time>2021-05-11T11:45:01Z</time>
      </trkpt>
      <trkpt lat="48.64281" lon="-2.4762">
        <ele>40.863952636719</ele>
        <time>2021-05-11T11:45:16Z</time>
      </trkpt>
      <trkpt lat="48.64285" lon="-2.47632">
        <ele>43.905395507812</ele>
        <time>2021-05-11T11:45:37Z</time>
      </trkpt>
      <trkpt lat="48.64289" lon="-2.47643">
        <ele>45.433837890625</ele>
        <time>2021-05-11T11:45:55Z</time>
      </trkpt>
      <trkpt lat="48.64296" lon="-2.47651">
        <ele>46.302978515625</ele>
        <time>2021-05-11T11:46:06Z</time>
      </trkpt>
      <trkpt lat="48.64302" lon="-2.47642">
        <ele>48.184509277344</ele>
        <time>2021-05-11T11:46:17Z</time>
      </trkpt>
      <trkpt lat="48.64309" lon="-2.47636">
        <ele>49.421691894531</ele>
        <time>2021-05-11T11:46:26Z</time>
      </trkpt>
      <trkpt lat="48.64313" lon="-2.47624">
        <ele>51.652099609375</ele>
        <time>2021-05-11T11:46:38Z</time>
      </trkpt>
      <trkpt lat="48.64315" lon="-2.47611">
        <ele>51.627807617188</ele>
        <time>2021-05-11T11:46:49Z</time>
      </trkpt>
      <trkpt lat="48.64318" lon="-2.47598">
        <ele>51.647094726562</ele>
        <time>2021-05-11T11:46:58Z</time>
      </trkpt>
      <trkpt lat="48.64324" lon="-2.47589">
        <ele>49.769897460938</ele>
        <time>2021-05-11T11:47:13Z</time>
      </trkpt>
      <trkpt lat="48.64333" lon="-2.47591">
        <ele>48.875122070312</ele>
        <time>2021-05-11T11:47:21Z</time>
      </trkpt>
      <trkpt lat="48.64339" lon="-2.476">
        <ele>48.417724609375</ele>
        <time>2021-05-11T11:47:30Z</time>
      </trkpt>
      <trkpt lat="48.64345" lon="-2.47609">
        <ele>46.826721191406</ele>
        <time>2021-05-11T11:47:40Z</time>
      </trkpt>
      <trkpt lat="48.64347" lon="-2.47622">
        <ele>47.880615234375</ele>
        <time>2021-05-11T11:47:48Z</time>
      </trkpt>
      <trkpt lat="48.64348" lon="-2.47635">
        <ele>47.667541503906</ele>
        <time>2021-05-11T11:47:57Z</time>
      </trkpt>
      <trkpt lat="48.64346" lon="-2.47647">
        <ele>48.957885742188</ele>
        <time>2021-05-11T11:48:04Z</time>
      </trkpt>
      <trkpt lat="48.64345" lon="-2.4766">
        <ele>50.422668457031</ele>
        <time>2021-05-11T11:48:14Z</time>
      </trkpt>
      <trkpt lat="48.64345" lon="-2.47672">
        <ele>50.505554199219</ele>
        <time>2021-05-11T11:48:21Z</time>
      </trkpt>
      <trkpt lat="48.64346" lon="-2.47685">
        <ele>52.028015136719</ele>
        <time>2021-05-11T11:48:31Z</time>
      </trkpt>
      <trkpt lat="48.64348" lon="-2.47698">
        <ele>51.45751953125</ele>
        <time>2021-05-11T11:48:39Z</time>
      </trkpt>
      <trkpt lat="48.64348" lon="-2.47711">
        <ele>51.94140625</ele>
        <time>2021-05-11T11:48:47Z</time>
      </trkpt>
      <trkpt lat="48.64349" lon="-2.47722">
        <ele>51.732421875</ele>
        <time>2021-05-11T11:48:54Z</time>
      </trkpt>
      <trkpt lat="48.64352" lon="-2.47734">
        <ele>51.25732421875</ele>
        <time>2021-05-11T11:49:02Z</time>
      </trkpt>
      <trkpt lat="48.64355" lon="-2.47747">
        <ele>50.673828125</ele>
        <time>2021-05-11T11:49:09Z</time>
      </trkpt>
      <trkpt lat="48.64361" lon="-2.47756">
        <ele>49.953979492188</ele>
        <time>2021-05-11T11:49:18Z</time>
      </trkpt>
      <trkpt lat="48.64366" lon="-2.47764">
        <ele>51.076599121094</ele>
        <time>2021-05-11T11:49:26Z</time>
      </trkpt>
      <trkpt lat="48.6437" lon="-2.47776">
        <ele>52.275756835938</ele>
        <time>2021-05-11T11:49:35Z</time>
      </trkpt>
      <trkpt lat="48.64371" lon="-2.47788">
        <ele>53.434997558594</ele>
        <time>2021-05-11T11:49:44Z</time>
      </trkpt>
      <trkpt lat="48.64371" lon="-2.47802">
        <ele>53.639404296875</ele>
        <time>2021-05-11T11:49:54Z</time>
      </trkpt>
      <trkpt lat="48.64374" lon="-2.47814">
        <ele>52.799987792969</ele>
        <time>2021-05-11T11:50:03Z</time>
      </trkpt>
      <trkpt lat="48.64375" lon="-2.47827">
        <ele>52.777221679688</ele>
        <time>2021-05-11T11:50:14Z</time>
      </trkpt>
      <trkpt lat="48.64375" lon="-2.4784">
        <ele>50.279052734375</ele>
        <time>2021-05-11T11:50:23Z</time>
      </trkpt>
      <trkpt lat="48.64375" lon="-2.47852">
        <ele>50.341796875</ele>
        <time>2021-05-11T11:50:31Z</time>
      </trkpt>
      <trkpt lat="48.64376" lon="-2.47865">
        <ele>51.959350585938</ele>
        <time>2021-05-11T11:50:38Z</time>
      </trkpt>
      <trkpt lat="48.64378" lon="-2.47878">
        <ele>50.639465332031</ele>
        <time>2021-05-11T11:50:48Z</time>
      </trkpt>
      <trkpt lat="48.64378" lon="-2.47891">
        <ele>51.8125</ele>
        <time>2021-05-11T11:50:58Z</time>
      </trkpt>
      <trkpt lat="48.64378" lon="-2.47904">
        <ele>53.473205566406</ele>
        <time>2021-05-11T11:51:07Z</time>
      </trkpt>
      <trkpt lat="48.6438" lon="-2.47917">
        <ele>52.620666503906</ele>
        <time>2021-05-11T11:51:17Z</time>
      </trkpt>
      <trkpt lat="48.64382" lon="-2.47929">
        <ele>53.017883300781</ele>
        <time>2021-05-11T11:51:25Z</time>
      </trkpt>
      <trkpt lat="48.64381" lon="-2.47942">
        <ele>53.710998535156</ele>
        <time>2021-05-11T11:52:10Z</time>
      </trkpt>
      <trkpt lat="48.64378" lon="-2.47955">
        <ele>53.283203125</ele>
        <time>2021-05-11T11:52:42Z</time>
      </trkpt>
      <trkpt lat="48.64375" lon="-2.47967">
        <ele>48.644470214844</ele>
        <time>2021-05-11T11:52:57Z</time>
      </trkpt>
      <trkpt lat="48.64373" lon="-2.47978">
        <ele>47.203063964844</ele>
        <time>2021-05-11T11:53:06Z</time>
      </trkpt>
      <trkpt lat="48.64368" lon="-2.47989">
        <ele>47.345153808594</ele>
        <time>2021-05-11T11:53:14Z</time>
      </trkpt>
      <trkpt lat="48.64365" lon="-2.48002">
        <ele>45.988525390625</ele>
        <time>2021-05-11T11:53:23Z</time>
      </trkpt>
      <trkpt lat="48.64364" lon="-2.48014">
        <ele>47.284973144531</ele>
        <time>2021-05-11T11:53:31Z</time>
      </trkpt>
      <trkpt lat="48.64363" lon="-2.48026">
        <ele>46.707275390625</ele>
        <time>2021-05-11T11:53:39Z</time>
      </trkpt>
      <trkpt lat="48.64362" lon="-2.48039">
        <ele>45.561279296875</ele>
        <time>2021-05-11T11:53:47Z</time>
      </trkpt>
      <trkpt lat="48.64362" lon="-2.48052">
        <ele>46.168090820312</ele>
        <time>2021-05-11T11:53:55Z</time>
      </trkpt>
      <trkpt lat="48.64363" lon="-2.48064">
        <ele>47.188110351562</ele>
        <time>2021-05-11T11:54:02Z</time>
      </trkpt>
      <trkpt lat="48.64364" lon="-2.48077">
        <ele>47.241088867188</ele>
        <time>2021-05-11T11:54:13Z</time>
      </trkpt>
      <trkpt lat="48.64365" lon="-2.48089">
        <ele>46.369018554688</ele>
        <time>2021-05-11T11:54:23Z</time>
      </trkpt>
      <trkpt lat="48.64366" lon="-2.48102">
        <ele>47.430725097656</ele>
        <time>2021-05-11T11:54:30Z</time>
      </trkpt>
      <trkpt lat="48.64368" lon="-2.48114">
        <ele>46.648132324219</ele>
        <time>2021-05-11T11:54:38Z</time>
      </trkpt>
      <trkpt lat="48.6437" lon="-2.48126">
        <ele>45.430419921875</ele>
        <time>2021-05-11T11:54:46Z</time>
      </trkpt>
      <trkpt lat="48.6437" lon="-2.48139">
        <ele>45.281127929688</ele>
        <time>2021-05-11T11:54:54Z</time>
      </trkpt>
      <trkpt lat="48.64368" lon="-2.48152">
        <ele>43.7314453125</ele>
        <time>2021-05-11T11:55:03Z</time>
      </trkpt>
      <trkpt lat="48.64362" lon="-2.48161">
        <ele>41.588562011719</ele>
        <time>2021-05-11T11:55:17Z</time>
      </trkpt>
      <trkpt lat="48.64354" lon="-2.48168">
        <ele>38.623291015625</ele>
        <time>2021-05-11T11:55:28Z</time>
      </trkpt>
      <trkpt lat="48.64347" lon="-2.48174">
        <ele>38.327880859375</ele>
        <time>2021-05-11T11:55:36Z</time>
      </trkpt>
      <trkpt lat="48.64345" lon="-2.48186">
        <ele>35.84423828125</ele>
        <time>2021-05-11T11:55:48Z</time>
      </trkpt>
      <trkpt lat="48.64348" lon="-2.48198">
        <ele>33.525939941406</ele>
        <time>2021-05-11T11:56:32Z</time>
      </trkpt>
      <trkpt lat="48.64352" lon="-2.4821">
        <ele>30.933715820312</ele>
        <time>2021-05-11T11:56:41Z</time>
      </trkpt>
      <trkpt lat="48.64354" lon="-2.48222">
        <ele>32.683410644531</ele>
        <time>2021-05-11T11:56:50Z</time>
      </trkpt>
      <trkpt lat="48.64359" lon="-2.48233">
        <ele>35.823120117188</ele>
        <time>2021-05-11T11:57:03Z</time>
      </trkpt>
      <trkpt lat="48.64367" lon="-2.48239">
        <ele>39.450622558594</ele>
        <time>2021-05-11T11:57:21Z</time>
      </trkpt>
      <trkpt lat="48.64376" lon="-2.48239">
        <ele>39.299621582031</ele>
        <time>2021-05-11T11:57:29Z</time>
      </trkpt>
      <trkpt lat="48.64382" lon="-2.48248">
        <ele>40.963256835938</ele>
        <time>2021-05-11T11:57:39Z</time>
      </trkpt>
      <trkpt lat="48.6439" lon="-2.48252">
        <ele>41.228881835938</ele>
        <time>2021-05-11T11:57:49Z</time>
      </trkpt>
      <trkpt lat="48.64398" lon="-2.4825">
        <ele>42.86376953125</ele>
        <time>2021-05-11T11:57:57Z</time>
      </trkpt>
      <trkpt lat="48.64407" lon="-2.48253">
        <ele>42.656433105469</ele>
        <time>2021-05-11T11:58:06Z</time>
      </trkpt>
      <trkpt lat="48.64415" lon="-2.48256">
        <ele>42.391906738281</ele>
        <time>2021-05-11T11:58:17Z</time>
      </trkpt>
      <trkpt lat="48.64416" lon="-2.48268">
        <ele>42.313049316406</ele>
        <time>2021-05-11T11:58:26Z</time>
      </trkpt>
      <trkpt lat="48.64419" lon="-2.48281">
        <ele>42.565979003906</ele>
        <time>2021-05-11T11:58:33Z</time>
      </trkpt>
      <trkpt lat="48.64421" lon="-2.48293">
        <ele>43.795227050781</ele>
        <time>2021-05-11T11:58:41Z</time>
      </trkpt>
      <trkpt lat="48.64426" lon="-2.48304">
        <ele>43.805480957031</ele>
        <time>2021-05-11T11:58:49Z</time>
      </trkpt>
      <trkpt lat="48.64433" lon="-2.48312">
        <ele>45.694519042969</ele>
        <time>2021-05-11T11:58:57Z</time>
      </trkpt>
      <trkpt lat="48.64438" lon="-2.48322">
        <ele>46.174438476562</ele>
        <time>2021-05-11T11:59:05Z</time>
      </trkpt>
      <trkpt lat="48.64441" lon="-2.48335">
        <ele>47.835083007812</ele>
        <time>2021-05-11T11:59:14Z</time>
      </trkpt>
      <trkpt lat="48.64444" lon="-2.48345">
        <ele>46.930053710938</ele>
        <time>2021-05-11T11:59:23Z</time>
      </trkpt>
      <trkpt lat="48.64449" lon="-2.48355">
        <ele>47.465393066406</ele>
        <time>2021-05-11T11:59:32Z</time>
      </trkpt>
      <trkpt lat="48.64451" lon="-2.48368">
        <ele>48.695434570312</ele>
        <time>2021-05-11T11:59:40Z</time>
      </trkpt>
      <trkpt lat="48.64455" lon="-2.4838">
        <ele>49.217041015625</ele>
        <time>2021-05-11T11:59:49Z</time>
      </trkpt>
      <trkpt lat="48.64457" lon="-2.48393">
        <ele>50.820861816406</ele>
        <time>2021-05-11T11:59:58Z</time>
      </trkpt>
      <trkpt lat="48.64458" lon="-2.48405">
        <ele>50.420043945312</ele>
        <time>2021-05-11T12:00:07Z</time>
      </trkpt>
      <trkpt lat="48.64459" lon="-2.48419">
        <ele>51.59814453125</ele>
        <time>2021-05-11T12:00:15Z</time>
      </trkpt>
      <trkpt lat="48.6446" lon="-2.48431">
        <ele>50.87353515625</ele>
        <time>2021-05-11T12:00:25Z</time>
      </trkpt>
      <trkpt lat="48.64461" lon="-2.48445">
        <ele>49.316467285156</ele>
        <time>2021-05-11T12:00:35Z</time>
      </trkpt>
      <trkpt lat="48.64464" lon="-2.48457">
        <ele>48.686706542969</ele>
        <time>2021-05-11T12:00:45Z</time>
      </trkpt>
      <trkpt lat="48.6447" lon="-2.48466">
        <ele>49.136657714844</ele>
        <time>2021-05-11T12:00:52Z</time>
      </trkpt>
      <trkpt lat="48.64477" lon="-2.48475">
        <ele>45.424926757812</ele>
        <time>2021-05-11T12:01:01Z</time>
      </trkpt>
      <trkpt lat="48.64483" lon="-2.48485">
        <ele>47.191101074219</ele>
        <time>2021-05-11T12:01:09Z</time>
      </trkpt>
      <trkpt lat="48.64486" lon="-2.48496">
        <ele>46.748718261719</ele>
        <time>2021-05-11T12:01:16Z</time>
      </trkpt>
      <trkpt lat="48.64488" lon="-2.48509">
        <ele>46.679504394531</ele>
        <time>2021-05-11T12:01:25Z</time>
      </trkpt>
      <trkpt lat="48.6449" lon="-2.48522">
        <ele>47.495239257812</ele>
        <time>2021-05-11T12:01:33Z</time>
      </trkpt>
      <trkpt lat="48.64489" lon="-2.48535">
        <ele>46.959106445312</ele>
        <time>2021-05-11T12:01:43Z</time>
      </trkpt>
      <trkpt lat="48.64488" lon="-2.48549">
        <ele>46.735595703125</ele>
        <time>2021-05-11T12:01:52Z</time>
      </trkpt>
      <trkpt lat="48.64487" lon="-2.48562">
        <ele>46.986206054688</ele>
        <time>2021-05-11T12:02:00Z</time>
      </trkpt>
      <trkpt lat="48.64488" lon="-2.48575">
        <ele>46.47802734375</ele>
        <time>2021-05-11T12:02:10Z</time>
      </trkpt>
      <trkpt lat="48.64486" lon="-2.48588">
        <ele>48.750793457031</ele>
        <time>2021-05-11T12:02:20Z</time>
      </trkpt>
      <trkpt lat="48.64487" lon="-2.48601">
        <ele>47.537170410156</ele>
        <time>2021-05-11T12:02:33Z</time>
      </trkpt>
      <trkpt lat="48.64485" lon="-2.48613">
        <ele>46.844055175781</ele>
        <time>2021-05-11T12:02:42Z</time>
      </trkpt>
      <trkpt lat="48.64476" lon="-2.48618">
        <ele>46.321411132812</ele>
        <time>2021-05-11T12:03:20Z</time>
      </trkpt>
      <trkpt lat="48.64469" lon="-2.48622">
        <ele>47.657836914062</ele>
        <time>2021-05-11T12:03:35Z</time>
      </trkpt>
      <trkpt lat="48.6446" lon="-2.48624">
        <ele>44.554321289062</ele>
        <time>2021-05-11T12:03:48Z</time>
      </trkpt>
      <trkpt lat="48.64454" lon="-2.48632">
        <ele>43.980041503906</ele>
        <time>2021-05-11T12:03:59Z</time>
      </trkpt>
      <trkpt lat="48.64448" lon="-2.48641">
        <ele>43.38916015625</ele>
        <time>2021-05-11T12:04:09Z</time>
      </trkpt>
      <trkpt lat="48.64439" lon="-2.48641">
        <ele>45.118408203125</ele>
        <time>2021-05-11T12:04:23Z</time>
      </trkpt>
      <trkpt lat="48.6443" lon="-2.48641">
        <ele>44.6650390625</ele>
        <time>2021-05-11T12:04:35Z</time>
      </trkpt>
      <trkpt lat="48.64424" lon="-2.48634">
        <ele>43.518127441406</ele>
        <time>2021-05-11T12:04:45Z</time>
      </trkpt>
      <trkpt lat="48.64418" lon="-2.48624">
        <ele>43.201232910156</ele>
        <time>2021-05-11T12:04:54Z</time>
      </trkpt>
      <trkpt lat="48.64413" lon="-2.48613">
        <ele>43.478637695312</ele>
        <time>2021-05-11T12:05:02Z</time>
      </trkpt>
      <trkpt lat="48.64404" lon="-2.48615">
        <ele>40.440856933594</ele>
        <time>2021-05-11T12:05:18Z</time>
      </trkpt>
      <trkpt lat="48.64396" lon="-2.48621">
        <ele>36.093139648438</ele>
        <time>2021-05-11T12:05:27Z</time>
      </trkpt>
      <trkpt lat="48.64388" lon="-2.48625">
        <ele>32.959350585938</ele>
        <time>2021-05-11T12:05:36Z</time>
      </trkpt>
      <trkpt lat="48.6438" lon="-2.48621">
        <ele>34.070922851562</ele>
        <time>2021-05-11T12:05:42Z</time>
      </trkpt>
      <trkpt lat="48.64372" lon="-2.48617">
        <ele>34.120727539062</ele>
        <time>2021-05-11T12:05:51Z</time>
      </trkpt>
      <trkpt lat="48.64365" lon="-2.4861">
        <ele>35.4912109375</ele>
        <time>2021-05-11T12:06:01Z</time>
      </trkpt>
      <trkpt lat="48.6436" lon="-2.48601">
        <ele>36.761962890625</ele>
        <time>2021-05-11T12:06:10Z</time>
      </trkpt>
      <trkpt lat="48.64351" lon="-2.48599">
        <ele>37.023681640625</ele>
        <time>2021-05-11T12:06:20Z</time>
      </trkpt>
      <trkpt lat="48.64343" lon="-2.48597">
        <ele>38.578247070312</ele>
        <time>2021-05-11T12:06:31Z</time>
      </trkpt>
      <trkpt lat="48.64335" lon="-2.486">
        <ele>41.904113769531</ele>
        <time>2021-05-11T12:06:41Z</time>
      </trkpt>
      <trkpt lat="48.64327" lon="-2.48604">
        <ele>39.567932128906</ele>
        <time>2021-05-11T12:06:50Z</time>
      </trkpt>
      <trkpt lat="48.64318" lon="-2.48603">
        <ele>39.818481445312</ele>
        <time>2021-05-11T12:06:59Z</time>
      </trkpt>
      <trkpt lat="48.6431" lon="-2.48603">
        <ele>40.36279296875</ele>
        <time>2021-05-11T12:07:06Z</time>
      </trkpt>
      <trkpt lat="48.64303" lon="-2.48598">
        <ele>41.202453613281</ele>
        <time>2021-05-11T12:07:15Z</time>
      </trkpt>
      <trkpt lat="48.64294" lon="-2.48596">
        <ele>40.392700195312</ele>
        <time>2021-05-11T12:07:25Z</time>
      </trkpt>
      <trkpt lat="48.64286" lon="-2.48591">
        <ele>38.811401367188</ele>
        <time>2021-05-11T12:07:34Z</time>
      </trkpt>
      <trkpt lat="48.64278" lon="-2.48585">
        <ele>37.382385253906</ele>
        <time>2021-05-11T12:07:45Z</time>
      </trkpt>
      <trkpt lat="48.64271" lon="-2.48594">
        <ele>38.66064453125</ele>
        <time>2021-05-11T12:07:58Z</time>
      </trkpt>
      <trkpt lat="48.64262" lon="-2.48596">
        <ele>39.494812011719</ele>
        <time>2021-05-11T12:08:09Z</time>
      </trkpt>
      <trkpt lat="48.64255" lon="-2.48602">
        <ele>36.203002929688</ele>
        <time>2021-05-11T12:08:25Z</time>
      </trkpt>
      <trkpt lat="48.64246" lon="-2.48598">
        <ele>35.149780273438</ele>
        <time>2021-05-11T12:08:50Z</time>
      </trkpt>
      <trkpt lat="48.64239" lon="-2.48592">
        <ele>33.935974121094</ele>
        <time>2021-05-11T12:09:03Z</time>
      </trkpt>
      <trkpt lat="48.64231" lon="-2.48589">
        <ele>36.433837890625</ele>
        <time>2021-05-11T12:09:21Z</time>
      </trkpt>
      <trkpt lat="48.64222" lon="-2.48591">
        <ele>36.994140625</ele>
        <time>2021-05-11T12:09:35Z</time>
      </trkpt>
      <trkpt lat="48.64216" lon="-2.48581">
        <ele>40.266723632812</ele>
        <time>2021-05-11T12:10:11Z</time>
      </trkpt>
      <trkpt lat="48.6422" lon="-2.48571">
        <ele>42.799072265625</ele>
        <time>2021-05-11T12:10:31Z</time>
      </trkpt>
      <trkpt lat="48.64222" lon="-2.48558">
        <ele>44.732238769531</ele>
        <time>2021-05-11T12:10:47Z</time>
      </trkpt>
      <trkpt lat="48.64223" lon="-2.48545">
        <ele>46.829467773438</ele>
        <time>2021-05-11T12:11:01Z</time>
      </trkpt>
      <trkpt lat="48.64226" lon="-2.48533">
        <ele>46.889282226562</ele>
        <time>2021-05-11T12:11:17Z</time>
      </trkpt>
      <trkpt lat="48.64228" lon="-2.4852">
        <ele>47.304382324219</ele>
        <time>2021-05-11T12:11:27Z</time>
      </trkpt>
      <trkpt lat="48.64228" lon="-2.48509">
        <ele>47.35888671875</ele>
        <time>2021-05-11T12:11:35Z</time>
      </trkpt>
      <trkpt lat="48.64222" lon="-2.485">
        <ele>46.545227050781</ele>
        <time>2021-05-11T12:11:43Z</time>
      </trkpt>
      <trkpt lat="48.64218" lon="-2.48489">
        <ele>46.800720214844</ele>
        <time>2021-05-11T12:11:50Z</time>
      </trkpt>
      <trkpt lat="48.64214" lon="-2.48477">
        <ele>48.41064453125</ele>
        <time>2021-05-11T12:11:58Z</time>
      </trkpt>
      <trkpt lat="48.64211" lon="-2.48466">
        <ele>47.866333007812</ele>
        <time>2021-05-11T12:12:05Z</time>
      </trkpt>
      <trkpt lat="48.64209" lon="-2.48453">
        <ele>47.009948730469</ele>
        <time>2021-05-11T12:12:13Z</time>
      </trkpt>
      <trkpt lat="48.64206" lon="-2.4844">
        <ele>47.878662109375</ele>
        <time>2021-05-11T12:12:24Z</time>
      </trkpt>
      <trkpt lat="48.64208" lon="-2.48427">
        <ele>48.065063476562</ele>
        <time>2021-05-11T12:12:32Z</time>
      </trkpt>
      <trkpt lat="48.64207" lon="-2.48414">
        <ele>46.459350585938</ele>
        <time>2021-05-11T12:12:41Z</time>
      </trkpt>
      <trkpt lat="48.6421" lon="-2.48402">
        <ele>46.925537109375</ele>
        <time>2021-05-11T12:12:50Z</time>
      </trkpt>
      <trkpt lat="48.64215" lon="-2.48391">
        <ele>48.128784179688</ele>
        <time>2021-05-11T12:12:58Z</time>
      </trkpt>
      <trkpt lat="48.64218" lon="-2.48379">
        <ele>46.012878417969</ele>
        <time>2021-05-11T12:13:08Z</time>
      </trkpt>
      <trkpt lat="48.64212" lon="-2.48369">
        <ele>47.507202148438</ele>
        <time>2021-05-11T12:13:19Z</time>
      </trkpt>
      <trkpt lat="48.64205" lon="-2.48362">
        <ele>47.141235351562</ele>
        <time>2021-05-11T12:13:29Z</time>
      </trkpt>
      <trkpt lat="48.64198" lon="-2.48355">
        <ele>48.493347167969</ele>
        <time>2021-05-11T12:13:37Z</time>
      </trkpt>
      <trkpt lat="48.64192" lon="-2.48347">
        <ele>48.031005859375</ele>
        <time>2021-05-11T12:13:46Z</time>
      </trkpt>
      <trkpt lat="48.64185" lon="-2.48339">
        <ele>48.063598632812</ele>
        <time>2021-05-11T12:13:54Z</time>
      </trkpt>
      <trkpt lat="48.64181" lon="-2.48327">
        <ele>49.922607421875</ele>
        <time>2021-05-11T12:14:02Z</time>
      </trkpt>
      <trkpt lat="48.64176" lon="-2.48317">
        <ele>49.768432617188</ele>
        <time>2021-05-11T12:14:11Z</time>
      </trkpt>
      <trkpt lat="48.6417" lon="-2.4831">
        <ele>48.852966308594</ele>
        <time>2021-05-11T12:14:18Z</time>
      </trkpt>
      <trkpt lat="48.64163" lon="-2.48303">
        <ele>49.012756347656</ele>
        <time>2021-05-11T12:14:24Z</time>
      </trkpt>
      <trkpt lat="48.64156" lon="-2.48295">
        <ele>49.978881835938</ele>
        <time>2021-05-11T12:14:31Z</time>
      </trkpt>
      <trkpt lat="48.64151" lon="-2.48287">
        <ele>51.013549804688</ele>
        <time>2021-05-11T12:14:38Z</time>
      </trkpt>
      <trkpt lat="48.64145" lon="-2.48278">
        <ele>50.1416015625</ele>
        <time>2021-05-11T12:14:45Z</time>
      </trkpt>
      <trkpt lat="48.64138" lon="-2.48271">
        <ele>50.71240234375</ele>
        <time>2021-05-11T12:14:54Z</time>
      </trkpt>
      <trkpt lat="48.6413" lon="-2.48265">
        <ele>51.509826660156</ele>
        <time>2021-05-11T12:15:07Z</time>
      </trkpt>
      <trkpt lat="48.64122" lon="-2.4826">
        <ele>51.995422363281</ele>
        <time>2021-05-11T12:15:16Z</time>
      </trkpt>
      <trkpt lat="48.64115" lon="-2.48254">
        <ele>53.120849609375</ele>
        <time>2021-05-11T12:15:27Z</time>
      </trkpt>
      <trkpt lat="48.64107" lon="-2.48247">
        <ele>52.618347167969</ele>
        <time>2021-05-11T12:15:37Z</time>
      </trkpt>
      <trkpt lat="48.641" lon="-2.48242">
        <ele>53.36474609375</ele>
        <time>2021-05-11T12:15:46Z</time>
      </trkpt>
      <trkpt lat="48.64092" lon="-2.48235">
        <ele>54.730529785156</ele>
        <time>2021-05-11T12:15:54Z</time>
      </trkpt>
      <trkpt lat="48.64086" lon="-2.48227">
        <ele>54.778198242188</ele>
        <time>2021-05-11T12:16:03Z</time>
      </trkpt>
      <trkpt lat="48.64079" lon="-2.48221">
        <ele>56.690185546875</ele>
        <time>2021-05-11T12:16:10Z</time>
      </trkpt>
      <trkpt lat="48.64072" lon="-2.48215">
        <ele>54.961608886719</ele>
        <time>2021-05-11T12:16:18Z</time>
      </trkpt>
      <trkpt lat="48.64064" lon="-2.48212">
        <ele>54.786865234375</ele>
        <time>2021-05-11T12:16:26Z</time>
      </trkpt>
      <trkpt lat="48.64056" lon="-2.48206">
        <ele>53.335632324219</ele>
        <time>2021-05-11T12:16:34Z</time>
      </trkpt>
      <trkpt lat="48.64048" lon="-2.48201">
        <ele>54.413513183594</ele>
        <time>2021-05-11T12:16:42Z</time>
      </trkpt>
      <trkpt lat="48.64041" lon="-2.48195">
        <ele>54.927856445312</ele>
        <time>2021-05-11T12:16:50Z</time>
      </trkpt>
      <trkpt lat="48.64033" lon="-2.4819">
        <ele>53.953857421875</ele>
        <time>2021-05-11T12:16:58Z</time>
      </trkpt>
      <trkpt lat="48.64025" lon="-2.48185">
        <ele>55.149658203125</ele>
        <time>2021-05-11T12:17:06Z</time>
      </trkpt>
      <trkpt lat="48.64017" lon="-2.4818">
        <ele>55.201538085938</ele>
        <time>2021-05-11T12:17:15Z</time>
      </trkpt>
      <trkpt lat="48.6401" lon="-2.48175">
        <ele>54.767639160156</ele>
        <time>2021-05-11T12:17:23Z</time>
      </trkpt>
      <trkpt lat="48.64004" lon="-2.4817">
        <ele>54.365844726562</ele>
        <time>2021-05-11T12:17:30Z</time>
      </trkpt>
      <trkpt lat="48.63997" lon="-2.48163">
        <ele>53.325012207031</ele>
        <time>2021-05-11T12:17:38Z</time>
      </trkpt>
      <trkpt lat="48.63989" lon="-2.48156">
        <ele>56.621337890625</ele>
        <time>2021-05-11T12:17:47Z</time>
      </trkpt>
      <trkpt lat="48.63982" lon="-2.48149">
        <ele>57.643676757812</ele>
        <time>2021-05-11T12:17:54Z</time>
      </trkpt>
      <trkpt lat="48.63975" lon="-2.48142">
        <ele>58.856384277344</ele>
        <time>2021-05-11T12:18:02Z</time>
      </trkpt>
      <trkpt lat="48.63968" lon="-2.48135">
        <ele>59.068481445312</ele>
        <time>2021-05-11T12:18:10Z</time>
      </trkpt>
      <trkpt lat="48.6396" lon="-2.48133">
        <ele>56.523071289062</ele>
        <time>2021-05-11T12:18:23Z</time>
      </trkpt>
      <trkpt lat="48.63952" lon="-2.48135">
        <ele>59.083740234375</ele>
        <time>2021-05-11T12:19:20Z</time>
      </trkpt>
      <trkpt lat="48.63943" lon="-2.48136">
        <ele>57.145324707031</ele>
        <time>2021-05-11T12:19:29Z</time>
      </trkpt>
      <trkpt lat="48.63934" lon="-2.48135">
        <ele>54.847595214844</ele>
        <time>2021-05-11T12:19:41Z</time>
      </trkpt>
      <trkpt lat="48.63926" lon="-2.48133">
        <ele>53.116455078125</ele>
        <time>2021-05-11T12:19:59Z</time>
      </trkpt>
      <trkpt lat="48.63917" lon="-2.48136">
        <ele>50.076904296875</ele>
        <time>2021-05-11T12:20:15Z</time>
      </trkpt>
      <trkpt lat="48.63909" lon="-2.48141">
        <ele>48.704528808594</ele>
        <time>2021-05-11T12:20:29Z</time>
      </trkpt>
      <trkpt lat="48.63906" lon="-2.48153">
        <ele>48.318420410156</ele>
        <time>2021-05-11T12:20:40Z</time>
      </trkpt>
      <trkpt lat="48.63898" lon="-2.48154">
        <ele>45.989440917969</ele>
        <time>2021-05-11T12:20:49Z</time>
      </trkpt>
      <trkpt lat="48.63891" lon="-2.4815">
        <ele>45.420837402344</ele>
        <time>2021-05-11T12:20:56Z</time>
      </trkpt>
      <trkpt lat="48.63883" lon="-2.48156">
        <ele>45.776184082031</ele>
        <time>2021-05-11T12:21:04Z</time>
      </trkpt>
      <trkpt lat="48.63875" lon="-2.48158">
        <ele>44.753112792969</ele>
        <time>2021-05-11T12:21:19Z</time>
      </trkpt>
      <trkpt lat="48.63868" lon="-2.48168">
        <ele>44.794555664062</ele>
        <time>2021-05-11T12:21:41Z</time>
      </trkpt>
      <trkpt lat="48.6386" lon="-2.48172">
        <ele>45.632080078125</ele>
        <time>2021-05-11T12:21:54Z</time>
      </trkpt>
      <trkpt lat="48.63852" lon="-2.48176">
        <ele>43.929504394531</ele>
        <time>2021-05-11T12:22:03Z</time>
      </trkpt>
      <trkpt lat="48.6385" lon="-2.48188">
        <ele>47.286437988281</ele>
        <time>2021-05-11T12:22:14Z</time>
      </trkpt>
      <trkpt lat="48.63853" lon="-2.482">
        <ele>49.352600097656</ele>
        <time>2021-05-11T12:22:25Z</time>
      </trkpt>
      <trkpt lat="48.63855" lon="-2.48212">
        <ele>49.770202636719</ele>
        <time>2021-05-11T12:22:33Z</time>
      </trkpt>
      <trkpt lat="48.63858" lon="-2.48223">
        <ele>50.050720214844</ele>
        <time>2021-05-11T12:22:39Z</time>
      </trkpt>
      <trkpt lat="48.6386" lon="-2.48236">
        <ele>51.531127929688</ele>
        <time>2021-05-11T12:22:46Z</time>
      </trkpt>
      <trkpt lat="48.63863" lon="-2.48248">
        <ele>50.812866210938</ele>
        <time>2021-05-11T12:22:55Z</time>
      </trkpt>
      <trkpt lat="48.63866" lon="-2.4826">
        <ele>47.7548828125</ele>
        <time>2021-05-11T12:23:17Z</time>
      </trkpt>
      <trkpt lat="48.63865" lon="-2.48273">
        <ele>46.102478027344</ele>
        <time>2021-05-11T12:23:29Z</time>
      </trkpt>
      <trkpt lat="48.63868" lon="-2.48286">
        <ele>45.299682617188</ele>
        <time>2021-05-11T12:23:46Z</time>
      </trkpt>
      <trkpt lat="48.63861" lon="-2.48293">
        <ele>42.316040039062</ele>
        <time>2021-05-11T12:24:28Z</time>
      </trkpt>
      <trkpt lat="48.63869" lon="-2.48288">
        <ele>43.975219726562</ele>
        <time>2021-05-11T12:25:32Z</time>
      </trkpt>
      <trkpt lat="48.63869" lon="-2.48275">
        <ele>42.797424316406</ele>
        <time>2021-05-11T12:25:44Z</time>
      </trkpt>
      <trkpt lat="48.63868" lon="-2.48262">
        <ele>42.026428222656</ele>
        <time>2021-05-11T12:26:17Z</time>
      </trkpt>
      <trkpt lat="48.63859" lon="-2.4826">
        <ele>39.698486328125</ele>
        <time>2021-05-11T12:26:33Z</time>
      </trkpt>
      <trkpt lat="48.63849" lon="-2.4827">
        <ele>24.8</ele>
        <time>2021-05-11T12:26:47Z</time>
      </trkpt>
      <trkpt lat="48.63841" lon="-2.48269">
        <ele>24.6</ele>
        <time>2021-05-11T12:27:13Z</time>
      </trkpt>
      <trkpt lat="48.63837" lon="-2.48255">
        <ele>34.855834960938</ele>
        <time>2021-05-11T12:27:19Z</time>
      </trkpt>
      <trkpt lat="48.63834" lon="-2.48244">
        <ele>34.213317871094</ele>
        <time>2021-05-11T12:27:24Z</time>
      </trkpt>
      <trkpt lat="48.63832" lon="-2.48232">
        <ele>33.94384765625</ele>
        <time>2021-05-11T12:27:32Z</time>
      </trkpt>
      <trkpt lat="48.63828" lon="-2.48221">
        <ele>36.647583007812</ele>
        <time>2021-05-11T12:27:39Z</time>
      </trkpt>
      <trkpt lat="48.63827" lon="-2.48209">
        <ele>36.180786132812</ele>
        <time>2021-05-11T12:27:47Z</time>
      </trkpt>
      <trkpt lat="48.63824" lon="-2.48198">
        <ele>36.592834472656</ele>
        <time>2021-05-11T12:27:58Z</time>
      </trkpt>
      <trkpt lat="48.63823" lon="-2.48185">
        <ele>36.527099609375</ele>
        <time>2021-05-11T12:28:09Z</time>
      </trkpt>
      <trkpt lat="48.6382" lon="-2.48173">
        <ele>37.783630371094</ele>
        <time>2021-05-11T12:28:17Z</time>
      </trkpt>
      <trkpt lat="48.63819" lon="-2.48161">
        <ele>37.788757324219</ele>
        <time>2021-05-11T12:28:24Z</time>
      </trkpt>
      <trkpt lat="48.63819" lon="-2.48148">
        <ele>34.350708007812</ele>
        <time>2021-05-11T12:28:32Z</time>
      </trkpt>
      <trkpt lat="48.63818" lon="-2.48136">
        <ele>35.059875488281</ele>
        <time>2021-05-11T12:28:42Z</time>
      </trkpt>
      <trkpt lat="48.63812" lon="-2.48127">
        <ele>32.948364257812</ele>
        <time>2021-05-11T12:29:12Z</time>
      </trkpt>
      <trkpt lat="48.63811" lon="-2.48114">
        <ele>33.987976074219</ele>
        <time>2021-05-11T12:29:54Z</time>
      </trkpt>
      <trkpt lat="48.63807" lon="-2.48102">
        <ele>35.036193847656</ele>
        <time>2021-05-11T12:30:11Z</time>
      </trkpt>
      <trkpt lat="48.63804" lon="-2.4809">
        <ele>35.895629882812</ele>
        <time>2021-05-11T12:30:22Z</time>
      </trkpt>
      <trkpt lat="48.63804" lon="-2.48077">
        <ele>36.594848632812</ele>
        <time>2021-05-11T12:30:32Z</time>
      </trkpt>
      <trkpt lat="48.638" lon="-2.48065">
        <ele>39.556335449219</ele>
        <time>2021-05-11T12:30:42Z</time>
      </trkpt>
      <trkpt lat="48.63796" lon="-2.48054">
        <ele>41.175720214844</ele>
        <time>2021-05-11T12:30:52Z</time>
      </trkpt>
      <trkpt lat="48.63792" lon="-2.48043">
        <ele>41.11865234375</ele>
        <time>2021-05-11T12:31:02Z</time>
      </trkpt>
      <trkpt lat="48.63788" lon="-2.48031">
        <ele>41.738098144531</ele>
        <time>2021-05-11T12:31:20Z</time>
      </trkpt>
      <trkpt lat="48.63781" lon="-2.48024">
        <ele>40.924072265625</ele>
        <time>2021-05-11T12:31:31Z</time>
      </trkpt>
      <trkpt lat="48.63775" lon="-2.48015">
        <ele>42.799438476562</ele>
        <time>2021-05-11T12:31:38Z</time>
      </trkpt>
      <trkpt lat="48.63773" lon="-2.48002">
        <ele>45.364318847656</ele>
        <time>2021-05-11T12:31:46Z</time>
      </trkpt>
      <trkpt lat="48.63777" lon="-2.47992">
        <ele>43.303527832031</ele>
        <time>2021-05-11T12:31:54Z</time>
      </trkpt>
      <trkpt lat="48.63783" lon="-2.47982">
        <ele>42.970642089844</ele>
        <time>2021-05-11T12:32:01Z</time>
      </trkpt>
      <trkpt lat="48.63777" lon="-2.47972">
        <ele>46.296752929688</ele>
        <time>2021-05-11T12:32:11Z</time>
      </trkpt>
      <trkpt lat="48.63771" lon="-2.47963">
        <ele>45.38525390625</ele>
        <time>2021-05-11T12:32:19Z</time>
      </trkpt>
      <trkpt lat="48.63765" lon="-2.47953">
        <ele>46.807800292969</ele>
        <time>2021-05-11T12:32:26Z</time>
      </trkpt>
      <trkpt lat="48.63763" lon="-2.47941">
        <ele>48.359619140625</ele>
        <time>2021-05-11T12:32:36Z</time>
      </trkpt>
      <trkpt lat="48.63764" lon="-2.47929">
        <ele>48.528442382812</ele>
        <time>2021-05-11T12:32:44Z</time>
      </trkpt>
      <trkpt lat="48.63765" lon="-2.47916">
        <ele>48.315185546875</ele>
        <time>2021-05-11T12:32:52Z</time>
      </trkpt>
      <trkpt lat="48.63765" lon="-2.47903">
        <ele>48.409118652344</ele>
        <time>2021-05-11T12:33:00Z</time>
      </trkpt>
      <trkpt lat="48.63763" lon="-2.47891">
        <ele>47.743225097656</ele>
        <time>2021-05-11T12:33:07Z</time>
      </trkpt>
      <trkpt lat="48.6376" lon="-2.47878">
        <ele>48.293273925781</ele>
        <time>2021-05-11T12:33:15Z</time>
      </trkpt>
      <trkpt lat="48.63755" lon="-2.47869">
        <ele>47.150085449219</ele>
        <time>2021-05-11T12:33:28Z</time>
      </trkpt>
      <trkpt lat="48.63752" lon="-2.47857">
        <ele>48.036193847656</ele>
        <time>2021-05-11T12:33:36Z</time>
      </trkpt>
      <trkpt lat="48.63749" lon="-2.47845">
        <ele>49.510498046875</ele>
        <time>2021-05-11T12:33:43Z</time>
      </trkpt>
      <trkpt lat="48.6375" lon="-2.47833">
        <ele>48.1689453125</ele>
        <time>2021-05-11T12:33:51Z</time>
      </trkpt>
      <trkpt lat="48.63752" lon="-2.4782">
        <ele>49.363952636719</ele>
        <time>2021-05-11T12:33:57Z</time>
      </trkpt>
      <trkpt lat="48.63758" lon="-2.4781">
        <ele>48.7158203125</ele>
        <time>2021-05-11T12:34:05Z</time>
      </trkpt>
      <trkpt lat="48.63759" lon="-2.47798">
        <ele>48.543518066406</ele>
        <time>2021-05-11T12:34:13Z</time>
      </trkpt>
      <trkpt lat="48.63761" lon="-2.47785">
        <ele>45.365112304688</ele>
        <time>2021-05-11T12:34:26Z</time>
      </trkpt>
      <trkpt lat="48.63756" lon="-2.47773">
        <ele>42.1015625</ele>
        <time>2021-05-11T12:34:42Z</time>
      </trkpt>
      <trkpt lat="48.63757" lon="-2.47764">
        <ele>43.7080078125</ele>
        <time>2021-05-11T12:40:49Z</time>
      </trkpt>
      <trkpt lat="48.63752" lon="-2.47754">
        <ele>42.729187011719</ele>
        <time>2021-05-11T12:40:58Z</time>
      </trkpt>
      <trkpt lat="48.63748" lon="-2.47743">
        <ele>42.838256835938</ele>
        <time>2021-05-11T12:41:06Z</time>
      </trkpt>
      <trkpt lat="48.63746" lon="-2.47731">
        <ele>42.099243164062</ele>
        <time>2021-05-11T12:41:13Z</time>
      </trkpt>
      <trkpt lat="48.63742" lon="-2.47719">
        <ele>39.948059082031</ele>
        <time>2021-05-11T12:41:20Z</time>
      </trkpt>
      <trkpt lat="48.63738" lon="-2.47709">
        <ele>39.659851074219</ele>
        <time>2021-05-11T12:41:28Z</time>
      </trkpt>
      <trkpt lat="48.63735" lon="-2.47697">
        <ele>38.385009765625</ele>
        <time>2021-05-11T12:41:36Z</time>
      </trkpt>
      <trkpt lat="48.63735" lon="-2.47686">
        <ele>38.861755371094</ele>
        <time>2021-05-11T12:41:41Z</time>
      </trkpt>
      <trkpt lat="48.63737" lon="-2.47673">
        <ele>40.566711425781</ele>
        <time>2021-05-11T12:41:49Z</time>
      </trkpt>
      <trkpt lat="48.63742" lon="-2.47661">
        <ele>38.274963378906</ele>
        <time>2021-05-11T12:41:57Z</time>
      </trkpt>
      <trkpt lat="48.63747" lon="-2.47652">
        <ele>37.885070800781</ele>
        <time>2021-05-11T12:42:05Z</time>
      </trkpt>
      <trkpt lat="48.63755" lon="-2.47647">
        <ele>36.598510742188</ele>
        <time>2021-05-11T12:42:17Z</time>
      </trkpt>
      <trkpt lat="48.63757" lon="-2.47634">
        <ele>41.344482421875</ele>
        <time>2021-05-11T12:42:32Z</time>
      </trkpt>
      <trkpt lat="48.63754" lon="-2.47623">
        <ele>40.906433105469</ele>
        <time>2021-05-11T12:42:41Z</time>
      </trkpt>
      <trkpt lat="48.63748" lon="-2.47613">
        <ele>47.473693847656</ele>
        <time>2021-05-11T12:43:21Z</time>
      </trkpt>
      <trkpt lat="48.6375" lon="-2.47627">
        <ele>49.53515625</ele>
        <time>2021-05-11T12:43:38Z</time>
      </trkpt>
      <trkpt lat="48.63748" lon="-2.47639">
        <ele>51.630126953125</ele>
        <time>2021-05-11T12:43:46Z</time>
      </trkpt>
      <trkpt lat="48.63743" lon="-2.47647">
        <ele>42.485473632812</ele>
        <time>2021-05-11T12:44:03Z</time>
      </trkpt>
      <trkpt lat="48.63737" lon="-2.47639">
        <ele>37.497680664062</ele>
        <time>2021-05-11T12:44:09Z</time>
      </trkpt>
      <trkpt lat="48.63737" lon="-2.47626">
        <ele>35.703125</ele>
        <time>2021-05-11T12:44:16Z</time>
      </trkpt>
      <trkpt lat="48.63732" lon="-2.47615">
        <ele>37.030517578125</ele>
        <time>2021-05-11T12:44:25Z</time>
      </trkpt>
      <trkpt lat="48.63728" lon="-2.47605">
        <ele>38.027526855469</ele>
        <time>2021-05-11T12:44:32Z</time>
      </trkpt>
      <trkpt lat="48.63725" lon="-2.47593">
        <ele>37.595520019531</ele>
        <time>2021-05-11T12:44:43Z</time>
      </trkpt>
      <trkpt lat="48.63722" lon="-2.47583">
        <ele>33.285827636719</ele>
        <time>2021-05-11T12:44:53Z</time>
      </trkpt>
      <trkpt lat="48.6372" lon="-2.47571">
        <ele>33.62548828125</ele>
        <time>2021-05-11T12:45:00Z</time>
      </trkpt>
      <trkpt lat="48.63719" lon="-2.47559">
        <ele>38.897644042969</ele>
        <time>2021-05-11T12:45:56Z</time>
      </trkpt>
      <trkpt lat="48.63719" lon="-2.47546">
        <ele>35.715087890625</ele>
        <time>2021-05-11T12:46:04Z</time>
      </trkpt>
      <trkpt lat="48.63718" lon="-2.47534">
        <ele>36.472412109375</ele>
        <time>2021-05-11T12:46:12Z</time>
      </trkpt>
      <trkpt lat="48.63714" lon="-2.47522">
        <ele>36.981994628906</ele>
        <time>2021-05-11T12:46:20Z</time>
      </trkpt>
      <trkpt lat="48.63712" lon="-2.4751">
        <ele>37.261657714844</ele>
        <time>2021-05-11T12:46:28Z</time>
      </trkpt>
      <trkpt lat="48.63709" lon="-2.47498">
        <ele>36.5791015625</ele>
        <time>2021-05-11T12:46:36Z</time>
      </trkpt>
      <trkpt lat="48.63704" lon="-2.47488">
        <ele>35.436401367188</ele>
        <time>2021-05-11T12:46:43Z</time>
      </trkpt>
      <trkpt lat="48.63703" lon="-2.47474">
        <ele>35.581420898438</ele>
        <time>2021-05-11T12:46:51Z</time>
      </trkpt>
      <trkpt lat="48.63701" lon="-2.47462">
        <ele>34.217834472656</ele>
        <time>2021-05-11T12:46:59Z</time>
      </trkpt>
      <trkpt lat="48.63697" lon="-2.4745">
        <ele>33.634582519531</ele>
        <time>2021-05-11T12:47:14Z</time>
      </trkpt>
      <trkpt lat="48.63695" lon="-2.47438">
        <ele>37.619506835938</ele>
        <time>2021-05-11T12:47:26Z</time>
      </trkpt>
      <trkpt lat="48.63699" lon="-2.47426">
        <ele>39.820434570312</ele>
        <time>2021-05-11T12:47:37Z</time>
      </trkpt>
      <trkpt lat="48.63707" lon="-2.47424">
        <ele>39.290710449219</ele>
        <time>2021-05-11T12:47:48Z</time>
      </trkpt>
      <trkpt lat="48.63715" lon="-2.47418">
        <ele>45.205322265625</ele>
        <time>2021-05-11T12:47:56Z</time>
      </trkpt>
      <trkpt lat="48.63714" lon="-2.4742">
        <ele>42.581726074219</ele>
        <time>2021-05-11T12:49:24Z</time>
      </trkpt>
      <trkpt lat="48.63714" lon="-2.4742">
        <ele>42.581726074219</ele>
        <time>2021-05-11T12:49:24Z</time>
      </trkpt>
      <trkpt lat="48.63714" lon="-2.47421">
        <ele>42.43701171875</ele>
        <time>2021-05-11T12:50:21Z</time>
      </trkpt>
      <trkpt lat="48.63706" lon="-2.47422">
        <ele>47.147094726562</ele>
        <time>2021-05-11T12:50:35Z</time>
      </trkpt>
      <trkpt lat="48.63698" lon="-2.47425">
        <ele>46.589416503906</ele>
        <time>2021-05-11T12:50:41Z</time>
      </trkpt>
      <trkpt lat="48.63694" lon="-2.47436">
        <ele>43.286865234375</ele>
        <time>2021-05-11T12:50:53Z</time>
      </trkpt>
      <trkpt lat="48.63698" lon="-2.47448">
        <ele>40.411071777344</ele>
        <time>2021-05-11T12:51:08Z</time>
      </trkpt>
      <trkpt lat="48.6369" lon="-2.47446">
        <ele>31.1</ele>
        <time>2021-05-11T12:51:32Z</time>
      </trkpt>
      <trkpt lat="48.63687" lon="-2.47435">
        <ele>30.4</ele>
        <time>2021-05-11T12:51:42Z</time>
      </trkpt>
      <trkpt lat="48.63684" lon="-2.47427">
        <ele>30.1</ele>
        <time>2021-05-11T12:51:50Z</time>
      </trkpt>
      <trkpt lat="48.6368" lon="-2.47414">
        <ele>29.4</ele>
        <time>2021-05-11T12:52:00Z</time>
      </trkpt>
      <trkpt lat="48.63676" lon="-2.47406">
        <ele>28.1</ele>
        <time>2021-05-11T12:52:15Z</time>
      </trkpt>
      <trkpt lat="48.63674" lon="-2.47395">
        <ele>27.3</ele>
        <time>2021-05-11T12:52:26Z</time>
      </trkpt>
      <trkpt lat="48.63668" lon="-2.47375">
        <ele>25.3</ele>
        <time>2021-05-11T12:52:44Z</time>
      </trkpt>
      <trkpt lat="48.63662" lon="-2.47386">
        <ele>23.9</ele>
      </trkpt>
      <trkpt lat="48.63659" lon="-2.47393">
        <ele>22.838134765625</ele>
        <time>2021-05-11T12:53:43Z</time>
      </trkpt>
      <trkpt lat="48.63651" lon="-2.47399">
        <ele>12.036193847656</ele>
        <time>2021-05-11T12:54:23Z</time>
      </trkpt>
      <trkpt lat="48.63642" lon="-2.47395">
        <ele>12.8564453125</ele>
        <time>2021-05-11T12:54:36Z</time>
      </trkpt>
      <trkpt lat="48.63639" lon="-2.47383">
        <ele>12.184509277344</ele>
        <time>2021-05-11T12:54:44Z</time>
      </trkpt>
      <trkpt lat="48.6364" lon="-2.47369">
        <ele>10.931518554688</ele>
        <time>2021-05-11T12:54:52Z</time>
      </trkpt>
      <trkpt lat="48.63641" lon="-2.47356">
        <ele>17.943420410156</ele>
        <time>2021-05-11T12:55:00Z</time>
      </trkpt>
      <trkpt lat="48.6364" lon="-2.47344">
        <ele>11.187927246094</ele>
        <time>2021-05-11T12:55:09Z</time>
      </trkpt>
      <trkpt lat="48.63644" lon="-2.47334">
        <ele>9.6055297851562</ele>
        <time>2021-05-11T12:55:15Z</time>
      </trkpt>
      <trkpt lat="48.6364" lon="-2.47324">
        <ele>13.600463867188</ele>
        <time>2021-05-11T12:55:23Z</time>
      </trkpt>
      <trkpt lat="48.63641" lon="-2.47311">
        <ele>10.091552734375</ele>
        <time>2021-05-11T12:55:31Z</time>
      </trkpt>
      <trkpt lat="48.6364" lon="-2.47299">
        <ele>7.2765502929688</ele>
        <time>2021-05-11T12:55:38Z</time>
      </trkpt>
      <trkpt lat="48.63637" lon="-2.47287">
        <ele>6.5436401367188</ele>
        <time>2021-05-11T12:55:45Z</time>
      </trkpt>
      <trkpt lat="48.63632" lon="-2.47278">
        <ele>3.61376953125</ele>
        <time>2021-05-11T12:55:53Z</time>
      </trkpt>
      <trkpt lat="48.63626" lon="-2.47267">
        <ele>6.6522827148438</ele>
        <time>2021-05-11T12:56:00Z</time>
      </trkpt>
      <trkpt lat="48.63622" lon="-2.47278">
        <ele>6.1369018554688</ele>
        <time>2021-05-11T12:56:06Z</time>
      </trkpt>
      <trkpt lat="48.6362" lon="-2.47264">
        <ele>4.12744140625</ele>
        <time>2021-05-11T12:56:47Z</time>
      </trkpt>
      <trkpt lat="48.6362" lon="-2.47253">
        <ele>6.0374755859375</ele>
        <time>2021-05-11T12:56:53Z</time>
      </trkpt>
      <trkpt lat="48.6362" lon="-2.4724">
        <ele>5.3018188476562</ele>
        <time>2021-05-11T12:57:00Z</time>
      </trkpt>
      <trkpt lat="48.63617" lon="-2.47228">
        <ele>6.673095703125</ele>
        <time>2021-05-11T12:57:07Z</time>
      </trkpt>
      <trkpt lat="48.63615" lon="-2.47216">
        <ele>6.598876953125</ele>
        <time>2021-05-11T12:57:14Z</time>
      </trkpt>
      <trkpt lat="48.63614" lon="-2.47204">
        <ele>7.0718383789062</ele>
        <time>2021-05-11T12:57:20Z</time>
      </trkpt>
      <trkpt lat="48.63613" lon="-2.47191">
        <ele>7.8897705078125</ele>
        <time>2021-05-11T12:57:28Z</time>
      </trkpt>
      <trkpt lat="48.63611" lon="-2.47178">
        <ele>9.20263671875</ele>
        <time>2021-05-11T12:57:34Z</time>
      </trkpt>
      <trkpt lat="48.63609" lon="-2.47165">
        <ele>10.410705566406</ele>
        <time>2021-05-11T12:57:42Z</time>
      </trkpt>
      <trkpt lat="48.63608" lon="-2.47152">
        <ele>8.8630981445312</ele>
        <time>2021-05-11T12:57:51Z</time>
      </trkpt>
      <trkpt lat="48.63608" lon="-2.4714">
        <ele>8.9486083984375</ele>
        <time>2021-05-11T12:57:59Z</time>
      </trkpt>
      <trkpt lat="48.63606" lon="-2.47127">
        <ele>4.7237548828125</ele>
        <time>2021-05-11T12:58:09Z</time>
      </trkpt>
      <trkpt lat="48.63606" lon="-2.47115">
        <ele>2.9899291992188</ele>
        <time>2021-05-11T12:58:16Z</time>
      </trkpt>
      <trkpt lat="48.63603" lon="-2.47103">
        <ele>-0.24517822265625</ele>
        <time>2021-05-11T12:58:26Z</time>
      </trkpt>
      <trkpt lat="48.63601" lon="-2.47091">
        <ele>0.35418701171875</ele>
        <time>2021-05-11T12:58:33Z</time>
      </trkpt>
      <trkpt lat="48.63601" lon="-2.47078">
        <ele>0.13238525390625</ele>
        <time>2021-05-11T12:58:40Z</time>
      </trkpt>
      <trkpt lat="48.63602" lon="-2.47066">
        <ele>1.6785278320312</ele>
        <time>2021-05-11T12:58:47Z</time>
      </trkpt>
      <trkpt lat="48.636" lon="-2.47052">
        <ele>0.771728515625</ele>
        <time>2021-05-11T12:58:55Z</time>
      </trkpt>
      <trkpt lat="48.63597" lon="-2.47041">
        <ele>2.3108520507812</ele>
        <time>2021-05-11T12:59:03Z</time>
      </trkpt>
      <trkpt lat="48.63595" lon="-2.47029">
        <ele>2.8724975585938</ele>
        <time>2021-05-11T12:59:10Z</time>
      </trkpt>
      <trkpt lat="48.63594" lon="-2.47016">
        <ele>3.1336059570312</ele>
        <time>2021-05-11T12:59:18Z</time>
      </trkpt>
      <trkpt lat="48.63594" lon="-2.47004">
        <ele>5.09423828125</ele>
        <time>2021-05-11T12:59:25Z</time>
      </trkpt>
      <trkpt lat="48.63595" lon="-2.46991">
        <ele>3.2779541015625</ele>
        <time>2021-05-11T12:59:33Z</time>
      </trkpt>
      <trkpt lat="48.63598" lon="-2.4698">
        <ele>1.3953857421875</ele>
        <time>2021-05-11T12:59:41Z</time>
      </trkpt>
      <trkpt lat="48.636" lon="-2.46967">
        <ele>1.8501586914062</ele>
        <time>2021-05-11T12:59:48Z</time>
      </trkpt>
      <trkpt lat="48.63603" lon="-2.46954">
        <ele>4.1658325195312</ele>
        <time>2021-05-11T12:59:55Z</time>
      </trkpt>
      <trkpt lat="48.63607" lon="-2.46945">
        <ele>3.1700439453125</ele>
        <time>2021-05-11T13:00:02Z</time>
      </trkpt>
      <trkpt lat="48.63611" lon="-2.46933">
        <ele>4.3818359375</ele>
        <time>2021-05-11T13:00:10Z</time>
      </trkpt>
      <trkpt lat="48.63614" lon="-2.46921">
        <ele>4.190673828125</ele>
        <time>2021-05-11T13:00:17Z</time>
      </trkpt>
      <trkpt lat="48.63618" lon="-2.46911">
        <ele>4.8844604492188</ele>
        <time>2021-05-11T13:00:24Z</time>
      </trkpt>
      <trkpt lat="48.6362" lon="-2.46898">
        <ele>3.3758544921875</ele>
        <time>2021-05-11T13:00:31Z</time>
      </trkpt>
      <trkpt lat="48.63623" lon="-2.46886">
        <ele>6.9842529296875</ele>
        <time>2021-05-11T13:00:37Z</time>
      </trkpt>
      <trkpt lat="48.63623" lon="-2.46875">
        <ele>6.2860107421875</ele>
        <time>2021-05-11T13:00:45Z</time>
      </trkpt>
      <trkpt lat="48.63621" lon="-2.46863">
        <ele>5.6586303710938</ele>
        <time>2021-05-11T13:00:52Z</time>
      </trkpt>
      <trkpt lat="48.63619" lon="-2.46851">
        <ele>6.595703125</ele>
        <time>2021-05-11T13:00:59Z</time>
      </trkpt>
      <trkpt lat="48.63616" lon="-2.46838">
        <ele>5.6444702148438</ele>
        <time>2021-05-11T13:01:05Z</time>
      </trkpt>
      <trkpt lat="48.63612" lon="-2.46827">
        <ele>4.381103515625</ele>
        <time>2021-05-11T13:01:13Z</time>
      </trkpt>
      <trkpt lat="48.63608" lon="-2.46817">
        <ele>4.427978515625</ele>
        <time>2021-05-11T13:01:21Z</time>
      </trkpt>
      <trkpt lat="48.63602" lon="-2.4681">
        <ele>4.1361083984375</ele>
        <time>2021-05-11T13:01:28Z</time>
      </trkpt>
      <trkpt lat="48.63596" lon="-2.46802">
        <ele>4.6963500976562</ele>
        <time>2021-05-11T13:01:35Z</time>
      </trkpt>
      <trkpt lat="48.63589" lon="-2.46796">
        <ele>3.6793212890625</ele>
        <time>2021-05-11T13:01:43Z</time>
      </trkpt>
      <trkpt lat="48.63582" lon="-2.46789">
        <ele>2.8816528320312</ele>
        <time>2021-05-11T13:01:50Z</time>
      </trkpt>
      <trkpt lat="48.63577" lon="-2.46779">
        <ele>5.929931640625</ele>
        <time>2021-05-11T13:01:56Z</time>
      </trkpt>
      <trkpt lat="48.6357" lon="-2.46771">
        <ele>6.3890380859375</ele>
        <time>2021-05-11T13:02:04Z</time>
      </trkpt>
      <trkpt lat="48.63562" lon="-2.46764">
        <ele>5.772216796875</ele>
        <time>2021-05-11T13:02:10Z</time>
      </trkpt>
      <trkpt lat="48.63554" lon="-2.46762">
        <ele>5.2301025390625</ele>
        <time>2021-05-11T13:02:19Z</time>
      </trkpt>
      <trkpt lat="48.63546" lon="-2.46756">
        <ele>4.5982666015625</ele>
        <time>2021-05-11T13:02:27Z</time>
      </trkpt>
      <trkpt lat="48.63538" lon="-2.46749">
        <ele>5.1767578125</ele>
        <time>2021-05-11T13:02:36Z</time>
      </trkpt>
      <trkpt lat="48.63532" lon="-2.46744">
        <ele>5.6671142578125</ele>
        <time>2021-05-11T13:02:42Z</time>
      </trkpt>
      <trkpt lat="48.63524" lon="-2.46738">
        <ele>5.7000122070312</ele>
        <time>2021-05-11T13:02:50Z</time>
      </trkpt>
      <trkpt lat="48.63517" lon="-2.46732">
        <ele>6.9375</ele>
        <time>2021-05-11T13:02:56Z</time>
      </trkpt>
      <trkpt lat="48.6351" lon="-2.46726">
        <ele>7.3796997070312</ele>
        <time>2021-05-11T13:03:03Z</time>
      </trkpt>
      <trkpt lat="48.63501" lon="-2.46722">
        <ele>6.9111938476562</ele>
        <time>2021-05-11T13:03:12Z</time>
      </trkpt>
      <trkpt lat="48.63493" lon="-2.46718">
        <ele>5.8877563476562</ele>
        <time>2021-05-11T13:03:22Z</time>
      </trkpt>
      <trkpt lat="48.63486" lon="-2.46714">
        <ele>5.83740234375</ele>
        <time>2021-05-11T13:03:32Z</time>
      </trkpt>
      <trkpt lat="48.63478" lon="-2.46713">
        <ele>4.4075317382812</ele>
        <time>2021-05-11T13:03:39Z</time>
      </trkpt>
      <trkpt lat="48.63471" lon="-2.4671">
        <ele>3.2979125976562</ele>
        <time>2021-05-11T13:03:45Z</time>
      </trkpt>
      <trkpt lat="48.63463" lon="-2.46706">
        <ele>3.7202758789062</ele>
        <time>2021-05-11T13:03:51Z</time>
      </trkpt>
      <trkpt lat="48.63455" lon="-2.46702">
        <ele>3.22998046875</ele>
        <time>2021-05-11T13:03:58Z</time>
      </trkpt>
      <trkpt lat="48.63447" lon="-2.46697">
        <ele>4.7991333007812</ele>
        <time>2021-05-11T13:04:06Z</time>
      </trkpt>
      <trkpt lat="48.63439" lon="-2.46692">
        <ele>3.1524047851562</ele>
        <time>2021-05-11T13:04:14Z</time>
      </trkpt>
      <trkpt lat="48.63431" lon="-2.46688">
        <ele>1.6810302734375</ele>
        <time>2021-05-11T13:04:21Z</time>
      </trkpt>
      <trkpt lat="48.63422" lon="-2.46688">
        <ele>0.51690673828125</ele>
        <time>2021-05-11T13:04:29Z</time>
      </trkpt>
      <trkpt lat="48.63415" lon="-2.46686">
        <ele>0.9688720703125</ele>
        <time>2021-05-11T13:04:36Z</time>
      </trkpt>
      <trkpt lat="48.63406" lon="-2.46683">
        <ele>0.9427490234375</ele>
        <time>2021-05-11T13:04:44Z</time>
      </trkpt>
      <trkpt lat="48.63399" lon="-2.46679">
        <ele>2.3519897460938</ele>
        <time>2021-05-11T13:04:51Z</time>
      </trkpt>
      <trkpt lat="48.63391" lon="-2.46676">
        <ele>2.5604858398438</ele>
        <time>2021-05-11T13:04:58Z</time>
      </trkpt>
      <trkpt lat="48.63383" lon="-2.46675">
        <ele>3.4461059570312</ele>
        <time>2021-05-11T13:05:06Z</time>
      </trkpt>
      <trkpt lat="48.63374" lon="-2.46674">
        <ele>3.5458374023438</ele>
        <time>2021-05-11T13:05:13Z</time>
      </trkpt>
      <trkpt lat="48.63365" lon="-2.46673">
        <ele>2.0443115234375</ele>
        <time>2021-05-11T13:05:20Z</time>
      </trkpt>
      <trkpt lat="48.63357" lon="-2.46672">
        <ele>2.1072387695312</ele>
        <time>2021-05-11T13:05:28Z</time>
      </trkpt>
      <trkpt lat="48.63349" lon="-2.46671">
        <ele>2.8240966796875</ele>
        <time>2021-05-11T13:05:35Z</time>
      </trkpt>
      <trkpt lat="48.6334" lon="-2.46671">
        <ele>1.7994995117188</ele>
        <time>2021-05-11T13:05:43Z</time>
      </trkpt>
      <trkpt lat="48.63332" lon="-2.46672">
        <ele>2.0338745117188</ele>
        <time>2021-05-11T13:05:51Z</time>
      </trkpt>
      <trkpt lat="48.63323" lon="-2.46672">
        <ele>3.874267578125</ele>
        <time>2021-05-11T13:05:58Z</time>
      </trkpt>
      <trkpt lat="48.63314" lon="-2.46671">
        <ele>3.4108276367188</ele>
        <time>2021-05-11T13:06:06Z</time>
      </trkpt>
      <trkpt lat="48.63305" lon="-2.46673">
        <ele>2.9619140625</ele>
        <time>2021-05-11T13:06:14Z</time>
      </trkpt>
      <trkpt lat="48.63297" lon="-2.46675">
        <ele>4.1058349609375</ele>
        <time>2021-05-11T13:06:20Z</time>
      </trkpt>
      <trkpt lat="48.63289" lon="-2.46677">
        <ele>5.6854858398438</ele>
        <time>2021-05-11T13:06:28Z</time>
      </trkpt>
      <trkpt lat="48.63281" lon="-2.46676">
        <ele>5.7180786132812</ele>
        <time>2021-05-11T13:06:36Z</time>
      </trkpt>
      <trkpt lat="48.63272" lon="-2.46677">
        <ele>4.4688720703125</ele>
        <time>2021-05-11T13:06:46Z</time>
      </trkpt>
      <trkpt lat="48.63264" lon="-2.46678">
        <ele>6.921142578125</ele>
        <time>2021-05-11T13:06:53Z</time>
      </trkpt>
      <trkpt lat="48.63256" lon="-2.46681">
        <ele>7.360595703125</ele>
        <time>2021-05-11T13:07:00Z</time>
      </trkpt>
      <trkpt lat="48.63248" lon="-2.46682">
        <ele>7.68310546875</ele>
        <time>2021-05-11T13:07:06Z</time>
      </trkpt>
      <trkpt lat="48.63239" lon="-2.46683">
        <ele>6.8005981445312</ele>
        <time>2021-05-11T13:07:14Z</time>
      </trkpt>
      <trkpt lat="48.63231" lon="-2.46685">
        <ele>6.4951171875</ele>
        <time>2021-05-11T13:07:22Z</time>
      </trkpt>
      <trkpt lat="48.63223" lon="-2.46685">
        <ele>6.6920776367188</ele>
        <time>2021-05-11T13:07:29Z</time>
      </trkpt>
      <trkpt lat="48.63215" lon="-2.46687">
        <ele>6.1611328125</ele>
        <time>2021-05-11T13:07:36Z</time>
      </trkpt>
      <trkpt lat="48.63206" lon="-2.4669">
        <ele>4.7620239257812</ele>
        <time>2021-05-11T13:07:45Z</time>
      </trkpt>
      <trkpt lat="48.63198" lon="-2.46693">
        <ele>5.4332885742188</ele>
        <time>2021-05-11T13:07:53Z</time>
      </trkpt>
      <trkpt lat="48.63191" lon="-2.46692">
        <ele>7.13037109375</ele>
        <time>2021-05-11T13:08:00Z</time>
      </trkpt>
      <trkpt lat="48.63183" lon="-2.46697">
        <ele>6.7666015625</ele>
        <time>2021-05-11T13:08:08Z</time>
      </trkpt>
      <trkpt lat="48.63176" lon="-2.46702">
        <ele>6.4235229492188</ele>
        <time>2021-05-11T13:08:15Z</time>
      </trkpt>
      <trkpt lat="48.63168" lon="-2.46706">
        <ele>7.3193359375</ele>
        <time>2021-05-11T13:08:23Z</time>
      </trkpt>
      <trkpt lat="48.63159" lon="-2.46706">
        <ele>7.1010131835938</ele>
        <time>2021-05-11T13:08:30Z</time>
      </trkpt>
      <trkpt lat="48.6315" lon="-2.46707">
        <ele>7.6204223632812</ele>
        <time>2021-05-11T13:08:37Z</time>
      </trkpt>
      <trkpt lat="48.63143" lon="-2.4671">
        <ele>6.8401489257812</ele>
        <time>2021-05-11T13:08:45Z</time>
      </trkpt>
      <trkpt lat="48.63135" lon="-2.46715">
        <ele>5.881591796875</ele>
        <time>2021-05-11T13:08:53Z</time>
      </trkpt>
      <trkpt lat="48.63127" lon="-2.4672">
        <ele>5.5017700195312</ele>
        <time>2021-05-11T13:09:00Z</time>
      </trkpt>
      <trkpt lat="48.6312" lon="-2.46724">
        <ele>5.2594604492188</ele>
        <time>2021-05-11T13:09:08Z</time>
      </trkpt>
      <trkpt lat="48.63112" lon="-2.46729">
        <ele>5.1788330078125</ele>
        <time>2021-05-11T13:09:14Z</time>
      </trkpt>
      <trkpt lat="48.63104" lon="-2.46733">
        <ele>6.3588256835938</ele>
        <time>2021-05-11T13:09:21Z</time>
      </trkpt>
      <trkpt lat="48.63096" lon="-2.46738">
        <ele>6.289794921875</ele>
        <time>2021-05-11T13:09:29Z</time>
      </trkpt>
      <trkpt lat="48.63089" lon="-2.46743">
        <ele>7.1096801757812</ele>
        <time>2021-05-11T13:09:36Z</time>
      </trkpt>
      <trkpt lat="48.63082" lon="-2.46747">
        <ele>6.7615966796875</ele>
        <time>2021-05-11T13:09:43Z</time>
      </trkpt>
      <trkpt lat="48.63075" lon="-2.46753">
        <ele>4.975830078125</ele>
        <time>2021-05-11T13:09:50Z</time>
      </trkpt>
      <trkpt lat="48.63068" lon="-2.46758">
        <ele>4.9996337890625</ele>
        <time>2021-05-11T13:09:57Z</time>
      </trkpt>
      <trkpt lat="48.6306" lon="-2.46764">
        <ele>6.3378295898438</ele>
        <time>2021-05-11T13:10:05Z</time>
      </trkpt>
      <trkpt lat="48.63052" lon="-2.4677">
        <ele>5.7290649414062</ele>
        <time>2021-05-11T13:10:16Z</time>
      </trkpt>
      <trkpt lat="48.63045" lon="-2.46775">
        <ele>7.1288452148438</ele>
        <time>2021-05-11T13:10:23Z</time>
      </trkpt>
      <trkpt lat="48.63039" lon="-2.46781">
        <ele>6.9466552734375</ele>
        <time>2021-05-11T13:10:30Z</time>
      </trkpt>
      <trkpt lat="48.63031" lon="-2.46786">
        <ele>6.3992919921875</ele>
        <time>2021-05-11T13:10:37Z</time>
      </trkpt>
      <trkpt lat="48.63025" lon="-2.46792">
        <ele>4.4940185546875</ele>
        <time>2021-05-11T13:10:45Z</time>
      </trkpt>
      <trkpt lat="48.63018" lon="-2.468">
        <ele>4.5682983398438</ele>
        <time>2021-05-11T13:11:17Z</time>
      </trkpt>
      <trkpt lat="48.63011" lon="-2.46806">
        <ele>2.9672241210938</ele>
        <time>2021-05-11T13:11:24Z</time>
      </trkpt>
      <trkpt lat="48.63008" lon="-2.46808">
        <ele>6.1</ele>
      </trkpt>
      <trkpt lat="48.63007" lon="-2.46804">
        <ele>6.3</ele>
      </trkpt>
      <trkpt lat="48.63006" lon="-2.46802">
        <ele>6.4</ele>
      </trkpt>
    </trkseg>
  </trk>
</gpx>